     2              OBSERVATION DATA    GPS                 RINEX VERSION / TYPE
ASRINEXO V2.4.4 UX USGS 17-JAN-97 11:18                     PGM / RUN BY / DATE
                                                            COMMENT
Original Marker Name: lae2 LAPE2__T6nR4e_S23S24S26.._GLO    COMMENT
Campaign Name: usgs.landers.pro                             COMMENT
4-Character Station Name: LAE2                              COMMENT
6-Character Antenna Code: ASHP12                            COMMENT
Vertical Measurement Point: EGP                             COMMENT
Vertical Offset to Rinex Ref. Point: 0.0593                 COMMENT
Radial Measurement Point: EGP                               COMMENT
Radial Offset to Rinex Ref. Point: 0.1425                   COMMENT
Antenna Height from Field Measurement: 1.1470 m             COMMENT
Additional Antenna Identification Info.:                    COMMENT
Ashtech L1/L2 Revision B                                    COMMENT
Original XYZ: -2347555.7586 -4703947.7220 3600964.9802      COMMENT
New XYZ position is based on association with SCEC monument COMMENT
E1F2J9D3+0011. Position of that monument is believed to be  COMMENT
valid to within 1 m horizontally; vertical accuracy         COMMENT
should be no worse than 3-times this value.                 COMMENT
                                                            COMMENT
Revised Rinex header created by UCSD GPS archive for        COMMENT
GSAC on 10-Nov-1999 (1999:314) 23:50:12 GMT                 COMMENT
For assistance contact dagnew@ucsd.edu or hjohnson@ucsd.edu COMMENT
                                                            COMMENT
LAE2 LAPE2__T6NR4E_S23S24S26.._GLO                          MARKER NAME
GDH US GEOLOGICAL SURVEY                                    OBSERVER / AGENCY
591 ASHTECH Z-XII3 1E95                                     REC # / TYPE / VERS
36 ASHTECH GEODETIC P                                       ANT # / TYPE
 -2347562.0000 -4703945.0000  3600933.0000                  APPROX POSITION XYZ
        1.0788        0.0000        0.0000                  ANTENNA: DELTA H/E/N
     1     1     0                                          WAVELENGTH FACT L1/2
     5    C1    L1    L2    P1    P2                        # / TYPES OF OBSERV
    30                                                      INTERVAL
  1997     1    12    17    48    0.000000                  TIME OF FIRST OBS
  1997     1    12    23    30   30.000000                  TIME OF LAST OBS
                                                            END OF HEADER
 97  1 12 17 48  0.0000000  0  8 25 22 19 18 29 14 15 16
  23702908.294      271145.26449    197733.98849  23702908.0284   23702912.4124
  21129435.875     -103565.73649    -77047.77449  21129434.8274   21129439.5354
  24576491.565     -258948.97849                  24576493.028    24576500.5754
  23435878.084     -316179.60549   -229627.20849  23435877.9394   23435882.5204
  20835653.883    20835659.863                                    20835635.4884
  20275430.982      -56792.90849    -39755.52249  20275430.8014   20275435.5204
  24265559.586      143396.93049                  24265558.903    24265566.2404
  21312067.622      -11698.08749                  21312066.264    21312071.3444
 97  1 12 17 48 30.0000000  0  8 25 22 19 18 29 14 15 16
  23717270.824      346620.64449    256545.92449  23717270.7554   23717275.0714
  21123545.208     -134520.91049   -101168.66949  21123544.2054   21123549.1554
  24556850.705     -451671.75359   -339372.94049  24556850.4464   24556859.5144
  23418389.734     -408081.89049   -301239.33649  23418389.4564   23418393.8504
  20832709.395      -62265.24749    -14524.49159  20832709.2754   20832712.7214
  20272449.650      -72460.33449    -51963.90749  20272449.3054   20272454.0874
  24282152.051      283274.47059    211339.92949  24282152.0564   24282158.4134
  21298358.071     -326394.35649    -67836.67049  21298357.0544   21298362.0444
 97  1 12 17 49  0.0000000  0  8 25 22 19 18 29 14 15 16
  23731498.331      421386.67649    314805.12049  23731498.1564   23731502.4804
  21117629.150     -165609.18249   -125393.27549  21117628.2504   21117633.3734
  24537089.140     -555520.22349   -420293.70549  24537088.3374   24537098.7874
  23400762.948     -500712.11949   -373418.71349  23400762.3494   23400766.9724
  20829656.374      -78309.09649    -27026.19649  20829656.3694   20829659.7204
  20269427.029      -88344.32149    -64341.04449  20269426.7684   20269431.3964
  24298593.376      369668.28749    278659.66949  24298592.3154   24298599.5194
  21284583.234     -398781.06149   -124241.89449  21284582.2504   21284587.2734
 97  1 12 17 49 30.0000000  0  8 25 22 19 18 29 14 15 16
  23745614.421      495567.32749    372608.17349  23745614.6634   23745618.7834
  21111712.003     -196703.89149   -149622.89849  21111710.9174   21111716.1464
  24517231.962     -659869.79249   -501605.01549  24517229.4554   24517241.9194
  23383019.609     -593954.43649   -446075.06849  23383019.2234   23383023.4864
  20826519.732      -94792.17849    -39870.15849  20826519.7004   20826523.0354
  20266383.224     -104339.61549    -76804.91249  20266383.0354   20266387.5354
  24314904.249      455383.59349    345450.70149  24314902.1644   24314908.8384
  21270767.172     -471384.51349   -180816.00349  21270766.3754   21270771.3034
 97  1 12 17 50  0.0000000  0  8 25 22 19 18 29 14 15 16
  23759656.488      569358.70449    430107.89249  23759656.4024   23759660.1664
  21105830.511     -227611.56249   -173706.78349  21105829.5884   21105834.7874
  24497315.253     -764533.04749   -583160.79249  24497315.6814   24497322.3134
  23365198.908     -687603.23849   -519048.16649  23365197.4904   23365202.4864
  20823337.117     -111516.96949    -52902.46849  20823336.9844   20823340.3534
  20263356.143     -120247.08749    -89200.35149  20263356.0314   20263360.3364
  24331123.834      540618.59349    411867.43849  24331123.0344   24331130.2224
  21256947.708     -544006.26949   -237404.38449  21256947.1124   21256951.9404
 97  1 12 17 50 30.0000000  0  8 25 22 19 18 29 14 15 16
  23773668.919      642994.05649    487486.00749  23773668.5824   23773673.6614
  21100025.559     -258116.70349   -197477.00849  21100024.7374   21100029.6274
  24477383.633     -869274.00849   -664777.03149  24477383.1104   24477392.4314
  23347344.533     -781428.80849   -592158.98149  23347343.9804   23347347.7554
  20820153.481     -128247.33749    -65939.12149  20820153.4284   20820156.6804
  20260391.272     -135827.94649   -101341.28849  20260391.1734   20260395.8204
  24347294.548      625596.30449    478083.70349  24347294.1994   24347301.9484
  21243166.525     -616426.44449   -293835.68349  21243166.1024   21243171.0924
 97  1 12 17 51  0.0000000  0  8 25 22 19 18 29 14 15 16
  23787705.421      716756.67649    544963.30749  23787705.1944   23787710.0624
  21094350.063     -287941.80149   -220717.31549  21094349.3664   21094354.2704
  24457493.986     -973794.89749   -746221.82749  24457493.7994   24457502.7914
  23329509.954     -875149.49849   -665188.03749  23329509.1774   23329512.6784
  20817023.358     -144696.26949    -78756.47649  20817023.4454   20817026.6034
  20257542.414     -150798.98849   -113007.04449  20257542.2754   20257546.9474
  24363469.974      710598.20949    544318.78449  24363468.9614   24363476.7324
  21229477.123     -688364.80949   -349891.54749  21229476.6794   21229481.8634
 97  1 12 17 51 30.0000000  0  8 25 22 19 18 29 14 15 16
  23801812.865      790892.35549    602731.29949  23801813.1584   23801817.7624
  21088847.559     -316857.74549   -243249.20249  21088846.4954   21088851.6314
  24437693.123    -1077850.54549   -827304.07949  24437693.9764   24437701.4054
  23311743.366     -968513.79149   -737939.40449  23311743.5964   23311748.3074
  20813993.240     -160619.58049    -91164.25449  20813993.1124   20813996.7494
  20254859.579     -164897.40449   -123992.82649  20254859.1634   20254863.9124
  24379696.026      795866.26049    610761.26049  24379696.0984   24379703.0344
  21215926.185     -759575.41449   -405380.32749  21215925.2814   21215930.7534
 97  1 12 17 52  0.0000000  0  8 25 22 19 18 29 14 15 16
  23816037.570      865643.44449    660978.84349  23816037.6804   23816042.0614
  21083563.464     -344625.72449   -264886.58049  21083562.5334   21083567.6614
  24418025.838    -1181204.37649   -907839.46549  24418026.4824   24418034.0444
  23294091.234    -1061276.66449   -810222.16049  23294090.6174   23294096.1324
  20811105.966     -175792.30749   -102987.16849  20811106.1714   20811109.3604
  20252389.932     -177875.65849   -134105.76049  20252389.7424   20252394.4584
  24396017.327      881634.65449    677593.59849  24396016.8294   24396025.7724
  21202559.445     -829818.19849   -460114.96849  21202559.0944   21202563.9174
 97  1 12 17 52 30.0000000  0  8 25 22 19 18 29 14 15 16
  23830384.701      941038.06649    719727.82649  23830384.6384   23830388.8134
  21078504.137     -371212.46449   -285603.49749  21078503.1764   21078508.3314
  24398499.680    -1283816.38349   -987796.75549  24398500.4304   24398507.7594
  23276556.893    -1153420.82249   -882022.80249  23276555.9664   23276561.2574
  20808367.750     -190182.29949   -114200.15349  20808367.8374   20808370.9854
  20250137.779     -189710.94849   -143328.07649  20250137.7014   20250142.3274
  24412438.360      967926.53049    744833.83649  24412437.7214   24412445.6244
  21189385.735     -899046.59449   -514059.17549  21189385.6744   21189390.3894
 97  1 12 17 53  0.0000000  0  8 25 22 19 18 29 14 15 16
  23844839.826     1017000.00549    778918.86849  23844839.4614   23844843.5464
  21073660.490     -396665.91049   -305437.34449  21073659.7294   21073664.6224
  24379101.596    -1385755.74449  -1067229.91649  24379102.5094   24379108.8454
  23259126.305    -1245019.46149   -953398.33649  23259126.6924   23259130.2734
  20805764.975     -203860.01849   -124858.12249  20805765.0094   20805768.4014
  20248088.906     -200478.08449   -151718.06549  20248088.8004   20248093.3884
  24428946.832     1054677.77049    812432.01449  24428946.3024   24428953.9984
  21176396.508     -967305.67349   -567248.05449  21176395.9364   21176401.0454
 97  1 12 17 53 30.0000000  0  8 25 22 19 18 29 14 15 16
  23859381.068     1093414.03449    838462.20349  23859381.2544   23859385.2474
  21069012.253     -421092.44449   -324471.00149  21069011.4774   21069016.3304
  24359811.223    -1487128.53249  -1146221.58049  24359811.4334   24359818.5684
  23241780.156    -1336174.32249  -1024428.06149  23241780.2204   23241784.7084
  20803277.950     -216929.49849   -135042.13949  20803277.9304   20803281.1664
  20246221.591     -210291.22649   -159364.67649  20246221.4834   20246226.1164
  24445520.797     1141774.27249    880299.23049  24445520.1194   24445527.4994
  21163569.110    -1034713.99249   -619774.02049  21163568.6564   21163573.4224
 97  1 12 17 54  0.0000000  0  8 25 22 19 18 29 14 15 16
  23873973.391     1170096.60249    898214.83649  23873973.5924   23873978.3794
  21064527.633     -444659.45549   -342834.88949  21064526.7024   21064531.5684
  24340599.965    -1588084.27349  -1224888.25449  24340598.8144   24340606.8964
  23224488.453    -1427042.98149  -1095234.76149  23224488.4914   23224492.6304
  20800874.522     -229559.69749   -144883.85549  20800874.6144   20800878.0134
  20244504.054     -219317.05249   -166397.79849  20244503.8224   20244508.4964
  24462127.931     1229044.71249    948301.98549  24462127.3024   24462134.2974
  21150871.684    -1101439.66349   -671768.05149  21150871.3364   21150876.1434
 97  1 12 17 54 30.0000000  0  8 25 22 19 18 29 14 15 16
  23888589.459     1246904.23149    958064.90649  23888589.2544   23888593.2724
  21060182.104     -467495.63049   -360629.29749  21060181.0004   21060186.4234
  24321444.485    -1688746.10949  -1303325.90349  24321442.5264   24321450.7094
  23207225.859    -1517758.47549  -1165922.12649  23207225.0624   23207230.8954
  20798530.442     -241878.19949   -154482.69649  20798530.5374   20798533.8164
  20242913.025     -227678.01649   -172912.84249  20242912.8534   20242917.4404
  24478743.144     1316357.35349   1016337.63549  24478742.6394   24478750.8294
  21138278.550    -1167617.17449   -723334.94449  21138277.9254   21138283.1804
 97  1 12 17 55  0.0000000  0  8 25 22 19 18 29 14 15 16
  23903199.044     1323678.41749   1017888.90149  23903197.7514   23903203.9234
  21055944.784     -489762.57349   -377980.15949  21055943.9734   21055949.1914
  24302315.061    -1789269.19449  -1381655.35949  24302312.4694   24302323.7354
  23189965.497    -1608461.97849  -1236600.15849  23189964.9014   23189969.8144
  20796215.286     -254044.45349   -163962.89849  20796215.2104   20796218.6194
  20241421.692     -235515.15249   -179019.71649  20241421.5054   20241425.9664
  24495335.923     1403552.63749   1084281.85849  24495335.1924   24495344.7724
  21125756.682    -1233420.26549   -774610.08349  21125756.5834   21125760.8844
 97  1 12 17 55 30.0000000  0  8 25 22 19 18 29 14 15 16
  23917777.468     1400288.89949   1077585.30249  23917776.8384   23917782.1234
  21051790.185     -511595.29949   -394992.66849  21051789.5694   21051794.3214
  24283187.808    -1889782.33049  -1459977.17749  24283187.6894   24283195.7174
  23172685.536    -1699268.45549  -1307358.41549  23172684.6844   23172689.3194
  20793907.079     -266174.17449   -173414.63249  20793906.9884   20793910.6004
  20240008.857     -242939.61449   -184805.01949  20240008.9134   20240013.2864
  24511881.223     1490498.75549   1152031.88849  24511880.4684   24511889.5054
  21113281.051    -1298980.73149   -825696.16349  21113280.7504   21113285.0004
 97  1 12 17 56  0.0000000  0  8 25 22 19 18 29 14 15 16
  23932310.849     1476662.08949   1137096.79449  23932311.2864   23932314.9454
  21047704.027     -533068.47949   -411725.00649  21047703.6384   21047708.1514
  24264045.532    -1990376.28349  -1538362.00849  24264045.9414   24264052.1504
  23155369.135    -1790266.37349  -1378265.84749  23155368.7624   23155373.7044
  20791589.783     -278351.75649   -182903.66649  20791589.9524   20791593.3384
  20238660.329     -250026.66049   -190327.40549  20238660.1474   20238664.8034
  24528363.968     1577115.81449   1219525.54549  24528363.1184   24528371.4774
  21100839.682    -1364360.46049   -876641.40549  21100839.0034   21100844.0974
 97  1 12 17 56 30.0000000  0  8 25 22 19 18 29 14 15 16
  23946790.442     1552752.48249   1196387.92149  23946791.3814   23946795.4854
  21043676.241     -554235.00749   -428218.39949  21043675.6564   21043680.6894
  24244872.267    -2091133.45349  -1616874.03649  24244872.5944   24244879.3074
  23138000.586    -1881538.58949  -1449387.04249  23137999.8364   23138005.0994
  20789254.825     -290622.17649   -192465.04049  20789254.7784   20789258.3474
  20237363.299     -256842.64349   -195638.57049  20237363.0354   20237367.6234
  24544771.695     1663338.90749   1286712.24049  24544770.1594   24544779.5914
  21088420.472    -1429623.85449   -927496.00349  21088420.0714   21088425.0074
 97  1 12 17 57  0.0000000  0  9 25 22 19 18  4 29 14 15 16
  23961213.407     1628544.69849   1255446.73849  23961213.9774   23961219.4824
  21039703.097     -575114.14749   -444487.84549  21039702.2374   21039707.4494
  24225662.168    -2192083.51549  -1695536.40649  24225661.9834   24225666.9564
  23120574.842    -1973111.25349  -1520742.32549  23120573.2604   23120578.7164
  24847669.104     -982020.12349   -759202.60349  24847671.1354   24847674.3154
  20786900.586     -302993.84549   -202105.30449  20786900.7184   20786904.1314
  20236114.904     -263403.06349   -200750.59549  20236114.6094   20236119.1084
  24561100.688     1749148.29349   1353576.55249  24561100.4844   24561108.8754
  21076021.501    -1494780.88849   -978267.71549  21076020.8644   21076025.8514
 97  1 12 17 57 30.0000000  0  9 25 22 19 18  4 29 14 15 16
  23975577.277     1704026.37049   1314263.59849  23975576.9434   23975581.6984
  21035782.439     -595717.48049   -460542.37649  21035781.6414   21035786.3984
  24206413.125    -2293237.47149  -1774357.71559  24206412.6094   24206415.9774
  23103087.870    -2065005.21149  -1592347.97449  23103086.7564   23103092.0254
  24839871.706    -1022996.51449   -791132.27249  24839871.1954   24839875.8454
  20784524.304     -315481.28549   -211835.79149  20784524.3534   20784527.8344
  20234910.321     -269733.48549   -205683.39749  20234910.1034   20234914.6464
  24577348.975     1834533.54349   1420110.38449  24577349.4154   24577357.7764
  21063643.763    -1559826.46549  -1028952.57949  21063643.3334   21063648.0634
 97  1 12 17 58  0.0000000  0  9 25 22 19 18  4 29 14 15 16
  23989882.017     1779197.62349   1372838.54149  23989881.1814   23989886.4254
  21031916.454     -616033.68449   -476373.17249  21031915.8484   21031920.6544
  24187126.420    -2394589.87249  -1853333.60759  24187126.4214   24187132.3284
  23085537.250    -2157234.11649  -1664214.62449  23085536.5164   23085542.6094
  24832098.114    -1063847.33949   -822964.10049  24832098.8364   24832102.1674
  20782124.558     -328092.06249   -221662.37549  20782124.8144   20782128.0934
  20233748.979     -275836.68249   -210439.14849  20233748.8274   20233753.2704
  24593516.434     1919494.18049   1486313.33149  24593516.3534   24593524.0684
  21051288.702    -1624753.04949  -1079544.72249  21051287.9874   21051293.1654
 97  1 12 17 58 30.0000000  0  9 25 22 19 18  4 29 14 15 16
  24004123.198     1854034.89249   1431153.23149  24004123.2114   24004128.7574
  21028103.852     -636069.40249   -491985.41149  21028103.0274   21028107.7774
  24167803.197    -2496134.15249  -1932458.99049  24167802.3694   24167809.2844
  23067922.173    -2249802.28649  -1736345.65049  23067922.2404   23067926.4104
  24824348.022    -1104575.09049   -854700.06849  24824348.7514   24824353.9534
  20779699.246     -340837.71749   -231594.06549  20779699.4634   20779702.5984
  20232632.031     -281706.64649   -215013.15749  20232631.9204   20232636.6304
  24609600.830     2004017.52649   1552175.56249  24609600.3384   24609608.4154
  21038954.021    -1689572.13349  -1130053.09749  21038953.3564   21038958.4684
 97  1 12 17 59  0.0000000  0  9 25 22 19 18  4 29 14 15 16
  24018300.459     1928536.32549   1489206.22249  24018300.6364   24018305.3354
  21024344.514     -655825.08649   -507379.43749  21024343.6004   21024348.3244
  24148448.987    -2597840.68349  -2011710.78549  24148448.6974   24148454.8894
  23050249.345    -2342673.52149  -1808712.83649  23050248.9354   23050253.2204
  24816629.310    -1145136.06949   -886306.02149  24816629.4254   24816634.0794
  20777246.689     -353725.98649   -241636.88849  20777246.8614   20777250.1634
  20231559.475     -287342.98749   -219405.12249  20231559.2934   20231564.0294
  24625603.366     2088110.23549   1617702.19949  24625602.4504   24625611.8394
  21026644.182    -1754260.70349  -1180459.77349  21026643.6384   21026648.7324
 97  1 12 17 59 30.0000000  0  9 25 22 19 18  4 29 14 15 16
  24032419.029     2002729.93449   1547019.34049  24032418.5834   24032424.3464
  21020644.546     -675268.18249   -522529.88249  21020643.2914   21020648.5894
  24129071.585    -2699668.21449  -2091056.86349  24129069.7534   24129077.7354
  23032525.487    -2435813.26349  -1881289.22849  23032525.5044   23032530.3324
  24808951.584    -1185482.54649   -917744.86349  24808952.5504   24808957.0354
  20774773.046     -366725.42349   -251766.32849  20774773.0044   20774776.4794
  20230532.979     -292737.38949   -223608.56249  20230532.8344   20230537.3544
  24641528.499     2171796.04449   1682911.74849  24641526.7664   24641537.1564
  21014366.642    -1818779.68849  -1230734.30549  21014365.8774   21014371.2264
 97  1 12 18  0  0.0000000  0  9 25 22 19 18  4 29 14 15 16
  24046480.129     2076621.29749   1604596.93149  24046480.2284   24046485.2464
  21017005.675     -694389.98549   -537429.98049  21017004.4414   21017009.4744
  24109672.890    -2801607.59049  -2170490.04249  24109672.2514   24109680.2634
  23014752.573    -2529210.90749  -1954066.60049  23014752.4584   23014756.2724
  24801315.368    -1225612.07949   -949014.64549  24801316.9264   24801319.4634
  20772280.585     -379823.48649   -261972.62249  20772280.7394   20772284.2214
  20229555.389     -297874.70849   -227611.68049  20229555.0304   20229559.8344
  24657376.287     2255076.92449   1747805.71849  24657376.5834   24657383.8554
  21002122.047    -1883125.49149  -1280873.88649  21002121.4844   21002126.6874
 97  1 12 18  0 30.0000000  0  9 25 22 19 18  4 29 14 15 16
  24060488.553     2150235.12149   1661958.27349  24060489.2304   24060493.8954
  21013427.941     -713190.75649   -552079.91949  21013426.9874   21013431.7874
  24090255.214    -2903648.83749  -2250002.60549  24090255.0234   24090262.3554
  22996936.530    -2622835.11049  -2027020.50549  22996935.2234   22996940.2314
  24793719.736    -1265527.19449   -980117.34149  24793720.6344   24793724.6624
  20769772.522     -393003.66449   -272242.89949  20769772.2864   20769775.8294
  20228628.083     -302747.85249   -231408.94849  20228627.7724   20228632.4494
  24673148.724     2337961.80149   1812391.11049  24673147.7354   24673158.5864
  20989911.608    -1947292.03349  -1330873.79149  20989911.2974   20989916.3404
 97  1 12 18  1  0.0000000  0  9 25 22 19 18  4 29 14 15 16
  24074449.561     2223599.93949   1719125.60149  24074450.1154   24074454.8034
  21009914.110     -731656.13549   -566468.51949  21009913.3004   21009918.1364
  24070818.952    -3005786.64149  -2329590.41849  24070819.6584   24070826.2034
  22979080.858    -2716667.69349  -2100136.80649  22979079.9744   22979085.8354
  24786166.392    -1305221.08349  -1011047.66449  24786166.5544   24786170.0514
  20767254.380     -406236.42149   -282554.15049  20767254.3594   20767257.8774
  20227750.062     -307361.77949   -235004.22849  20227749.8304   20227754.4214
  24688848.457     2420463.94149   1876678.29549  24688847.8964   24688858.3284
  20977737.168    -2011269.30249  -1380726.21049  20977736.6954   20977741.8494
 97  1 12 18  1 30.0000000  0  8 25 22 19 18  4 29 14 16
  24088366.982     2296735.71249   1776114.45249  24088367.3504   24088372.0324
  21006468.980     -749760.22649   -580575.58649  21006468.4154   21006473.1754
  24051364.590    -3108020.68649  -2409253.25049  24051364.3874   24051370.7974
  22961188.429    -2810693.57949  -2173403.72049  22961187.7314   22961193.4244
  24778655.281    -1344692.79449  -1041804.87049  24778653.8154   24778659.5904
  20764731.712     -419493.21749   -292884.12849  20764731.8154   20764735.0774
  20226927.514     -311684.14849   -238372.32149  20226927.2604   20226931.8614
  20965599.488    -2075053.01949  -1430427.80749  20965598.9684   20965604.3094
 97  1 12 18  2  0.0000000  0  8 25 22 19 18  4 29 14 16
  24102248.037     2369680.97849   1832954.85049  24102247.8314   24102251.5014
  21003099.337     -767468.20649   -594374.00649  21003098.6274   21003103.5804
  24031898.102    -3210318.33749  -2488965.64349  24031897.7834   24031904.4064
  22943269.094    -2904860.61449  -2246780.62949  22943268.7464   22943273.5584
  24771191.872    -1383912.45349  -1072365.67149  24771193.4504   24771197.5684
  20762208.635     -432752.36249   -303215.94549  20762208.7624   20762212.0994
  20226172.079     -315653.96249   -241465.70049  20226172.0224   20226176.4564
  20953502.431    -2138623.57149  -1479963.30649  20953502.0424   20953507.0504
 97  1 12 18  2 30.0000000  0  8 25 22 19 18  4 29 14 16
  24116092.973     2442436.41149   1889647.28249  24116091.8274   24116098.0294
  20999804.705     -784781.61249   -607864.96349  20999803.5494   20999808.7954
  24012418.690    -3312684.10449  -2568731.08149  24012418.2294   24012424.8074
  22925321.492    -2999175.66949  -2320272.86349  22925321.7304   22925326.2554
  24763777.526    -1422876.44749  -1102727.21549  24763776.6744   24763781.6134
  20759685.534     -446011.70049   -313547.91249  20759685.7094   20759688.9884
  20225483.023     -319275.32349   -244287.55549  20225482.9794   20225487.3634
  20941445.381    -2201983.92149  -1529335.01149  20941444.6904   20941449.9854
 97  1 12 18  3  0.0000000  0  8 25 22 19 18  4 29 14 16
  24129904.049     2515014.57349   1946201.58249  24129903.1764   24129909.0564
  20996591.323     -801667.81649   -621023.03949  20996590.5534   20996595.6854
  23992932.621    -3415085.05449  -2648523.96549  23992933.6984   23992938.8694
  22907351.296    -3093609.80849  -2393857.91449  22907351.1214   22907355.3284
  24756419.940    -1461540.72749  -1132855.26149  24756419.8574   24756426.8984
  20757167.220     -459245.78249   -323860.19449  20757167.1524   20757170.5784
  20224866.801     -322514.12949   -246811.31649  20224866.8764   20224871.3214
  20929436.488    -2265091.02549  -1578509.37749  20929436.0534   20929441.0264
 97  1 12 18  3 29.9990000  0  8 25 22 19 18  4 29 14 16
  24143678.653     2587400.58149   2002606.15649  24143678.6994   24143684.5924
  20993458.387     -818131.60749   -633851.96849  20993457.3024   20993462.4024
  23973439.546    -3517522.39649  -2728345.21549  23973438.5844   23973444.6664
  22889356.531    -3188173.26949  -2467543.72549  22889355.5094   22889360.7384
  24749118.646    -1499909.48249  -1162752.98049  24749116.9134   24749124.0514
  20754649.554     -472476.35149   -334169.73849  20754649.5854   20754652.8824
  20224326.427     -325354.35649   -249024.49849  20224326.3504   20224330.8524
  20917477.171    -2327937.75049  -1627480.85849  20917476.6424   20917481.6574
 97  1 12 18  3 59.9990000  0  8 25 22 19 18  4 29 14 16
  24157419.216     2659607.09549   2058870.86949  24157419.4474   24157424.6644
  20990407.997     -834161.23749   -646342.59349  20990407.2434   20990412.2814
  23953941.887    -3619982.67849  -2808184.32549  23953941.5514   23953946.6574
  22871333.489    -3282885.04949  -2541345.10149  22871333.2454   22871337.8634
  24741875.753    -1537971.46149  -1192411.68949  24741875.6664   24741882.1984
  20752132.632     -485702.97649   -344476.21449  20752132.6484   20752136.1774
  20223862.945     -327790.17149   -250922.55649  20223862.7214   20223867.3064
  20905571.112    -2390504.66149  -1676234.29949  20905570.6254   20905575.6554
 97  1 12 18  4 29.9990000  0  8 25 22 19 18  4 29 14 16
  24171124.990     2731630.56949   2114992.95849  24171125.2084   24171130.6934
  20987442.466     -849745.40549   -658486.10349  20987441.7264   20987446.7024
  23934439.638    -3722467.88249  -2888042.84049  23934439.6324   23934445.6334
  22853280.626    -3377753.58949  -2615268.63549  22853280.6134   22853285.1824
  24734693.441    -1575715.24649  -1221822.40649  24734694.3174   24734698.2204
  20749620.754     -498903.03549   -354761.98649  20749620.8964   20749624.1914
  20223474.156     -329833.33949   -252514.64949  20223473.8004   20223478.4654
  20893722.585    -2452769.32049  -1724752.22149  20893722.0474   20893726.9614
 97  1 12 18  4 59.9990000  0  8 25 22 19 18  4 29 14 16
  24184794.670     2803464.58349   2170967.40849  24184795.0554   24184800.0274
  20984563.475     -864874.83049   -670275.26249  20984562.4304   20984567.3704
  23914934.356    -3824968.44449  -2967913.33349  23914933.7564   23914940.5884
  22835199.720    -3472769.22349  -2689306.78249  22835198.8714   22835203.7164
  24727573.527    -1613130.62749  -1250977.29849  24727573.1374   24727579.0854
  20747112.825     -512082.36849   -365031.61149  20747112.9534   20747116.2164
  20223160.834     -331479.79249   -253797.61449  20223160.6674   20223165.2354
  20881934.131    -2514718.28149  -1773024.14049  20881933.5784   20881938.6064
 97  1 12 18  5 29.9990000  0  8 25 22 19 18  4 29 14 16
  24198427.216     2875103.83349   2226790.08749  24198427.4574   24198432.7884
  20981769.440     -879557.30949   -681716.15749  20981768.3044   20981773.7924
  23895424.352    -3927493.31649  -3047802.76349  23895423.5924   23895430.0274
  22817086.673    -3567953.30349  -2763476.20049  22817085.5904   22817090.5704
  24720516.614    -1650215.07849  -1279874.28349  24720516.1734   24720519.7074
  20744608.840     -525240.94149   -375285.05849  20744608.8764   20744612.2034
  20222919.232     -332749.53849   -254787.04549  20222918.9454   20222923.5644
  20870202.531    -2576368.29749  -1821063.11449  20870202.0104   20870207.0704
 97  1 12 18  5 59.9990000  0  8 25 22 19 18  4 29 14 16
  24212021.161     2946540.72949   2282455.08849  24212020.5874   24212026.0784
  20979058.618     -893802.82649   -692816.56849  20979058.0004   20979062.7474
  23875910.981    -4030036.48749  -3127706.44749  23875909.6824   23875917.6744
  22798943.585    -3663295.41549  -2837768.74149  22798942.9004   22798948.0764
  24713523.738    -1686961.83749  -1308508.17749  24713520.6364   24713529.9804
  20742113.126     -538356.11749   -385504.69349  20742113.2544   20742116.8644
  20222744.369     -333668.28249   -255502.96249  20222744.0764   20222748.7784
  20858528.239    -2637717.51349  -1868867.70449  20858527.7924   20858532.6184
 97  1 12 18  6 29.9990000  0  8 25 22 19 18  4 29 14 16
  24225579.712     3017790.66149   2337974.37149  24225580.2004   24225585.2504
  20976432.160     -907605.44049   -703571.84749  20976431.3694   20976436.5434
  23856397.636    -4132579.26349  -3207609.84049  23856397.6004   23856403.1294
  22780779.670    -3758747.12949  -2912146.69449  22780779.0754   22780783.7464
  24706598.709    -1723351.39549  -1336863.67049  24706597.6484   24706604.4674
  20739631.418     -551397.92449   -395667.15249  20739631.2724   20739634.7184
  20222639.291     -334220.34749   -255933.15549  20222638.8184   20222643.8244
  20846915.936    -2698740.70549  -1916418.24649  20846915.3314   20846920.5364
 97  1 12 18  6 59.9990000  0  8 25 22 19 18  4 29 14 16
  24239105.078     3088866.38249   2393357.89249  24239104.2274   24239111.0224
  20973888.370     -920973.10649   -713988.21849  20973887.7204   20973892.8164
  23836887.167    -4235107.31549  -3287501.74049  23836886.3274   23836893.3094
  22762599.696    -3854282.84249  -2986590.09249  22762599.1214   22762603.1084
  24699741.432    -1759386.63549  -1364943.13949  24699739.5964   24699746.6884
  20737164.507     -564361.57449   -405768.71449  20737164.3704   20737167.8624
  20222606.421     -334393.00449   -256067.70649  20222606.2314   20222611.1004
  20835367.086    -2759430.50749  -1963709.00849  20835366.5164   20835371.4724
 97  1 12 18  7 29.9990000  0  8 25 22 19 18  4 29 14 16
  24252601.055     3159787.72249   2448621.25249  24252602.2634   24252603.8654
  20971428.197     -933901.66949   -724062.42449  20971427.2934   20971432.2804
  23817378.868    -4337623.09049  -3367384.09949  23817377.7524   23817385.4474
  22744406.564    -3949888.01049  -3061087.60649  22744405.5564   22744411.5404
  24692949.138    -1795081.13749  -1392757.06449  24692948.6374   24692956.4394
  20734718.393     -577215.75749   -415784.97749  20734718.4834   20734721.9114
  20222647.585     -334177.03349   -255899.43049  20222647.5124   20222652.1604
  20823883.221    -2819778.76849  -2010733.63449  20823882.5464   20823887.5854
 97  1 12 18  7 59.9990000  0  8 25 22 19 18  4 29 14 16
  24266068.927     3230561.19449   2503769.43949  24266068.9104   24266074.6034
  20969053.605     -946380.59149   -733786.26549  20969052.8774   20969057.4964
  23797873.361    -4440124.58249  -3447255.32549  23797872.2364   23797879.4274
  22726202.959    -4045548.08349  -3135627.93049  22726202.8174   22726207.6744
  24686217.328    -1830456.88349  -1420322.60649  24686218.5374   24686221.9094
  20732292.892     -589961.98349   -425717.11949  20732292.9824   20732296.5874
  20222766.560     -333552.14449   -255412.52449  20222766.4404   20222771.1414
  20812466.815    -2879772.37049  -2057481.90449  20812465.9704   20812471.0744
 97  1 12 18  8 29.9990000  0  8 25 22 19 18  4 29 14 16
  24279515.692                     2558831.59849  24279515.801    24279521.0404
  20966771.022     -958375.61749   -743133.03949  20966770.3174   20966775.4024
  23778373.463    -4542595.92949  -3527103.05349  23778372.1464   23778380.2604
  22707992.152    -4141246.64649  -3210198.23249  22707991.5354   22707996.0834
  24679549.824    -1865494.00549  -1447624.29649  24679546.4164   24679552.5784
  20729886.518     -602607.71549   -435570.95449  20729886.5484   20729890.2264
  20222970.270     -332481.96049   -254578.62649  20222970.2694   20222974.9384
  20801122.067    -2939389.24949  -2103936.62049  20801121.6134   20801126.6534
 97  1 12 18  8 59.9990000  0  8 25 22 19 18  4 29 14 16
  24292948.530     3371813.67659   2613836.21249  24292948.2124   24292954.2794
  20964592.288     -969824.92949   -752054.59249  20964591.6354   20964596.5424
  23758886.976    -4644996.57849  -3606895.69449  23758886.6254   23758894.5544
  22689776.794    -4236969.22849  -3284787.24049  22689776.4154   22689781.2934
  24672954.447    -1900152.49649  -1474630.92149  24672954.1594   24672960.8914
  20727505.249     -615121.68849   -445322.12549  20727505.1774   20727508.9944
  20223267.819     -330918.48349   -253360.35149  20223267.6334   20223272.3384
  20789854.946    -2998598.57649  -2150073.77149  20789854.4834   20789859.2324
 97  1 12 18  9 29.9990000  0  8 25 22 19 18  4 29 14 16
  24306352.839     3442253.14749   2668724.03349  24306352.8924   24306358.1014
  20962507.655     -980779.86149   -760590.90649  20962506.8784   20962511.9224
  23739403.630    -4747381.11949  -3686675.82249  23739402.4544   23739410.5914
  22671541.803    -4332795.11949  -3359456.75449  22671542.1984   22671545.9774
  24666421.822    -1934482.06949  -1501381.30649  24666423.6604   24666425.6534
  20725136.069     -627572.05449   -455023.73149  20725136.3074   20725139.5334
  20223648.048     -328920.71449   -251803.67149  20223647.9804   20223652.1854
  20778653.316    -3057463.42949  -2195942.49549  20778652.4984   20778657.7684
 97  1 12 18  9 59.9990000  0  8 25 22 19 18  4 29 14 16
  24319728.759     3512543.42849   2723495.55749  24319728.5824   24319734.3974
  20960518.661     -991232.18149   -768735.57949  20960517.6964   20960522.9474
  23719926.968    -4849730.91549  -3766428.83449  23719927.4564   23719934.0844
  22653286.411    -4428728.79849  -3434210.27249  22653286.0364   22653291.5364
  24659957.371    -1968452.13649  -1527851.42149  24659960.7644   24659963.5674
  20722776.661     -639971.12749   -464685.36749  20722776.9404   20722780.3774
  20224112.340     -326480.81349   -249902.46749  20224111.8494   20224116.7634
  20767519.825    -3115970.47649  -2241532.41749  20767519.2564   20767524.4824
 97  1 12 18 10 29.9990000  0  8 25 22 19 18  4 29 14 16
  24333067.354     3582637.65449   2778114.36849  24333067.5784   24333072.6714
  20958617.065    -1001225.24049   -776522.38449  20958616.1424   20958621.3424
  23700453.346    -4952066.91649  -3846171.08649  23700452.9984   23700460.5704
  22635003.565    -4524805.97349  -3509075.59849  22635002.6844   22635008.7504
  24653556.217    -2002090.73749  -1554063.47849  24653553.3004   24653562.5644
  20720420.916     -652350.81249   -474331.89149  20720420.9314   20720424.4454
  20224652.162     -323644.12249   -247692.07149  20224651.8654   20224656.6534
  20756446.548    -3174161.07849  -2286875.75149  20756445.8224   20756450.8504
 97  1 12 18 10 59.9990000  0  8 25 22 19 18  4 29 14 16
  24346368.848     3652537.84549   2832581.94449  24346369.0994   24346375.2594
  20956804.106    -1010752.44349   -783946.18449  20956803.3574   20956808.1154
  23680985.573    -5054371.29849  -3925888.71549  23680985.3154   23680991.4854
  22616697.602    -4621004.35349  -3584035.36749  22616698.0764   22616702.2084
  24647219.034    -2035394.06349  -1580014.09349  24647220.5744   24647224.1074
  20718078.108     -664662.52949   -483925.45649  20718077.8734   20718081.6374
  20225270.227     -320396.27049   -245161.29649  20225269.8574   20225274.5594
  20745435.536    -3232024.18649  -2331963.89649  20745434.7144   20745439.9564
 97  1 12 18 11 29.9990000  0  8 25 22 19 18  4 29 14 16
  24359637.187     3722263.39449   2886913.43649  24359637.2544   24359642.8034
  20955078.201    -1019821.97249   -791013.35349  20955077.2124   20955082.1644
  23661526.623    -5156628.75449  -4005569.78549  23661525.8474   23661533.1634
  22598372.980    -4717300.99749  -3659071.70949  22598372.3624   22598377.2584
  24640946.988    -2068354.00849  -1605697.27549  24640948.0774   24640952.9734
  20715751.414     -676889.39449   -493452.90149  20715751.2744   20715754.9834
  20225966.626     -316736.53049   -242309.56249  20225966.4254   20225971.0954
  20734490.124    -3289542.66949  -2376783.49549  20734489.5624   20734494.5474
 97  1 12 18 11 59.9990000  0  8 25 22 19 18  4 29 14 16
  24372874.553     3791826.03049   2941117.94849  24372873.6914   24372880.6304
  20953438.970    -1028436.34349   -797725.85649  20953438.3364   20953442.8844
  23642076.630    -5258839.15449  -4085214.17749  23642076.1514   23642083.4914
  22580032.129    -4813682.66549  -3734174.30349  22580031.9594   22580036.6644
  24634738.515    -2100981.28749  -1631121.15449  24634739.4054   24634744.7494
  20713440.746     -689032.07649   -502914.75649  20713440.9234   20713444.3444
  20226740.956     -312667.53249   -239138.93449  20226740.8794   20226745.3644
  20723610.422    -3346715.93049  -2421334.10049  20723610.1534   20723614.8684
 97  1 12 18 12 29.9990000  0  8 25 22 19 18  4 29 14 16
  24386083.009     3861237.82949   2995204.92549  24386082.2474   24386088.3294
  20951888.816    -1036582.56449   -804073.56249  20951888.0204   20951892.8144
  23622636.899    -5360995.09849  -4164816.12749  23622635.3304   23622643.1834
  22561678.807    -4910130.48249  -3809328.44549  22561678.7254   22561682.8754
  24628594.480    -2133267.88749  -1656279.55349  24628596.7774   24628600.1204
  20711148.999     -701075.84649   -512299.53149  20711149.1004   20711152.3654
  20227593.773     -308186.19549   -235647.00149  20227593.7884   20227598.2384
  20712796.464    -3403544.14249  -2465615.83049  20712796.1004   20712800.9184
 97  1 12 18 12 59.9990000  0  8 25 22 19 18  4 29 14 16
  24399268.532     3930528.01549   3049197.17849  24399269.3674   24399274.6564
  20950433.154    -1044232.50249   -810034.55749  20950432.4074   20950437.5714
  23603209.427    -5463085.32249  -4244366.87049  23603207.8794   23603216.3474
  22543317.916    -5006618.53149  -3884513.94149  22543317.8164   22543322.0474
  24622523.346    -2165172.70249  -1681140.49949  24622524.3014   24622529.5494
  20708880.584     -712996.53049   -521588.39549  20708880.7204   20708884.0314
  20228530.787     -303262.40949   -231810.30149  20228530.7304   20228535.1774
  20702055.008    -3459991.13349  -2509600.50449  20702054.5364   20702059.3854
 97  1 12 18 13 29.9990000  0  8 25 22 19 18  4 29 14 16
  24412425.429     3999667.03049   3103071.68049  24412425.1904   24412431.6544
  20949067.581    -1051408.73449   -815626.43449  20949066.7634   20949071.8384
  23583791.428    -5565126.60149  -4323879.46849  23583791.3114   23583798.5694
  22524944.834    -5103170.30849  -3959749.08849  22524944.5554   22524949.4504
  24616521.941    -2196711.09649  -1705715.91949  24616522.6664   24616527.4134
  20706625.123     -724849.16349   -530824.23349  20706624.9024   20706628.7634
  20229546.283     -297926.12149   -227652.17449  20229545.8274   20229550.5224
  20691383.118    -3516072.59249  -2553300.35149  20691382.7944   20691387.5884
 97  1 12 18 13 59.9990000  0  8 25 22 19 18  4 29 14 16
  24425548.638     4068629.74649   3156808.85149  24425548.9644   24425554.6414
  20947791.533    -1058114.85349   -820851.98749  20947790.8164   20947795.7884
  23564379.876    -5667135.58249  -4403366.93649  23564379.6294   23564386.9194
  22506557.151    -5199798.25949  -4035043.58749  22506556.8754   22506560.8674
  24610586.968    -2227899.22249  -1730018.35349  24610588.1544   24610593.1764
  20704380.645     -736644.00949   -540015.04249  20704380.3864   20704384.0454
  20230639.558     -292180.87549   -223175.38649  20230639.3504   20230643.8104
  20680778.923    -3571798.20449  -2596722.91649  20680778.2054   20680783.1174
 97  1 12 18 14 29.9990000  0  8 25 22 19 18  4 29 14 16
  24438641.355     4137432.05349   3210421.01149  24438641.5014   24438646.9854
  20946608.793    -1064330.09749   -825695.03549  20946607.8054   20946612.8424
  23544978.652    -5769090.20249  -4482812.03149  23544978.8904   23544985.1954
  22488157.864    -5296487.28349  -4110385.67549  22488158.1324   22488161.0984
  24604725.442    -2258702.54549  -1754021.00849  24604727.1224   24604731.3954
  20702153.463     -748347.60749   -549134.74949  20702153.4074   20702157.0794
  20231816.235     -285997.75749   -218357.39449  20231815.9154   20231820.6484
  20670247.718    -3627140.00149  -2639846.40149  20670247.3064   20670252.1124
 97  1 12 18 14 59.9990000  0  8 25 22 19 18  4 29 14 16
  24451700.323     4206056.73149   3263894.72249  24451700.8204   24451706.4804
  20945515.789    -1070073.71649   -830170.59349  20945514.9424   20945519.8724
  23525584.620    -5871006.12249  -4562226.97549  23525584.7174   23525591.0734
  22469742.721    -5393259.72949  -4185792.77749  22469742.0614   22469746.8384
  24598929.818    -2289158.67849  -1777753.07649  24598931.4744   24598936.2814
  20699941.169     -759973.37049   -558193.80649  20699941.2394   20699945.0104
  20233074.979     -279382.98549   -213203.05649  20233074.4444   20233079.3054
  20659786.235    -3682115.55449  -2682684.50549  20659785.6584   20659790.6254
 97  1 12 18 15 29.9990000  0  8 25 22 19 18  4 29 14 16
  24464734.202     4274549.52749   3317265.65849  24464734.1174   24464740.2054
  20944519.864    -1075307.45349   -834248.83349  20944519.1214   20944523.9714
  23506205.366    -5972845.04949  -4641581.94749  23506205.5634   23506211.2854
  22451318.637    -5490078.64949  -4261236.07549  22451318.3464   22451322.8424
  24593204.547    -2319245.16649  -1801197.12149  24593204.0294   24593210.0744
  20697753.532     -771469.92249   -567152.18149  20697753.7434   20697757.3474
  20234424.348     -272291.74549   -207677.44649  20234424.0804   20234429.0254
  20649399.676    -3736697.21349  -2725215.67649  20649399.1084   20649404.2204
 97  1 12 18 15 59.9990000  0  8 25 22 19 18  4 29 14 16
  24477739.924     4342894.26049   3370521.21449  24477740.3734   24477746.1534
  20943615.247    -1080061.47949   -837953.26749  20943614.3184   20943619.2394
  23486833.251    -6074646.31049  -4720907.54849  23486832.1044   23486839.4054
  22432878.642    -5586981.87949  -4336745.08249  22432877.5424   22432882.7064
  24587544.354    -2348990.39749  -1824375.24149  24587544.4874   24587548.4784
  20695588.305     -782848.77649   -576018.83649  20695588.4624   20695591.9234
  20235858.862     -264753.36749   -201803.40549  20235858.7664   20235863.5084
  20639081.970    -3790917.07849  -2767464.92749  20639081.3014   20639086.3084
 97  1 12 18 16 29.9990000  0  8 25 22 19 18  4 29 14 16
  24490722.382     4411117.38449   3423681.98949  24490722.7954   24490728.8684
  20942804.198    -1084323.36649   -841274.23249  20942803.3194   20942808.3634
  23467470.200    -6176399.15449  -4800195.41149  23467470.6084   23467476.5834
  22414426.261    -5683949.45149  -4412304.21949  22414426.0064   22414430.6264
  24581952.308    -2378376.31449  -1847273.40649  24581952.2794   24581957.4694
  20693447.842     -794097.32049   -584783.95649  20693447.9144   20693451.3644
  20237379.651     -256761.81649   -195576.25249  20237379.7044   20237384.4304
  20628835.253    -3844763.92949  -2809423.52449  20628834.5754   20628839.7044
 97  1 12 18 16 59.9990000  0  8 25 22 19 18  4 29 14 16
  24503680.316     4479211.67549   3476742.36149  24503680.5154   24503686.8684
  20942086.485    -1088094.86049   -844213.06249  20942085.4964   20942090.5354
  23448113.591    -6278118.33449  -4879457.03349  23448113.3394   23448120.3074
  22395964.215    -5780967.43049  -4487902.62749  22395963.8274   22395968.3114
  24576425.821    -2407418.06449  -1869903.36649  24576426.5044   24576430.2334
  20691329.857     -805227.55149   -593456.88249  20691329.7904   20691333.2974
  20238983.678     -248332.87849   -189008.26349  20238983.5934   20238988.2894
  20618659.762    -3898236.61849  -2851090.55949  20618659.1994   20618664.2424
 97  1 12 18 17 29.9990000  0  8 25 22 19 18  4 29 14 16
  24516615.510     4547186.75049   3529709.79349  24516615.3004   24516621.3094
  20941466.186    -1091354.60049   -846753.13549  20941465.3754   20941470.3424
  23428767.424    -6379783.39349  -4958676.48149  23428767.1024   23428774.0424
  22377495.702    -5878019.79349  -4563527.84049  22377495.3524   22377500.5754
  24570972.384    -2436075.99349  -1892234.27549  24570973.1294   24570978.8834
  20689236.364     -816229.03949   -602029.49849  20689236.3404   20689240.0514
  20240671.384     -239464.08549   -182097.54249  20240671.2154   20240676.0764
  20608564.147    -3951289.44749  -2892430.43849  20608563.3584   20608568.6634
 97  1 12 18 17 59.9990000  0  8 25 22 19 18  4 29 14 16
  24529524.424     4615023.68249   3582569.59249  24529525.2634   24529530.7104
  20940942.251    -1094108.15649   -848898.77049  20940941.6984   20940946.5564
  23409432.685    -6481387.08449  -5037848.13349  23409431.2384   23409438.9264
  22359019.400    -5975113.54949  -4639185.30949  22359019.1434   22359023.7494
  24565593.445    -2464343.04449  -1914260.59749  24565593.3844   24565599.8584
  20687163.467     -827121.98549   -610517.52949  20687163.3954   20687167.1174
  20242439.006     -230175.12049   -174859.41349  20242438.6114   20242443.8354
  20598548.107    -4003923.98049  -2933444.36849  20598547.4124   20598552.8564
 97  1 12 18 18 29.9990000  0  7 22 19 18  4 29 14 16
  20940512.831    -1096365.15749   -850657.48049  20940512.1254   20940516.8724
  23390110.516    -6582924.95949  -5116968.49049  23390109.1044   23390116.6144
  22340536.640    -6072241.28649  -4714869.25149  22340536.2194   22340541.1034
  24560287.692    -2492226.15049  -1935987.73849  24560288.0464   24560294.3204
  20685109.555     -837915.48349   -618928.07149  20685109.5774   20685113.1384
  20244285.691     -220470.50849   -167297.40549  20244285.5134   20244290.3334
  20588610.305    -4056147.58049  -2974138.09249  20588609.7124   20588615.0494
 97  1 12 18 18 59.9990000  0  7 22 19 18  4 29 14 16
  20940179.958    -1098114.38049   -852020.52749  20940178.7864   20940183.9564
  23370805.577    -6684372.99149  -5196018.84349  23370804.6294   23370812.0354
  22322048.573    -6169396.68249  -4790574.75349  22322048.7374   22322052.8384
  24555059.073    -2519703.10449  -1957398.37449  24555059.5164   24555065.4654
  20683077.572     -848593.53749   -627248.65449  20683077.3734   20683081.2784
  20246215.182     -210330.90849   -159396.44849  20246215.1574   20246219.8774
  20578756.081    -4107931.79149  -3014489.43649  20578755.6544   20578760.8614
 97  1 12 18 19 29.9990000  0  7 22 19 18  4 29 14 16
  20939935.381    -1099399.42149   -853021.87549  20939934.5454   20939939.5854
  23351513.060    -6785755.38349  -5275018.04149  23351512.5344   23351518.4714
  22303546.217    -6266627.26949  -4866338.83249  22303545.1574   22303549.7584
  24549901.811    -2546804.48549  -1978516.36749  24549901.7674   24549907.4354
  20681064.069     -859174.35649   -635493.47049  20681064.0274   20681067.8224
  20248223.323     -199778.54049   -151173.84249  20248222.9274   20248228.2034
  20568976.835    -4159322.07349  -3054533.82149  20568976.4244   20568981.5514
 97  1 12 18 19 59.9990000  0  7 22 19 18  4 29 14 16
  20939781.429    -1100208.64149   -853652.45949  20939780.6324   20939785.6714
  23332235.089    -6887061.49649  -5353957.81449  23332234.5304   23332241.3674
  22285036.671    -6363895.29049  -4942132.10649  22285036.3004   22285040.0744
  24544815.805    -2573531.67549  -1999342.80249  24544814.7684   24544818.8814
  20679074.974     -869627.23049   -643638.59149  20679074.7244   20679078.3394
  20250316.133     -188780.72249   -142604.14149  20250315.9584   20250321.1894
  20559271.698    -4210323.29649  -3094275.04749  20559271.3034   20559276.3514
 97  1 12 18 20 29.9990000  0  7 22 19 18  4 29 14 16
  20939721.078    -1100526.08649   -853899.83149  20939720.2534   20939725.1734
  23312972.889    -6988285.30049  -5432833.47149  23312972.7154   23312979.1714
  22266523.355    -6461183.67349  -5017941.23449  22266523.0674   22266527.4794
  24539802.853    -2599875.28749  -2019870.31649  24539802.5384   24539806.3874
  20677116.660     -879918.58349   -651657.84149  20677116.5104   20677120.3154
  20252498.875     -177310.67949   -133666.46049  20252498.6574   20252503.6044
  20549647.159    -4260900.83049  -3133686.12149  20549646.8264   20549651.6464
 97  1 12 18 20 59.9990000  0  7 22 19 18  4 29 14 16
  20939765.330    -1100293.67849   -853718.76149  20939764.6234   20939769.5744
  23293735.399    -7089378.28149  -5511607.16949  23293734.6734   23293741.9204
  22248013.179    -6558455.57349  -5093737.52949  22248012.8014   22248017.4264
  24534871.977    -2625787.95649  -2040062.05249  24534873.2314   24534879.2744
  20675200.360     -889988.71149   -659504.71849  20675200.2674   20675204.2524
  20254782.192     -165311.72649   -124316.65049  20254781.8764   20254787.0404
  20540113.650    -4311000.01449  -3172724.46449  20540113.0364   20540118.2164
 97  1 12 18 21 29.9990000  0  7 22 19 18  4 29 14 16
  20939903.653    -1099566.95149   -853152.50049  20939903.3074   20939907.9334
  23274512.556    -7190394.94249  -5590321.42349  23274512.2504   23274518.6574
  22229498.415    -6655751.22049  -5169552.32249  22229497.9494   22229502.5084
  24530010.302    -2651337.30049  -2059970.68749  24530012.0064   24530015.4974
  20673315.216     -899894.88349   -667223.83749  20673315.2924   20673319.1374
  20257155.502     -152839.99549   -114598.43749  20257155.5134   20257160.0784
  20530658.851    -4360685.30149  -3211440.28349  20530658.3314   20530663.4964
 97  1 12 18 21 59.9990000  0  7 22 19 18  4 29 14 16
  20940144.669    -1098300.71949   -852165.84549  20940143.7104   20940148.7734
  23255312.589    -7291291.90149  -5668942.38849  23255312.2524   23255319.4634
  22210988.298    -6753022.52049  -5245348.14049  22210987.8934   22210992.4734
  24525224.784    -2676484.78949  -2079566.20549  24525223.6014   24525228.8054
  20671466.577     -909609.63949   -674793.80149  20671466.7414   20671470.4614
  20259624.849     -139863.99349   -104487.28749  20259624.5744   20259629.4424
  20521294.878    -4409893.42649  -3249784.28849  20521294.1944   20521299.4684
 97  1 12 18 22 29.9990000  0  7 22 19 18  4 29 14 16
  20940482.248    -1096526.68549   -850783.50349  20940481.4264   20940486.3054
  23236131.706    -7392087.91249  -5747484.68749  23236131.8914   23236138.1554
  22192479.021    -6850289.48049  -5321140.58749  22192478.4074   22192482.3074
  24520512.690    -2701246.51349  -2098861.08149  24520510.9834   24520520.1044
  20669648.419     -919164.26349   -682238.98549  20669648.5904   20669652.2524
  20262183.479     -126418.14049    -94010.01849  20262183.3024   20262188.2124
  20512018.221    -4458642.61249  -3287770.68349  20512017.5664   20512022.8774
 97  1 12 18 22 59.9990000  0  7 22 19 18  4 29 14 16
  20940920.986    -1094221.46749   -848987.24049  20940920.1134   20940925.2954
  23216976.099    -7492750.98149  -5825923.40249  23216975.5724   23216981.7404
  22173979.301    -6947506.33449  -5396893.98649  22173979.1744   22173983.5984
  24515877.952    -2725602.30549  -2117839.70949  24515878.1714   24515882.7734
  20667861.742     -928553.70649   -689555.45549  20667861.7074   20667865.5864
  20264833.786     -112490.84349    -83157.59649  20264833.7084   20264838.6824
  20502831.330    -4506919.92149  -3325389.37749  20502830.7564   20502835.8274
 97  1 12 18 23 29.9990000  0  7 22 19 18  4 29 14 16
  20941451.140    -1091435.46149   -846816.34649  20941450.2664   20941455.2304
  23197835.422    -7593335.98549  -5904301.28749  23197834.7534   23197842.7304
  22155481.998    -7044710.49749  -5472637.48649  22155481.5894   22155486.7044
  24511311.446    -2749600.01249  -2136539.23849  24511308.8544   24511317.3834
  20666094.908     -937838.50049   -696790.38049  20666094.9704   20666098.8714
  20267563.844      -98144.66949    -71978.77749  20267563.6184   20267568.4684
  20493727.503    -4554760.98349  -3362668.13949  20493726.8084   20493732.1114
 97  1 12 18 23 59.9990000  0  7 22 19 18  4 29 14 16
  20942082.245    -1088119.12849   -844232.21349  20942081.4794   20942086.5364
  23178718.673    -7693794.89149  -5982580.92549  23178718.4874   23178725.4434
  22136992.995    -7141870.52649  -5548346.60949  22136992.6094   22136997.3634
  24506823.673    -2773183.65449  -2154916.14049  24506823.1494   24506829.8634
  20664356.944     -946971.84649   -703907.29549  20664356.9834   20664360.8324
  20270380.313      -83344.00049    -60445.81249  20270379.9584   20270385.2184
  20484715.481    -4602119.55649  -3399570.94549  20484714.8674   20484720.0764
 97  1 12 18 24 29.9990000  0  7 22 19 18  4 29 14 16
  20942815.794    -1084264.48749   -841228.61749  20942814.8314   20942820.0524
  23159628.590    -7794113.70449  -6060751.39549  23159628.6034   23159634.5454
  22118510.855    -7238994.57349  -5624027.68149  22118510.7344   22118515.2724
  24502416.392    -2796344.08949  -2172963.28849  24502416.5004   24502423.1914
  20662649.462     -955944.88649   -710899.29649  20662649.3664   20662653.1284
  20273284.496      -68082.48049    -48553.74049  20273284.2574   20273289.3424
  20475793.174    -4649006.46349  -3436106.21249  20475792.5944   20475797.8884
 97  1 12 18 24 59.9990000  0  7 22 19 18  4 29 14 16
  20943644.426    -1079909.92849   -837835.46749  20943643.7274   20943648.7584
  23140556.532    -7894337.84349  -6138848.08749  23140556.4964   23140562.8374
  22100022.269    -7336152.65749  -5699735.26349  22100021.7234   22100026.9084
  24498081.543    -2819123.31249  -2190713.34849  24498081.7714   24498089.3634
  20660964.122     -964801.56849   -717800.62549  20660964.2024   20660967.9384
  20276270.264      -52392.35549    -36327.69049  20276269.9504   20276274.9664
  20466953.381    -4695460.04249  -3472303.82049  20466952.9434   20466957.8064
 97  1 12 18 25 29.9990000  0  7 22 19 18  4 29 14 16
  20944574.172    -1075024.39349   -834028.57549  20944573.5634   20944578.4204
  23121507.334    -7994441.96349  -6216851.25149  23121507.3244   23121514.2454
  22081529.558    -7433332.59249  -5775459.89649  22081529.1754   22081533.7764
  24493826.859    -2841481.81149  -2208135.59849  24493828.7654   24493832.8414
  20659310.882     -973489.49349   -724570.46349  20659310.7274   20659314.3194
  20279347.631      -36220.88949    -23726.57349  20279347.5304   20279352.3864
  20458202.208    -4741448.05849  -3508138.65849  20458201.6724   20458207.0034
 97  1 12 18 25 59.9990000  0  7 22 19 18  4 29 14 16
  20945607.159    -1069596.45949   -829799.03449  20945606.6784   20945611.2554
  23102485.074    -8094404.30849  -6294743.95649  23102483.9634   23102491.0634
  22063037.663    -7530508.01349  -5851181.00049  22063036.4184   22063041.6974
  24489656.428    -2863397.29149  -2225212.65949  24489655.4444   24489662.0594
  20657697.839     -981966.01949   -731175.57149  20657697.7534   20657701.5824
  20282523.063      -19534.02349    -10723.84649  20282522.9024   20282527.8854
  20449541.706    -4786959.34449  -3543602.02049  20449540.9974   20449546.5314
 97  1 12 18 26 29.9990000  0  7 22 19 18  4 29 14 16
  20946742.240    -1063631.90449   -825151.34549  20946741.4834   20946746.4414
  23083486.999    -8194238.75249  -6372536.99549  23083485.6054   23083494.1374
  22044548.097    -7627670.74549  -5926892.21749  22044547.8874   22044552.5854
  24485568.420    -2884879.79949  -2241952.32549  24485566.9954   24485573.0174
  20656125.823     -990227.17649   -737612.86049  20656125.8824   20656129.9784
  20285798.622       -2321.25949      2688.66949  20285798.4644   20285803.2134
  20440973.692    -4831984.58449  -3578686.64149  20440973.1694   20440978.4354
 97  1 12 18 26 59.9990000  0  7 22 19 18  4 29 14 16
  20947974.577    -1057155.48549   -820104.81849  20947973.6304   20947978.8174
  23064503.669    -8293996.54649  -6450270.31749  23064503.6764   23064511.2154
  22026056.279    -7724845.74649  -6002612.99549  22026055.9694   22026061.3654
  24481558.059    -2905954.35049  -2258374.11749  24481557.9304   24481564.5434
  20654590.801     -998293.81349   -743898.57849  20654590.7344   20654594.6864
  20289166.412       15376.46749     16479.07949  20289166.4224   20289171.3674
  20432493.781    -4876546.86749  -3613410.52049  20432493.4494   20432498.4404
 97  1 12 18 27 29.9990000  0  7 22 19 18  4 29 14 16
  20949308.747    -1050144.21049   -814641.51149  20949308.2164   20949312.8014
  23045540.191    -8393650.32249  -6527922.56949  23045539.8854   23045546.1794
  22007570.331    -7821990.31449  -6078310.05149  22007570.1064   22007575.2524
  24477629.196    -2926601.43349  -2274462.79649  24477630.1094   24477635.2964
  20653099.335    -1006131.60649   -750005.97349  20653099.3274   20653103.2124
  20292628.006       33567.04849     30653.53049  20292627.6764   20292632.7504
  20424105.693    -4920626.89349  -3647758.61049  20424105.3464   20424110.2074
 97  1 12 18 27 59.9990000  0  7 22 19 18  4 29 14 16
  20950743.209    -1042606.27849   -808767.82449  20950742.4834   20950747.5364
  23026596.958    -8493197.53549  -6605491.79849  23026596.6294   23026602.6894
  21989089.208    -7919109.14149  -6153987.05949  21989089.2504   21989093.7294
  24473779.124    -2946833.28549  -2290227.91449  24473780.7444   24473786.0204
  20651646.553    -1013766.03649   -755954.90949  20651646.6534   20651650.6334
  20296176.662       52215.44649     45184.71949  20296176.6194   20296181.3584
  20415808.874    -4964227.29249  -3681732.96949  20415808.5904   20415813.6814
 97  1 12 18 28 29.9990000  0  7 22 19 18  4 29 14 16
  20952285.596    -1034500.68349   -802451.79749  20952284.9754   20952289.9214
  23007683.508    -8592588.97349  -6682939.64549  23007683.4124   23007690.0454
  21970619.600    -8016167.73049  -6229617.12649  21970619.2774   21970624.1274
  24470016.385    -2966607.45449  -2305636.43149  24470013.5824   24470019.2164
  20650237.485    -1021170.88349   -761724.94349  20650237.4484   20650241.4564
  20299818.724       71354.25049     60098.04649  20299818.4984   20299823.5084
  20407611.507    -5007304.91649  -3715299.96749  20407611.0654   20407616.2964
 97  1 12 18 28 59.9990000  0  7 22 19 18  4 29 14 16
  20953932.294    -1025847.75049   -795709.27549  20953931.6754   20953936.4314
  22988799.224    -8691826.97349  -6760267.91249  22988799.2154   22988806.0214
  21952160.977    -8113168.79049  -6305202.36549  21952160.7854   21952165.1304
  24466338.372    -2985934.68549  -2320696.61849  24466341.1544   24466340.5194
  20648868.735    -1028363.86949   -767329.88349  20648868.7464   20648872.9004
  20303550.640       90965.71349     75379.68149  20303550.1054   20303555.3424
  20399509.985    -5049878.73249  -3748474.38749  20399509.4734   20399514.8574
 97  1 12 18 29 29.9990000  0  7 22 19 18  4 29 14 16
  20955669.658    -1016717.84049   -788595.08849  20955668.7324   20955673.9294
  22969936.285    -8790952.55049  -6837508.58949  22969936.6344   22969941.9114
  21933704.716    -8210157.61349  -6380778.07849  21933704.6624   21933708.9294
  24462731.543    -3004888.52649  -2335465.84549  24462734.5614   24462737.4814
  20647525.743    -1035421.23349   -772829.15149  20647525.5854   20647529.5474
  20307363.952      111004.97749     90994.66249  20307363.5854   20307368.6574
  20391494.580    -5091999.91749  -3781296.10749  20391493.8634   20391499.2304
 97  1 12 18 29 59.9990000  0  7 22 19 18  4 29 14 16
  20957513.341    -1007029.24549   -781045.56749  20957512.6364   20957517.6224
  22951108.934    -8889890.99149  -6914603.44049  22951108.8584   22951114.7064
  21915265.256    -8307057.76549  -6456284.69449  21915264.8484   21915269.5734
  24459210.732    -3023392.16349  -2349884.33749  24459208.8824   24459216.9774
  20646221.205    -1042276.72649   -778171.12049  20646221.3984   20646225.4354
  20311274.211      131553.60249    107006.54949  20311274.1384   20311278.8874
  20383583.138    -5133575.11749  -3813692.38749  20383582.7594   20383587.7864
 97  1 12 18 30 29.9990000  0  7 22 19 18  4 29 14 16
  20959452.940     -996836.63049   -773103.29949  20959451.9634   20959457.3584
  22932303.286    -8988715.65949  -6991609.63949  22932303.2374   22932309.1144
  21896833.915    -8403915.38149  -6531758.15649  21896833.9074   21896838.5184
  24455760.782    -3041521.40049  -2364011.02249  24455760.4594   24455769.0094
  20644945.108    -1048983.07349   -783396.86949  20644945.2124   20644949.2574
  20315272.607      152564.99149    123379.02949  20315272.5894   20315277.4264
  20375763.625    -5174667.12549  -3845712.16049  20375763.1534   20375768.3864
 97  1 12 18 30 59.9990000  0  7 22 19 18  4 29 14 16
  20961495.789     -986101.40149   -764738.21649  20961495.1394   20961500.3634
  22913521.635    -9087414.03949  -7068517.44649  22913521.4794   22913527.6614
  21878414.523    -8500709.67149  -6607182.27749  21878414.4194   21878418.4184
  24452383.720    -3059266.94349  -2377838.74649  24452383.5674   24452389.3174
  20643701.649    -1055517.54449   -788488.68649  20643701.7334   20643705.8544
  20319361.771      174053.40949    140123.22349  20319361.7894   20319366.6234
  20368039.165    -5215259.35649  -3877342.48949  20368038.7304   20368044.0414
 97  1 12 18 31 29.9990000  0  7 22 19 18  4 29 14 16
  20963641.667     -974825.09849   -755951.51949  20963640.7534   20963645.9664
  22894759.992    -9186007.16449  -7145343.22449  22894759.9874   22894766.1164
  21860003.726    -8597459.45849  -6682571.72949  21860003.2654   21860008.0834
  24449077.698    -3076640.46949  -2391376.59349  24449080.2444   24449082.7494
  20642491.674    -1061876.12849   -793443.44849  20642491.8004   20642495.9054
  20323538.414      196001.66549    157225.72849  20323538.3774   20323543.3034
  20360408.744    -5255357.52749  -3908587.83749  20360408.2334   20360413.7524
 97  1 12 18 31 59.9990000  0  7 22 19 18  4 29 14 16
  20965894.046     -962988.64749   -746728.34849  20965893.3344   20965898.6604
  22876022.261    -9284474.51849  -7222071.00249  22876022.3894   22876029.0164
  21841603.488    -8694153.23149  -6757917.53149  21841602.9934   21841608.1474
  24445845.791    -3093624.20049  -2404610.70149  24445844.1944   24445852.1624
  20641323.289    -1068016.16549   -798227.91649  20641323.2094   20641327.2024
  20327805.952      218427.44649    174700.33549  20327805.6834   20327810.7704
  20352873.367    -5294956.10449  -3939443.89549  20352872.7394   20352878.2284
 97  1 12 18 32 29.9990000  0  7 22 19 18  4 29 14 16
  20968249.860     -950609.07849   -737081.95849  20968249.0734   20968254.4334
  22857307.753    -9382820.51649  -7298704.20449  22857307.7554   22857312.9124
  21823210.116    -8790811.05049  -6833235.30449  21823209.7364   21823214.2574
  24442688.579    -3110214.66349  -2417538.35349  24442690.0784   24442694.4814
  20640197.102    -1073934.05149   -802839.27949  20640197.2794   20640201.0514
  20332164.275      241330.41849    192546.78349  20332164.0964   20332169.0164
  20345429.368    -5334074.67149  -3969925.90849  20345429.0734   20345434.5534
 97  1 12 18 32 59.9990000  0  7 22 19 18  4 29 14 16
  20970708.335     -937689.62849   -727014.88949  20970707.6414   20970712.9154
  22838621.910    -9481014.54749  -7375219.01149  22838621.6314   22838627.8834
  21804823.282    -8887434.17849  -6908526.04749  21804823.1354   21804827.1274
  24439611.993    -3126381.90449  -2430136.23249  24439613.1884   24439619.0064
  20639115.441    -1079618.40749   -807268.67249  20639115.3884   20639119.5594
  20336617.329      264731.11249    210781.05849  20336616.8234   20336621.9684
  20338079.500    -5372698.67749  -4000022.55549  20338079.0914   20338084.3864
 97  1 12 18 33 29.9990000  0  7 22 19 18  4 29 14 16
  20973269.677     -924230.01449   -716526.90549  20973268.8884   20973273.9074
  22819973.050    -9579014.69549  -7451582.72649  22819972.9214   22819978.8644
  21786449.501    -8983989.12449  -6983763.66249  21786449.3954   21786453.6094
  24436623.414    -3142087.45049  -2442374.36249  24436623.3884   24436628.6334
  20638083.027    -1085043.91749   -811496.36549  20638083.1124   20638087.3374
  20341174.833      288681.49449    229443.66449  20341174.8384   20341179.6484
  20330829.505    -5410797.82549  -4029710.22249  20330829.2104   20330834.3634
 97  1 12 18 33 59.9990000  0  7 22 19 18  4 29 14 16
  20975934.369     -910226.85949   -705615.39249  20975933.6234   20975938.8724
  22801367.338    -9676787.96649  -7527769.64949  22801366.2734   22801373.0944
  21768092.212    -9080457.56749  -7058933.88449  21768091.8744   21768096.5764
  24433725.391    -3157317.30649  -2454241.80049  24433726.5234   24433732.4734
  20637099.990    -1090210.03849   -815521.94049  20637100.1234   20637104.2264
  20345842.297      313208.94749    248555.93249  20345842.2474   20345847.3714
  20323681.563    -5448360.70249  -4058980.01449  20323681.0784   20323686.7204
 97  1 12 18 34 29.9990000  0  7 22 19 18  4 29 14 16
  20978689.512     -895748.80349   -694333.82249  20978688.9864   20978694.1164
  22782791.054    -9774406.57549  -7603836.06249  22782790.2034   22782796.8204
  21749741.139    -9176893.21849  -7134078.54149  21749740.7384   21749745.7254
  24430908.121    -3172123.50449  -2465779.09849  24430907.7554   24430914.8424
  20636150.576    -1095199.42549   -819409.79749  20636150.5004   20636154.9664
  20350606.637      338245.72449    268065.08649  20350606.3384   20350611.2594
  20316625.984    -5485438.20849  -4087871.58849  20316625.4634   20316631.0294
 97  1 12 18 34 59.9990000  0  7 22 19 18  4 29 14 16
  20981529.470     -880825.27649   -682705.12549  20981528.9804   20981533.4304
  22764238.468    -9871900.89849  -7679805.63449  22764237.8464   22764245.0274
  21731395.449    -9273299.97349  -7209200.67449  21731394.7584   21731399.6804
  24428164.504    -3186541.81649  -2477014.17349  24428165.2534   24428171.1494
  20635229.788    -1100038.04049   -823180.17149  20635229.7184   20635234.0374
  20355460.068      363750.59649    287938.98249  20355459.7984   20355464.9994
  20309660.489    -5522042.24949  -4116394.23749  20309659.9054   20309665.2934
 97  1 12 18 35 29.9990000  0  7 22 19 18  4 29 14 16
  20984452.824     -865463.18049   -670734.69649  20984451.9564   20984456.5864
  22745705.933    -9969289.35049  -7755692.72149  22745705.7564   22745712.4674
  21713055.227    -9369678.46949  -7284300.79549  21713055.3754   21713059.6794
  24425492.906    -3200582.27749  -2487954.84349  24425493.8324   24425498.9574
  20634337.436    -1104727.38649   -826834.23549  20634337.5054   20634341.2984
  20360395.287      389685.13949    308147.68449  20360395.2524   20360400.4294
  20302785.906    -5558168.67749  -4144544.72549  20302785.5444   20302790.8494
 97  1 12 18 35 59.9990000  0  7 22 19 18  4 29 14 16
  20987472.189     -849596.19449   -658370.84149  20987471.5864   20987476.8084
  22727201.777   -10066529.82449  -7831464.49749  22727201.0364   22727207.9194
  21694729.636    -9465980.22949  -7359341.12049  21694729.2114   21694734.3354
  24422901.945    -3214198.62949  -2498565.00849  24422901.7374   24422907.7394
  20633484.491    -1109209.79649   -830327.04449  20633484.6564   20633488.7984
  20365415.516      416066.59549    328704.63149  20365415.2164   20365420.4294
  20296015.204    -5593749.25949  -4172269.87149  20296014.8214   20296020.0424
 97  1 12 18 36 29.9990000  0  7 22 19 18  4 29 14 16
  20990595.993     -833180.50749   -645579.42249  20990595.2134   20990600.4114
  22708729.166   -10163603.99249  -7907106.70249  22708728.7244   22708735.2664
  21676424.117    -9562176.54149  -7434299.28849  21676423.8844   21676428.9044
  24420397.898    -3227357.26949  -2508818.52449  24420398.4404   24420404.1924
  20632679.689    -1113439.26649   -833622.76149  20632679.8934   20632683.9754
  20370523.495      442909.13449    349620.86649  20370523.3804   20370528.5614
  20289355.575    -5628746.03449  -4199540.10849  20289355.1724   20289360.3134
 97  1 12 18 36 59.9990000  0  7 22 19 18  4 29 14 16
  20993819.410     -816241.63049   -632380.31449  20993818.8524   20993823.8084
  22690285.441   -10260526.49249  -7982630.71149  22690284.8034   22690291.9004
  21658132.579    -9658299.20149  -7509200.05549  21658131.9874   21658136.9874
  24417973.617    -3240097.49049  -2518746.01049  24417974.3484   24417979.3974
  20631920.108    -1117431.26249   -836733.42649  20631920.3994   20631923.9444
  20375714.193      470186.13249    370875.64449  20375714.1374   20375719.3074
  20282802.090    -5663184.94049  -4226375.63749  20282801.4694   20282806.7694
 97  1 12 18 37 29.9990000  0  7 22 19 18  4 29 14 16
  20997152.427     -798726.60349   -618732.26949  20997151.7644   20997157.2324
  22671879.554   -10357249.39849  -8057999.17949  22671878.7754   22671885.0394
  21639862.289    -9754309.83649  -7584013.52949  21639861.9754   21639867.2064
  24415634.575    -3252389.43649  -2528324.17549  24415634.6484   24415640.4284
  20631214.244    -1121140.85049   -839624.02749  20631214.1484   20631218.5614
  20380996.872      497946.43449    392507.01549  20380996.8994   20381002.0044
  20276358.176    -5697048.00349  -4252762.45649  20276357.5804   20276363.0094
 97  1 12 18 37 59.9990000  0  7 22 19 18  4 29 14 16
  21000592.541     -780649.08649   -604645.92049  21000591.5834   21000596.6334
  22653505.167   -10453807.28149  -8133239.06549  22653504.6454   22653511.1944
  21621608.680    -9850233.71549  -7658759.41349  21621608.4824   21621613.3244
  24413372.175    -3264278.54249  -2537588.43349  24413371.9344   24413378.7954
  20630557.808    -1124590.00749   -842311.70149  20630557.9024   20630562.4114
  20386370.477      526184.43049    414510.61849  20386370.5594   20386375.4734
  20270015.630    -5730378.11349  -4278733.98749  20270015.0214   20270020.4884
 97  1 12 18 38 29.9990000  0  7 22 19 18  4 29 14 16
  21004145.886     -761976.10249   -590095.56149  21004145.1134   21004149.8934
  22635169.780   -10550159.85549  -8208318.98049  22635169.4584   22635175.6284
  21603380.667    -9946022.77949  -7733400.25149  21603380.4414   21603384.5884
  24411193.220    -3275728.94549  -2546510.86349  24411193.2234   24411198.4384
  20629960.009    -1127731.53649   -844759.66449  20629960.1164   20629964.6294
  20391845.346      554954.70649    436928.98749  20391845.3994   20391850.1904
  20263780.442    -5763144.58649  -4304266.32149  20263780.0874   20263785.2514
 97  1 12 18 38 59.9990000  0  7 22 19 18  4 29 14 16
  21007800.781     -742769.67149   -575129.52449  21007800.0634   21007805.0054
  22616863.033   -10646362.39049  -8283281.97649  22616862.9924   22616868.5404
  21585169.241   -10041724.60649  -7807973.10449  21585168.8294   21585173.3954
  24409086.644    -3286798.53049  -2555136.53349  24409086.4014   24409092.9724
  20629407.392    -1130635.84949   -847022.78149  20629407.7484   20629411.7944
  20397412.083      584208.15349    459723.86049  20397411.7364   20397416.9844
  20257641.019    -5795407.59949  -4329406.34449  20257640.6374   20257645.9134
 97  1 12 18 39 29.9980000  0  7 22 19 18  4 29 14 16
  21011540.273     -723118.86349   -559817.22549  21011539.4044   21011544.6134
  22598565.799   -10742515.46649  -8358206.43949  22598565.5194   22598571.2134
  21566957.671   -10137427.42249  -7882546.72549  21566957.5464   21566962.2034
  24407035.243    -3297578.65849  -2563536.67749  24407034.7414   24407040.5994
  20628882.471    -1133394.41349   -849172.33149  20628882.6324   20628886.7644
  20403052.954      613850.88049    482822.05349  20403052.7504   20403057.5834
  20251579.882    -5827259.34949  -4354225.90549  20251579.3434   20251584.2994
 97  1 12 18 39 59.9980000  0  7 22 19 18  4 29 14 16
  21015390.535     -702885.68449   -544051.13049  21015389.7284   21015394.7144
  22580307.292   -10838464.83949  -8432972.18849  22580307.3784   22580314.0904
  21548773.551   -10232985.60549  -7957007.63849  21548772.9154   21548777.7124
  24405071.824    -3307896.76049  -2571576.76249  24405072.7204   24405077.4824
  20628412.555    -1135864.25549   -851096.89949  20628412.7974   20628416.6394
  20408797.691      644039.66449    506345.74849  20408797.7034   20408802.2734
  20245631.070    -5858520.50549  -4378585.26349  20245630.3824   20245635.9144
 97  1 12 18 40 29.9980000  0  7 22 19 18  4 29 14 16
  21019349.526     -682081.26249   -527839.91649  21019348.7584   21019353.9014
  22562094.245   -10934175.13249  -8507551.62549  22562093.6684   22562099.8044
  21530621.270   -10328376.15549  -8031337.93649  21530620.7814   21530625.7784
  24403201.977    -3317722.29649  -2579233.07249  24403202.4344   24403206.2624
  20627995.879    -1138054.22249   -852803.38549  20627995.9964   20628000.2424
  20414649.503      674790.76449    530307.60549  20414650.0124   20414654.2494
  20239798.264    -5889172.07649  -4402469.61749  20239797.7404   20239803.2234
 97  1 12 18 40 59.9980000  0  7 22 19 18  4 29 14 16
  21023404.213     -660773.64249   -511236.59749  21023403.3614   21023408.5974
  22543916.603   -11029698.93649  -8581985.75049  22543916.3814   22543922.4774
  21512489.673   -10423658.40149  -8105583.83349  21512489.2144   21512494.3614
  24401415.718    -3327109.21749  -2586547.57549  24401416.0014   24401422.0064
  20627619.288    -1140033.45849   -854345.66649  20627619.3664   20627623.6044
  20420596.608      706042.28249    554659.40049  20420596.3354   20420601.4014
  20234069.238    -5919278.47949  -4425929.16749  20234068.8264   20234074.2014
 97  1 12 18 41 29.9980000  0  7 22 19 18  4 29 14 16
  21027556.020     -638955.91049   -494235.79249  21027555.2464   21027560.2974
  22525780.949   -11125002.12849  -8656247.95949  22525779.5674   22525786.0104
  21494382.284   -10518813.38049  -8179730.57449  21494382.1694   21494386.8544
  24399714.096    -3336049.94549  -2593514.39749  24399712.5804   24399721.7984
  20627288.810    -1141770.45049   -855699.18249  20627288.7254   20627293.1764
  20426641.946      737810.76549    579414.03049  20426641.7704   20426646.6744
  20228447.323    -5948821.92749  -4448950.05149  20228446.9084   20228452.2484
 97  1 12 18 41 59.9980000  0  7 22 19 18  4 29 14 16
  21031781.870     -616749.06249   -476931.77349  21031781.1814   21031786.2744
  22507663.893   -11220207.99249  -8730434.30049  22507663.7994   22507669.9814
  21476276.876   -10613958.24549  -8253869.42449  21476277.0134   21476281.4444
  24398075.274    -3344660.92249  -2600224.29749  24398074.7844   24398083.3024
  20626981.461    -1143385.55949   -856957.72549  20626981.5884   20626985.9734
  20432761.434      769968.41449    604471.91349  20432760.9844   20432766.3004
  20222909.180    -5977925.40749  -4471628.10549  20222908.5124   20222913.9064
 97  1 12 18 42 29.9980000  0  7 22 19 18  4 29 14 16
  21036080.327     -594160.93849   -459330.66249  21036079.5454   21036084.7114
  22489558.404   -11315353.42349  -8804573.57749  22489558.4334   22489563.5674
  21458168.397   -10709118.60649  -8328020.34149  21458167.6604   21458173.0294
  24396492.047    -3352981.12149  -2606707.62849  24396492.4204   24396498.7354
  20626696.706    -1144881.92349   -858123.74349  20626696.6954   20626700.8094
  20438950.194      802490.75549    629813.96349  20438949.6604   20438955.0024
  20217447.294    -6006627.53549  -4493993.41749  20217446.5334   20217452.0124
 97  1 12 18 42 59.9980000  0  7 22 19 18  4 29 14 16
  21040476.517     -571058.48049   -441328.77249  21040475.7024   21040480.9004
  22471483.235   -11410338.90649  -8878588.22849  22471483.6764   22471489.6744
  21440078.844   -10804179.62649  -8402093.85449  21440078.3934   21440083.3284
  24394985.970    -3360897.74949  -2612876.50249  24394985.7234   24394992.6814
  20626462.395    -1146113.36749   -859083.33449  20626462.1674   20626466.5564
  20445226.651      835473.95149    655515.12149  20445226.3244   20445231.4774
  20212085.084    -6034806.03149  -4515950.70649  20212084.6254   20212089.9104
 97  1 12 18 43 29.9980000  0  7 22 19 18  4 29 14 16
  21044988.863     -547345.93149   -422851.48849  21044987.8784   21044993.0004
  22453450.868   -11505100.14149  -8952428.15949  22453450.8894   22453457.6674
  21422020.588   -10899076.61649  -8476039.56149  21422020.3344   21422025.3584
  24393569.051    -3368343.43149  -2618678.32849  24393568.9344   24393574.7614
  20626294.443    -1146995.85249   -859771.00249  20626294.5834   20626298.5584
  20451603.649      868984.98849    681627.57949  20451603.5694   20451608.6064
  20206837.672    -6062381.50049  -4537438.10249  20206837.2084   20206842.7034
 97  1 12 18 43 59.9980000  0  7 22 19 18  4 29 14 16
  21049598.174     -523123.77949   -403977.11249  21049597.4874   21049602.7124
  22435435.605   -11599771.46149  -9026198.01149  22435435.3114   22435441.6514
  21403971.508   -10993925.13049  -8549947.48049  21403971.1794   21403976.2694
  24392223.479    -3375414.46849  -2624188.22849  24392223.6154   24392227.1954
  20626170.830    -1147645.51849   -860277.25249  20626171.0694   20626175.1094
  20458059.979      902913.17149    708065.08149  20458060.1404   20458064.9024
  20201683.758    -6089465.57649  -4558542.59449  20201683.2064   20201688.7524
 97  1 12 18 44 29.9980000  0  7 22 19 18  4 29 14 16
  21054322.157     -498299.31749   -384633.41549  21054321.1674   21054326.6124
  22417458.820   -11694240.23649  -9099810.04249  22417458.4064   22417464.2234
  21385951.911   -11088618.68549  -8623734.65749  21385951.5544   21385956.3684
  24390967.333    -3382017.67549  -2629333.62049  24390967.3954   24390974.0114
  20626111.093    -1147960.00949   -860522.33149  20626110.9014   20626115.0814
  20464615.837      937363.72049    734909.63049  20464615.5214   20464620.3874
  20196642.598    -6115957.41149  -4579185.60549  20196642.1364   20196647.6134
 97  1 12 18 44 59.9980000  0  7 22 19 18  4 29 14 16
  21059150.118     -472928.40449   -364863.90049  21059149.6244   21059154.9204
  22399512.489   -11788548.93449  -9173297.32549  22399512.1404   22399518.1644
  21367951.928   -11183209.29449  -8697441.61949  21367951.9554   21367956.2254
  24389788.606    -3388212.23349  -2634160.56849  24389788.5814   24389791.6444
  20626101.640    -1148009.44749   -860560.87849  20626101.6074   20626106.0664
  20471258.546      972271.51749    762110.47549  20471258.2334   20471263.1644
  20191706.177    -6141898.58149  -4599399.52449  20191705.4834   20191711.1384
 97  1 12 18 45 29.9980000  0  7 22 19 18  4 29 14 16
  21064087.157     -446984.34849   -344647.78049  21064086.1574   21064091.5354
  22381605.366   -11882651.31049  -9246623.82649  22381604.6974   22381611.3244
  21349978.373   -11277661.25949  -8771040.54349  21349978.0484   21349982.5554
  24388692.144    -3393974.77549  -2638650.90849  24388692.1204   24388695.7784
  20626145.798    -1147777.60949   -860380.23549  20626145.8564   20626150.0974
  20477997.446     1007684.65749    789705.09849  20477997.3874   20478002.3464
  20186881.796    -6167250.80449  -4619154.52049  20186881.2834   20186886.7654
 97  1 12 18 45 59.9980000  0  7 22 19 18  4 29 14 16
  21069115.734     -420558.78249   -324056.45949  21069115.0254   21069120.4774
  22363728.244   -11976596.47149  -9319827.81549  22363727.9234   22363733.3204
  21332022.166   -11372021.79649  -8844568.22849  21332021.7694   21332026.5744
  24387665.795    -3399369.10149  -2642854.28149  24387665.0014   24387670.6254
  20626229.388    -1147338.52649   -860038.10849  20626229.1994   20626233.7264
  20484822.156     1043548.62749    817651.02349  20484822.0734   20484826.9834
  20182159.585    -6192066.30549  -4638491.29349  20182159.1324   20182164.5484
 97  1 12 18 46 29.9980000  0  7 22 19 18  4 29 14 16
  21074248.740     -393584.86849   -303037.86549  21074248.0424   21074252.9034
  22345899.090   -12070288.74649  -9392834.76149  22345898.6364   22345905.2424
  21314098.413   -11466211.79449  -8917963.02049  21314098.0774   21314103.0744
  24386721.435    -3404330.87049  -2646720.59649  24386721.3744   24386725.4744
  20626366.675    -1146616.90749   -859475.83949  20626366.6244   20626370.9884
  20491745.077     1079928.80649    845999.17549  20491744.9404   20491750.2264
  20177557.215    -6216252.42049  -4657337.64349  20177557.0784   20177562.2304
 97  1 12 18 46 59.9980000  0  7 22 19 18  4 29 14 16
  21079471.019     -366142.17149   -281653.97649  21079470.2764   21079475.6004
  22328104.221   -12163801.51549  -9465701.82849  22328104.0954   22328109.9214
  21296192.254   -11560309.72849  -8991286.07449  21296192.1034   21296196.7434
  24385847.829    -3408922.35449  -2650298.39549  24385849.8174   24385852.2864
  20626543.243    -1145689.27349   -858753.02749  20626543.3214   20626547.4094
  20498751.561     1116747.74249    874689.22649  20498751.3304   20498756.4244
  20173060.991    -6239880.60949  -4675749.24249  20173060.6114   20173066.0104
 97  1 12 18 47 29.9980000  0  7 22 19 18  4 29 14 16
  21084770.830     -338291.67849   -259952.32449  21084770.1874   21084775.3934
  22310333.991   -12257184.38749  -9538467.68049  22310334.1674   22310340.1584
  21278296.543   -11654351.96449  -9064565.72749  21278295.7824   21278300.2624
  24385039.701    -3413168.89649  -2653607.41349  24385040.7084   24385044.3544
  20626752.653    -1144588.83049   -857895.55649  20626752.5464   20626756.6704
  20505835.160     1153972.04249    903695.14549  20505835.1264   20505840.0194
  20168660.631    -6263005.00349  -4693768.27149  20168660.1374   20168665.5284
 97  1 12 18 47 59.9980000  0  7 22 19 18  4 29 14 16
  21090171.533     -309911.34649   -237837.80749  21090171.0084   21090176.1834
  22292609.130   -12350329.27849  -9611048.09949  22292608.3684   22292614.5624
  21260434.714   -11748216.57149  -9137706.97549  21260434.3584   21260439.0384
  24384321.747    -3416941.87349  -2656547.40849  24384322.8854   24384326.7364
  20627019.350    -1143187.43549   -856803.57649  20627019.4824   20627023.6594
  20513016.162     1191708.34549    933100.02649  20513016.0544   20513021.2864
  20164376.529    -6285517.93149  -4711310.83349  20164375.8034   20164381.4604
 97  1 12 18 48 29.9980000  0  7 22 19 18  4 29 14 16
  21095669.577     -281019.20249   -215324.47949  21095668.8724   21095673.9454
  22274921.139   -12443279.69649  -9683476.96849  22274920.6134   22274926.5784
  21242600.375   -11841936.78249  -9210735.69649  21242599.9744   21242604.6224
  24383688.160    -3420271.85349  -2659142.20049  24383688.5544   24383694.1534
  20627339.206    -1141506.50649   -855493.77749  20627339.0904   20627343.6464
  20520286.145     1229912.13549    962869.18149  20520285.6924   20520291.1454
  20160199.161    -6307470.00649  -4728416.36649  20160198.3754   20160204.3214
 97  1 12 18 48 59.9980000  0  7 22 19 18  4 29 14 16
  21101250.658     -251690.51649   -192470.97549  21101249.6294   21101255.1154
  22257254.979   -12536115.73349  -9755816.70649  22257254.4434   22257259.9674
  21224781.788   -11935574.03149  -9283699.78049  21224781.6894   21224786.2414
  24383124.334    -3423234.11349  -2661450.49349  24383124.7044   24383130.7604
  20627699.933    -1139610.84049   -854016.65149  20627700.1604   20627704.2194
  20527632.425     1268517.40449    992951.16949  20527632.2264   20527637.5674
  20156113.364    -6328941.07249  -4745147.08449  20156112.9234   20156118.3154
 97  1 12 18 49 29.9980000  0  7 22 19 18  4 29 14 16
  21106935.109     -221818.62249   -169194.20849  21106934.0244   21106939.5434
  22239627.641   -12628747.26149  -9827997.08649  22239627.6664   22239633.0584
  21206998.890   -12029023.80549  -9356517.78549  21206998.5404   21207002.7424
  24382645.022    -3425752.09749  -2663412.57049  24382643.8074   24382651.4624
  20628122.145    -1137392.41149   -852288.02949  20628122.2084   20628126.3874
  20535074.449     1307625.36149   1023424.87249  20535074.2144   20535079.6584
  20152138.338    -6349830.29949  -4761424.42949  20152137.8254   20152143.3774
 97  1 12 18 49 59.9980000  0  7 22 19 18  4 29 14 16
  21112706.149     -191491.33749   -145562.59149  21112705.6284   21112710.5794
  22222023.476   -12721257.39249  -9900082.87049  22222023.4034   22222028.8314
  21189232.290   -12122387.90049  -9429269.03549  21189232.0304   21189236.0414
  24382229.703    -3427933.36849  -2665112.28449  24382229.5544   24382236.7854
  20628588.370    -1134942.57349   -850379.09349  20628588.4754   20628592.6454
  20542595.196     1347147.18649   1054221.06549  20542594.8684   20542600.3234
  20148258.823    -6370217.38449  -4777310.49149  20148258.3914   20148263.8594
 97  1 12 18 50 29.9980000  0  7 22 19 18  4 29 14 16
  21118565.627     -160700.11049   -121569.44749  21118565.0424   21118570.1184
  22204449.381   -12813610.10649  -9972045.98649  22204449.0904   22204454.6904
  21171484.857   -12215651.34949  -9501941.84049  21171484.4364   21171489.3384
  24381881.921    -3429761.52749  -2666536.83449  24381883.7734   24381887.7234
  20629102.134    -1132243.03449   -848275.57649  20629102.3204   20629106.4524
  20550201.514     1387118.53449   1085367.54349  20550201.4424   20550206.8134
  20144482.230    -6390063.60449  -4792775.09449  20144481.7554   20144487.1964
 97  1 12 18 50 59.9980000  0  7 22 19 18  4 29 14 16
  21124521.219     -129403.29049    -97182.33749  21124520.0294   21124525.6084
  22186915.217   -12905753.12549 -10043845.71649  22186915.3984   22186920.5474
  21153763.948   -12308775.29149  -9574505.93949  21153763.4944   21153768.1184
  24381610.557    -3431189.17749  -2667649.29849  24381611.6514   24381616.6844
  20629672.946    -1129243.41449   -845938.23449  20629673.0354   20629677.5084
  20557905.656     1427603.38449   1116914.14949  20557905.7184   20557910.7474
  20140820.347    -6409306.92849  -4807769.91249  20140819.8214   20140825.1824
 97  1 12 18 51 29.9980000  0  7 22 19 18  4 29 14 16
  21130557.225      -97683.74849    -72465.84149  21130556.4104   21130561.8914
  22169402.654   -12997782.01649 -10115556.51349  22169401.7934   22169408.7734
  21136050.767   -12401858.49749  -9647038.30749  21136050.5874   21136054.8874
  24381398.769    -3432302.72549  -2668517.04949  24381400.0284   24381405.3154
  20630281.149    -1126047.26349   -843447.75449  20630281.2234   20630285.4304
  20565688.897     1468504.16749   1148784.86249  20565688.8404   20565693.5504
  20137254.874    -6428043.68549  -4822370.00749  20137254.2994   20137259.9404
 97  1 12 18 51 59.9980000  0  7 22 19 18  4 29 14 16
  21136660.391      -65611.90949    -47474.81549  21136659.6454   21136664.9534
  22151899.598   -13089760.56249 -10187228.06449  22151898.9194   22151906.1224
  21118335.067   -12494955.42049  -9719581.36649  21118334.5014   21118339.1564
  24381238.639    -3433144.16849  -2669172.75249  24381237.9604   24381244.3174
  20630912.952    -1122727.06049   -840860.60149  20630912.8864   20630917.0784
  20573537.444     1509748.23249   1180923.06049  20573537.1374   20573542.3564
  20133773.750    -6446337.17949  -4836624.69449  20133773.4994   20133778.8114
 97  1 12 18 52 29.9980000  0  6 22 19 18 29 14 16
  21142869.277      -32983.92549    -22050.43649  21142868.2274   21142873.4694
  22134444.012   -13181489.99549 -10258705.51649  22134443.9834   22134450.5354
  21100658.539   -12587846.28049  -9791963.85449  21100658.3484   21100663.0004
  20631606.741    -1119081.01149   -838019.55449  20631606.7864   20631610.8844
  20581486.156     1551519.06249   1213471.70549  20581485.6544   20581491.1104
  20130412.114    -6464003.07949  -4850390.35549  20130411.7464   20130417.0234
 97  1 12 18 52 59.9980000  0  6 22 19 18 29 14 16
  21149171.275         133.38549      3755.23649  21149170.7044   21149175.6854
  22117022.143   -13273042.15049 -10330044.81949  22117021.8744   22117027.8034
  21083010.229   -12680588.74749  -9864230.69449  21083009.7764   21083014.8764
  20632348.596    -1115182.51849   -834981.78749  20632348.7124   20632352.8264
  20589518.292     1593728.57749   1246362.20049  20589518.1434   20589523.3654
  20127153.152    -6481129.24549  -4863735.43549  20127152.5224   20127158.1064
 97  1 12 18 53 29.9980000  0  6 22 19 18 29 14 16
  21155570.040       33758.67949     29956.74049  21155569.1744   21155574.6114
  22099639.906   -13364386.49049 -10401222.20849  22099639.5784   22099645.8814
  21065397.636   -12773143.74049  -9936351.47749  21065397.2394   21065401.4434
  20633141.869    -1111014.18149   -831733.76049  20633142.2334   20633146.2334
  20597634.910     1636381.17849   1279597.96949  20597634.8744   20597640.0864
  20124000.160    -6497698.34749  -4876646.45049  20123999.6054   20124005.0154
 97  1 12 18 53 59.9980000  0  6 22 19 18 29 14 16
  21162064.878       67889.54949     56552.18549  21162064.2084   21162069.4614
  22082300.577   -13455505.69449 -10472224.16749  22082300.0024   22082306.0394
  21047821.691   -12865505.89349 -10008321.98249  21047821.1574   21047825.7714
  20633990.145    -1106556.58549   -828260.33349  20633990.1064   20633994.4464
  20605836.628     1679481.54649   1313182.63349  20605836.3864   20605842.1264
  20120955.534    -6513697.86549  -4889113.62449  20120955.2134   20120960.5474
 97  1 12 18 54 29.9980000  0  6 22 19 18 29 14 16
  21168658.147      102536.96549     83550.14449  21168657.4234   21168662.7824
  22065006.886   -13546384.36349 -10543038.70549  22065006.7144   22065013.0884
  21030281.517   -12957679.96549 -10080145.93349  21030280.8994   21030285.9114
  20634895.868    -1101797.01149   -824551.60049  20634896.0194   20634900.3104
  20614125.528     1723039.72449   1347124.03549  20614125.5584   20614130.6604
  20118021.588    -6529116.19449  -4901127.93149  20118021.2644   20118026.4574
 97  1 12 18 54 59.9980000  0  7 22 19 18 29  3 14 16
  21175342.982      137665.64249    110923.10149  21175342.4654   21175347.2154
  22047752.100   -13637058.67149 -10613694.00749  22047751.7094   22047758.8114
  21012771.413   -13049695.97549 -10151846.71949  21012771.1614   21012775.7694
  20635854.835    -1096757.78849   -820624.96149  20635854.8154   20635859.5644
  24294280.257    -6841313.63949  -5094445.83449  24294281.5394   24294285.0624
  20622498.017     1767036.94149   1381407.54649  20622497.8324   20622503.2044
  20115197.810    -6543955.38049  -4912690.95849  20115197.2794   20115202.9034
 97  1 12 18 55 29.9980000  0  7 22 19 18 29  3 14 16
  21182116.336      173260.19049    138659.08249  21182115.3174   21182120.7414
  22030530.047   -13727561.37949 -10684215.57049  22030529.5024   22030536.1994
  20995287.717   -13141573.35049 -10223439.47949  20995286.9054   20995291.6024
  20636864.607    -1091451.31949   -816490.07049  20636864.6364   20636869.2144
  24275942.996    -6937676.08349  -5169533.26749  24275941.5554   24275950.2714
  20630950.781     1811456.71149   1416020.32149  20630950.4804   20630956.0564
  20112481.800    -6558228.05249  -4923812.53949  20112481.3094   20112486.7864
 97  1 12 18 55 59.9980000  0  7 22 19 18 29  3 14 16
  21188977.907      209318.03849    166756.06849  21188977.2364   21188982.5394
  22013337.397   -13817909.57449 -10754616.74949  22013337.3944   22013343.7234
  20977828.258   -13233322.83849 -10294932.59249  20977827.8624   20977832.6084
  20637926.849    -1085868.98849   -812140.23549  20637926.8614   20637931.5194
  24257615.343    -7033988.05649  -5244581.40949  24257613.9534   24257623.1834
  20639484.382     1856301.00949   1450963.89149  20639484.5524   20639489.7884
  20109875.031    -6571926.90149  -4934486.98949  20109874.4044   20109880.0494
 97  1 12 18 56 29.9980000  0  7 22 19 18 29  3 14 16
  21195924.131      245820.46549    195199.48349  21195923.4584   21195928.6754
  21996171.933   -13908115.09449 -10824906.74049  21996171.4874   21996177.5084
  20960394.088   -13324939.88849 -10366322.50049  20960393.7614   20960398.5314
  20639038.505    -1080027.39649   -807588.37849  20639038.8514   20639043.0474
  24239295.160    -7130261.23249  -5319599.30949  24239295.4054   24239302.0844
  20648097.716     1901564.33549   1486233.97749  20648097.0504   20648102.7644
  20107375.483    -6585062.01349  -4944722.16249  20107374.7344   20107380.7664
 97  1 12 18 56 59.9980000  0  7 22 19 18 29  3 14 16
  21202952.287      282753.38449    223978.34849  21202951.5824   21202957.2444
  21979029.509   -13998199.04649 -10895102.01349  21979029.5644   21979035.6744
  20942985.533   -13416422.66949 -10437607.77449  20942984.9334   20942989.9904
  20640196.641    -1073941.86849   -802846.43949  20640196.8594   20640201.1604
  24220977.521    -7226520.60549  -5394606.45249  24220977.1864   24220984.5444
  20656787.582     1947230.30649   1521817.81349  20656787.5544   20656792.9344
  20104978.537    -6597657.97449  -4954537.21549  20104977.9234   20104983.9294
 97  1 12 18 57 29.9980000  0  7 22 19 18 29  3 14 16
  21210065.298      320132.33149    253104.75549  21210064.3984   21210070.1494
  21961912.365   -14088150.37949 -10965193.94449  21961912.1354   21961918.2674
  20925601.308   -13507777.09449 -10508793.04849  20925601.1684   20925605.4054
  20641401.002    -1067613.28849   -797915.10349  20641401.0054   20641405.6514
  24202663.973    -7322758.63449  -5469596.99749  24202663.4354   24202670.9804
  20665553.661     1993295.87749   1557713.02349  20665553.5754   20665559.2284
  20102680.895    -6609732.01849  -4963945.58049  20102680.6144   20102686.2774
 97  1 12 18 57 59.9980000  0  7 22 19 18 29  3 14 16
  21217264.092      357962.02449    282582.39449  21217263.2244   21217268.8454
  21944825.478   -14177941.98949 -11035161.44249  21944825.6134   21944831.4104
  20908244.556   -13598987.60649 -10579866.18149  20908244.0844   20908249.2904
  20642656.045    -1061017.97549   -792775.93149  20642656.1474   20642660.4344
  24184357.112    -7418961.84949  -5544560.40849  24184356.6684   24184363.7624
  20674398.621     2039776.32949   1593931.51549  20674398.6524   20674403.6714
  20100485.735    -6621268.12249  -4972934.77749  20100485.1444   20100490.9084
 97  1 12 18 58 29.9980000  0  7 22 19 18 29  3 14 16
  21224534.292      396167.42349    312352.79549  21224533.7314   21224538.9604
  21927755.931   -14267642.80549 -11105058.16449  21927755.5214   21927761.6944
  20890902.261   -13690122.02649 -10650880.00349  20890901.9894   20890906.7184
  20643945.994    -1054239.49649   -787494.02249  20643946.1534   20643950.3184
  24166042.023    -7515207.70949  -5619557.10449  24166040.9684   24166048.7444
  20683308.347     2086597.16849   1630415.25949  20683308.2744   20683313.5604
  20098375.016    -6632360.06249  -4981577.86149  20098374.5454   20098380.1674
 97  1 12 18 58 59.9980000  0  7 22 19 18 29  3 14 16
  21231869.534      434714.06649    342389.10449  21231868.8734   21231874.0274
  21910695.729   -14357294.21549 -11174916.39449  21910694.9914   21910701.5494
  20873564.014   -13781235.05749 -10721877.16449  20873563.7924   20873568.3514
  20645264.564    -1047310.31149   -782094.68449  20645264.8214   20645269.1554
  24147714.216    -7611519.87249  -5694605.48249  24147712.9164   24147721.9144
  20692275.804     2133721.17249   1667135.22849  20692275.4864   20692281.1204
  20096340.469    -6643051.75749  -4989909.07349  20096340.1234   20096345.8054
 97  1 12 18 59 29.9980000  0  7 22 19 18 29  3 14 16
  21239275.080      473630.08049    372713.22949  21239274.1064   21239279.4644
  21893654.499   -14446846.37749 -11244697.27949  21893654.2794   21893659.9594
  20856236.244   -13872293.11549 -10792831.50049  20856235.6684   20856240.5484
  20646620.131    -1040187.25549   -776544.27449  20646620.5424   20646624.7774
  24129382.653    -7707852.37349  -5769669.70849  24129382.0164   24129390.6444
  20701309.098     2181191.58949   1704125.11949  20701308.8624   20701314.5194
  20094390.199    -6653300.75449  -4997895.33349  20094389.8534   20094395.3154
 97  1 12 18 59 59.9980000  0  7 22 19 18 29  3 14 16
  21246762.284      512975.83649    403372.21649  21246761.5434   21246766.9444
  21876650.721   -14536202.29349 -11314325.24749  21876650.3204   21876656.4844
  20838937.410   -13963198.59049 -10863666.92949  20838936.8344   20838941.7544
  20648027.142    -1032793.61149   -770783.01649  20648027.2284   20648031.7134
  24111064.345    -7804115.73749  -5844680.07749  24111063.4384   24111071.3804
  20710424.936     2229095.14349   1741452.53549  20710424.8914   20710430.3114
  20092541.273    -6663017.40849  -5005466.77549  20092541.0334   20092546.3794
 97  1 12 19  0 29.9980000  0  7 22 19 18 29  3 14 16
  21254326.646      552726.18449    434346.47749  21254325.9364   21254331.4054
  21859681.353   -14625377.37049 -11383812.32249  21859681.1084   21859686.5074
  20821663.553   -14053972.89049 -10934400.13649  20821663.2724   20821668.3904
  20649479.550    -1025161.43049   -764835.88649  20649479.8134   20649484.0364
  24092756.988    -7900322.13949  -5919646.08349  24092756.9414   24092764.0414
  20719618.176     2277405.77149   1779097.14349  20719617.8174   20719623.6744
  20090789.194    -6672224.91649  -5012641.48349  20090788.8064   20090794.4664
 97  1 12 19  0 59.9980000  0  7 22 19 18 29  3 14 16
  21261991.996      593007.49049    465734.47649  21261991.2404   21261996.8434
  21842772.555   -14714233.68949 -11453051.00749  21842772.0344   21842778.0384
  20804440.126   -14144482.96649 -11004927.47049  20804439.9264   20804444.4554
  20651002.339    -1017159.44649   -758600.59549  20651002.3994   20651006.7544
  24074486.748    -7996333.21349  -5994459.90349  24074485.9104   24074493.2134
  20728911.833     2326244.11049   1817152.95349  20728911.8634   20728917.2674
  20089161.020    -6680781.03749  -5019308.61049  20089160.5744   20089166.2594
 97  1 12 19  1 29.9980000  0  7 22 19 18 29  3 14 16
  21269753.000      633791.97149    497514.55749  21269752.0874   21269757.9554
  21825919.893   -14802794.62649 -11522059.52949  21825919.7704   21825925.5964
  20787265.328   -14234736.96649 -11075255.25449  20787265.2664   20787270.0354
  20652590.315    -1008814.45749   -752098.03749  20652590.2194   20652594.6404
  24056248.101    -8092177.78249  -6069143.96549  24056246.9874   24056254.3924
  20738296.665     2375561.32249   1855581.92049  20738296.8364   20738302.2244
  20087653.107    -6688705.35549  -5025483.42349  20087652.3484   20087658.3624
 97  1 12 19  1 59.9980000  0  7 22 19 18 29  3 14 16
  21277598.215      675018.55949    529639.13049  21277597.3264   21277602.9024
  21809108.521   -14891139.18849 -11590899.44649  21809108.0994   21809114.1094
  20770126.811   -14324800.73649 -11145434.80849  20770126.6414   20770131.5634
  20654232.206    -1000186.26849   -745374.80649  20654232.4524   20654236.7124
  24038029.394    -8187917.52449  -6143746.40249  24038029.4684   24038036.1184
  20747757.192     2425276.28649   1894320.82149  20747756.9974   20747762.5164
  20086254.788    -6696053.27549  -5031209.09749  20086254.2964   20086259.9924
 97  1 12 19  2 29.9980000  0  7 22 19 18 29  3 14 16
  21285537.804      716741.25249    562150.29949  21285536.9994   21285542.5404
  21792338.072   -14979268.76649 -11659571.85649  21792337.6794   21792343.3354
  20753027.774   -14414657.23449 -11215452.84849  20753027.2584   20753032.0674
  20655935.658     -991234.73549   -738399.60649  20655935.8134   20655940.4474
  24019835.911    -8283525.44349  -6218246.10549  24019836.5034   24019843.0694
  20757297.069     2475408.34549   1933384.72849  20757297.2024   20757302.4794
  20084972.761    -6702790.37449  -5036458.80849  20084972.1734   20084977.9034
 97  1 12 19  2 59.9980000  0  7 22 19 18 29  3 14 16
  21293566.221      758931.13349    595025.49249  21293565.2324   21293571.2894
  21775599.244   -15067232.32249 -11728114.89049  21775599.1864   21775604.5314
  20735962.017   -14504337.99849 -11285333.95849  20735961.9624   20735966.3734
  20657693.800     -981995.80949   -731200.47149  20657693.7664   20657698.4834
  24001660.742    -8379037.21349  -6292670.91149  24001659.2174   24001667.2964
  20766908.090     2525914.26649   1972739.96349  20766907.7394   20766913.2294
  20083800.912    -6708948.68349  -5041257.51349  20083800.5544   20083806.1304
 97  1 12 19  3 29.9980000  0  7 22 19 18 29  3 14 16
  21301682.034      801579.57349    628257.99749  21301681.5134   21301686.9884
  21758888.637   -15155047.36649 -11796542.20049  21758888.3054   21758894.3104
  20718929.000   -14593847.68349 -11355081.76149  20718928.6844   20718933.2194
  20659505.984     -972472.86349   -723780.01749  20659506.0724   20659510.6654
  23983501.696    -8474463.93249  -6367029.43849  23983501.0884   23983509.0874
  20776589.734     2576791.68849   2012384.67049  20776589.4164   20776595.0984
  20082736.713    -6714541.25849  -5045615.38749  20082736.2314   20082741.9504
 97  1 12 19  3 59.9980000  0  7 22 19 18 29  3 14 16
  21309883.864      844680.05449    661842.75049  21309882.9354   21309888.4554
  21742203.443   -15242729.09949 -11864865.62149  21742203.5364   21742208.9834
  20701925.104   -14683204.03449 -11424710.08449  20701924.7264   20701929.9274
  20661370.449     -962675.39949   -716145.66149  20661370.4214   20661374.8744
  23965356.956    -8569815.17949  -6441329.15449  23965356.9594   23965364.3914
  20786344.117     2628051.45349   2052327.31749  20786344.0634   20786349.6604
  20081776.567    -6719587.14749  -5049547.28049  20081776.0264   20081782.0394
 97  1 12 19  4 29.9980000  0  7 22 19 18 29  3 14 16
  21318175.697      888253.81849    695796.31349  21318174.7754   21318180.1534
  21725553.599   -15330224.99049 -11933044.20849  21725553.0634   21725559.5914
  20684961.329   -14772349.36149 -11494173.96249  20684961.0294   20684965.1584
  20663292.538     -952574.64549   -708274.97249  20663292.1804   20663297.2734
  23947234.373    -8665049.96849  -6515538.12049  23947234.9544   23947241.9844
  20796180.575     2679742.05249   2092605.67749  20796180.4644   20796186.1574
  20080925.674    -6724058.75549  -5053031.67049  20080925.2154   20080931.0284
 97  1 12 19  4 59.9980000  0  7 22 19 18 29  3 14 16
  21326545.750      932238.85749    730070.32849  21326544.9804   21326550.4754
  21708937.752   -15417541.67049 -12001083.16549  21708937.1264   21708943.4054
  20668034.930   -14861298.58649 -11563485.04449  20668034.3884   20668039.2924
  20665267.338     -942196.72549   -700188.31749  20665267.3034   20665271.7504
  23929130.716    -8760185.43749  -6589669.68849  23929129.4984   23929137.3794
  20806094.948     2731842.50549   2133203.39749  20806094.7504   20806100.3834
  20080178.799    -6727983.65749  -5056090.05849  20080178.1324   20080184.2074
 97  1 12 19  5 29.9980000  0  7 22 19 18 29  3 14 16
  21334992.815      976628.26549    764659.43649  21334991.9024   21334997.4544
  21692356.688   -15504675.50049 -12068979.64349  21692356.0844   21692362.1314
  20651145.561   -14950052.96549 -11632644.29349  20651144.9204   20651149.7654
  20667296.490     -931533.48949   -691879.32949  20667296.6884   20667301.1944
  23911045.858    -8855222.15749  -6663724.31049  23911044.7884   23911053.0024
  20816090.132     2784367.29049   2174131.77249  20816090.0714   20816095.5894
  20079533.620    -6731374.02649  -5058731.93049  20079533.2484   20079538.8874
 97  1 12 19  5 59.9980000  0  7 22 19 18 29  3 14 16
  21343518.069     1021428.57649    799568.73549  21343517.5504   21343522.9194
  21675814.294   -15591605.73049 -12136717.47549  21675813.6864   21675820.1924
  20634295.042   -15038602.56349 -11701643.97349  20634294.8454   20634299.2524
  20669382.327     -920572.56549   -683338.38749  20669382.2844   20669386.9174
  23892984.502    -8950135.74549  -6737682.96349  23892984.9614   23892992.0044
  20826168.565     2837329.57449   2215401.05849  20826168.4644   20826174.1544
  20078994.312    -6734208.60349  -5060940.70649  20078993.9824   20078999.5504
 97  1 12 19  6 29.9980000  0  7 22 19 18 29  3 14 16
  21352119.113     1066627.39149    834788.54349  21352118.3564   21352123.9874
  21659312.038   -15678325.12149 -12204291.01249  21659311.6714   21659317.7744
  20617484.122   -15126944.59549 -11770481.93049  20617483.7134   20617488.0264
  20671526.269     -909306.12749   -674559.38149  20671526.5504   20671531.1494
  23874950.198    -9044906.75549  -6811530.52849  23874949.0574   23874956.5004
  20836327.957     2890717.64149   2257002.10749  20836327.8304   20836333.3984
  20078563.644    -6736472.28049  -5062704.63549  20078563.2404   20078568.8964
 97  1 12 19  6 59.9980000  0  7 22 19 18 29  3 14 16
  21360798.573     1112238.04549    870329.26849  21360797.7374   21360803.3844
  21642847.037   -15764848.85449 -12271712.07549  21642846.5294   21642853.1884
  20600707.063   -15215108.58149 -11839181.14049  20600706.6384   20600711.6374
  20673726.760     -897742.66149   -665548.92249  20673727.1174   20673731.5204
  23856940.028    -9139550.23249  -6885278.68149  23856939.2654   23856947.4704
  20846564.160     2944508.97449   2298917.39949  20846563.8544   20846569.1744
  20078239.134    -6738177.93349  -5064033.73849  20078238.6554   20078244.3044
 97  1 12 19  7 29.9980000  0  7 22 19 18 29  3 14 16
  21369557.509     1158266.76549    906195.75749  21369556.6544   21369562.5684
  21626416.894   -15851189.69449 -12338990.61649  21626416.3144   21626423.0414
  20583960.813   -15303111.13949 -11907754.56349  20583960.9204   20583965.3674
  20675978.850     -885907.89049   -656327.05949  20675978.8284   20675983.5174
  23838951.487    -9234081.01549  -6958939.04849  23838952.5574   23838958.7004
  20856871.334     2998673.60749   2341123.56949  20856870.9294   20856876.8804
  20078016.801    -6739346.31549  -5064944.19149  20078016.1494   20078021.7364
 97  1 12 19  7 59.9980000  0  7 22 19 18 29  3 14 16
  21378396.589     1204716.35349    942390.19149  21378395.7954   21378401.3704
  21610025.052   -15937328.40249 -12406111.65849  21610024.6814   21610031.2864
  20567247.323   -15390941.20949 -11976193.58449  20567246.7414   20567251.4324
  20678284.162     -873793.35149   -646887.19149  20678283.9324   20678288.8174
  23820990.425    -9328467.78649  -7032487.17349  23820989.9524   23820997.4494
  20867247.621     3053201.74649   2383612.98749  20867247.7054   20867253.4764
  20077900.634    -6739956.78949  -5065419.91249  20077900.0994   20077905.7124
 97  1 12 19  8 29.9980000  0  7 22 19 18 29  3 14 16
  21387316.267     1251589.18349    978914.44549  21387315.4004   21387321.0894
  21593671.370   -16023267.70749 -12473077.30949  21593671.0934   21593677.0044
  20550568.092   -15478590.88649 -12044492.03949  20550567.7284   20550572.5834
  20680642.400     -861400.56449   -637230.51049  20680642.4594   20680647.1794
  23803055.620    -9422714.94449  -7105926.49849  23803054.8084   23803062.3714
  20877691.264     3108082.72649   2426377.34449  20877691.4554   20877696.9334
  20077889.109    -6740017.47749  -5065467.22649  20077888.5574   20077894.2764
 97  1 12 19  8 59.9980000  0  7 22 19 18 29  3 14 16
  21396319.483     1298901.32749   1015781.00349  21396318.7074   21396324.3494
  21577357.926   -16108995.40649 -12539878.07949  21577357.3464   21577363.8694
  20533926.611   -15566042.73549 -12112636.33549  20533926.2494   20533931.2084
  20683053.601     -848729.77549   -627357.19949  20683053.6004   20683058.3174
  23785147.603    -9516822.56749  -7179257.08749  23785147.7254   23785155.3044
  20888203.625     3163325.17549   2469423.37449  20888203.1384   20888208.9604
  20077981.581    -6739531.67349  -5065088.70749  20077981.0134   20077986.7054
 97  1 12 19  9 29.9980000  0  7 22 19 18 29  3 14 16
  21405385.827     1346544.74849   1052905.70149  21405385.2404   21405391.1404
  21561067.517   -16194601.93149 -12606584.41449  21561067.6734   21561073.5744
  20517307.840   -15653374.68149 -12180687.20049  20517307.5544   20517312.3334
  20685502.960     -835858.81449   -617327.91049  20685502.6944   20685507.7344
  23767252.464    -9610861.40949  -7252534.07749  23767250.6554   23767260.0114
  20898770.981     3218857.03949   2512694.92249  20898770.7324   20898776.5844
  20078162.211    -6738582.53149  -5064349.14449  20078161.5184   20078167.4134
 97  1 12 19  9 59.9970000  0  7 22 19 18 29  3 14 16
  21414539.863     1394649.44449   1090389.84949  21414539.1334   21414544.5724
  21544826.823   -16279947.85749 -12673087.68849  21544826.5374   21544832.3714
  20500741.479   -15740431.51549 -12248523.69649  20500740.8124   20500745.8754
  20688020.838     -822627.59049   -607017.89249  20688021.1314   20688025.4274
  23749398.312    -9704685.15949  -7325643.45849  23749396.9054   23749405.6974
  20909423.922     3274838.53549   2556316.83449  20909423.7674   20909429.2464
  20078460.021    -6737017.53249  -5063129.68949  20078459.3924   20078465.3314
 97  1 12 19 10 29.9970000  0  7 22 19 18 29  3 14 16
  21423771.887     1443163.94849   1128193.31749  21423770.7924   21423776.8224
  21528621.433   -16365107.50149 -12739445.84049  21528620.7464   21528627.0884
  20484215.516   -15827275.97149 -12316194.70549  20484215.3534   20484219.9704
  20690595.132     -809099.91049   -596476.88049  20690595.3594   20690599.5484
  23731570.409    -9798371.53449  -7398645.78649  23731569.9564   23731576.3324
  20920152.330     3331216.57549   2600247.73049  20920152.2304   20920157.5144
  20078863.524    -6734896.94649  -5061477.31549  20078862.7334   20078868.7944
 97  1 12 19 10 59.9970000  0  7 22 19 18 29  3 14 16
  21433073.890     1492045.86649   1166283.07349  21433072.9924   21433078.8324
  21512445.938   -16450110.31349 -12805681.75949  21512445.7744   21512451.7994
  20467723.488   -15913942.10449 -12383726.74849  20467723.5304   20467727.8384
  20693220.113     -795305.91049   -585728.33849  20693220.2824   20693224.9134
  23713762.786    -9891950.92349  -7471564.72949  23713762.1644   23713768.9464
  20930947.625     3387945.70949   2644452.21249  20930947.6964   20930953.1474
  20079365.716    -6732257.64949  -5059420.74749  20079365.0054   20079371.0624
 97  1 12 19 11 29.9970000  0  7 22 19 18 29  3 14 16
  21442450.066     1541317.71249   1204676.67449  21442449.3614   21442454.9984
  21496302.637   -16534944.58549 -12871786.33749  21496302.5794   21496309.0544
  20451269.432   -16000409.32549 -12451103.80349  20451268.9114   20451274.0804
  20695901.223     -781216.69549   -574749.76149  20695901.1464   20695905.9684
  23695979.356    -9985403.03249  -7544384.50149  23695980.0344   23695986.0484
  20941812.845     3445042.63349   2688943.28849  20941812.5954   20941818.2404
  20079970.475    -6729079.90049  -5056944.60549  20079969.9264   20079975.8224
 97  1 12 19 11 59.9970000  0  7 22 19 18 29  3 14 16
  21451899.569     1590975.24249   1243370.82049  21451898.9394   21451904.4514
  21480188.733   -16619623.74249 -12937770.05749  21480188.2854   21480194.8154
  20434853.041   -16086678.21849 -12518326.31549  20434852.3364   20434857.2154
  20698635.713     -766846.94949   -563552.58449  20698635.5834   20698640.5484
  23678217.230   -10078743.64649  -7617117.41949  23678217.0014   23678224.4264
  20952741.568     3502473.29249   2733694.40549  20952741.4694   20952746.8954
  20080674.748    -6725378.94849  -5054060.77349  20080674.1994   20080680.1984
 97  1 12 19 12 29.9970000  0  7 22 19 18 29  3 14 16
  21461425.443     1641033.70149   1282377.38049  21461424.8454   21461430.2434
  21464106.735   -16704134.75549 -13003622.76449  21464106.3084   21464112.5884
  20418476.266   -16172738.37549 -12585386.17349  20418476.2034   20418480.6284
  20701424.194     -752193.43449   -552134.28949  20701424.0424   20701428.9634
  23660477.566   -10171966.27549  -7689758.37849  23660476.3934   23660484.2344
  20963732.376     3560230.17749   2778699.72949  20963732.5204   20963737.8594
  20081478.395    -6721155.93549  -5050770.14749  20081477.8224   20081483.7244
 97  1 12 19 12 59.9970000  0  7 22 19 18 29  3 14 16
  21471021.100     1691458.83849   1321669.65849  21471020.2424   21471026.1634
  21448052.968   -16788497.37149 -13069359.83749  21448052.3324   21448058.4264
  20402134.686   -16258614.16149 -12652302.37749  20402134.4264   20402138.6474
  20704262.298     -737279.14049   -540512.79749  20704262.2674   20704266.7624
  23642755.380   -10265097.25949  -7762327.94649  23642754.0124   23642762.0014
  20974781.666     3618293.59649   2823943.91149  20974781.5814   20974786.5344
  20082374.909    -6716444.91549  -5047099.25849  20082374.3224   20082380.3074
 97  1 12 19 13 29.9970000  0  7 22 19 18 29  3 14 16
  21480688.834     1742262.73349   1361257.08349  21480688.2494   21480694.0784
  21432027.916   -16872709.09749 -13134979.32449  21432027.5864   21432033.6294
  20385830.228   -16344294.87449 -12719066.56449  20385829.6444   20385834.7874
  20707151.238     -722097.64049   -528683.07849  20707151.3374   20707156.3844
  23625053.065   -10358122.12549  -7834814.80049  23625052.8564   23625058.0524
  20985894.409     3676691.32049   2869448.59049  20985893.8684   20985899.7364
  20083367.915    -6711226.63549  -5043033.09049  20083367.4144   20083373.3204
 97  1 12 19 13 59.9970000  0  7 22 19 18 29  3 14 16
  21490454.018     1793578.81749   1401243.59149  21490453.4194   21490459.2904
  21416063.005   -16956605.02149 -13200352.75649  21416063.0084   21416068.5544
  20369594.146   -16429616.33049 -12785550.82349  20369593.9044   20369598.5454
  20710120.685     -706493.21549   -516523.81849  20710120.6924   20710125.5894
  23607403.632   -10450870.99149  -7907086.59049  23607403.2054   23607410.7844
  20997099.819     3735576.14949   2915332.82349  20997099.5104   20997105.0194
  20084489.684    -6705331.97349  -5038439.87949  20084489.2974   20084495.0474
 97  1 12 19 14 29.9970000  0  7 22 19 18 29  3 14 16
  21500288.317     1845258.19549   1441513.20149  21500287.8704   21500293.0014
  21400134.666   -17040309.13949 -13265576.71749  21400134.1054   21400140.5394
  20353398.977   -16514722.37049 -12851867.21849  20353398.7554   20353403.0474
  20713143.408     -690608.73949   -504146.32949  20713143.0794   20713148.2514
  23589783.385   -10543465.88649  -7979238.38949  23589782.1844   23589789.9944
  21008373.186     3794818.38149   2961495.55849  21008372.9664   21008378.3804
  20085714.620    -6698895.03649  -5033424.11349  20085714.1594   20085719.7844
 97  1 12 19 14 59.9970000  0  7 22 19 18 29  3 14 16
  21510202.191     1897355.80849   1482108.71549  21510201.5274   21510206.9574
  21384253.362   -17123765.85349 -13330607.90949  21384253.4694   21384259.3554
  20337255.482   -16599557.07149 -12917972.18549  20337254.8714   20337259.9584
  20716230.279     -674386.81849   -491505.89849  20716230.2224   20716234.9264
  23572208.286   -10635822.50949  -8051204.56649  23572206.6714   23572215.9004
  21019728.230     3854489.44649   3007992.44749  21019728.1154   21019733.5734
  20087054.733    -6691853.09949  -5027936.92149  20087054.3524   20087059.8584
 97  1 12 19 15 29.9970000  0  7 22 19 18 29  3 14 16
  21520182.532     1949802.73749   1522976.41049  21520181.7684   21520187.4634
  21368405.089   -17207049.11949 -13395503.93849  21368404.6414   21368411.4604
  20321152.470   -16684179.07849 -12983911.41849  20321151.9394   20321156.7364
  20719370.104     -657887.03049   -478648.94549  20719370.3084   20719374.6574
  23554669.244   -10727990.26349  -8123023.56549  23554667.6734   23554677.3514
  21031150.171     3914511.68949   3054762.98049  21031150.1184   21031155.4124
  20088497.047    -6684273.80649  -5022031.00849  20088496.7434   20088502.5054
 97  1 12 19 15 59.9970000  0  7 22 19 18 29  3 14 16
  21530219.108     2002544.87349   1564074.14449  21530218.6704   21530224.2714
  21352582.779   -17290195.80849 -13460293.53149  21352582.3154   21352588.9414
  20305080.632   -16768637.16049 -13049722.91449  20305080.3954   20305085.0734
  20722553.574     -641158.19449   -465613.51749  20722554.1044   20722558.4584
  23537159.708   -10820003.19649  -8194721.91749  23537159.2844   23537166.5374
  21042628.282     3974829.30949   3101763.67649  21042628.1524   21042633.5464
  20090030.644    -6676214.97949  -5015751.43549  20090030.0924   20090035.9514
 97  1 12 19 16 29.9970000  0  7 22 19 18 29  3 14 16
  21540304.791     2055545.22549   1605373.08549  21540304.0784   21540309.7404
  21336776.034   -17373260.73449 -13525019.43649  21336775.8174   21336781.9984
  20289027.621   -16852996.04149 -13115457.10449  20289027.3494   20289031.9984
  20725770.572     -624253.17949   -452440.79649  20725770.6984   20725775.2894
  23519668.042   -10911923.05849  -8266347.72549  23519667.2634   23519675.3944
  21054153.919     4035397.16049   3148959.36149  21054153.8234   21054159.2754
  20091643.968    -6667736.85449  -5009145.12849  20091643.4854   20091649.2144
 97  1 12 19 16 59.9970000  0  7 22 19 18 29  3 14 16
  21550484.766     2109041.47349   1647058.44049  21550483.8304   21550489.4984
  21321028.570   -17456014.26049 -13589502.68849  21321028.0794   21321034.3644
  20273040.204   -16937010.36649 -13180922.81049  20273039.5674   20273044.6174
  20729068.183     -606924.26749   -438937.77349  20729067.7854   20729072.9674
  23502235.845   -11003529.96549  -8337729.68649  23502236.6104   23502243.7744
  21065769.968     4096439.65049   3196524.89149  21065769.8214   21065775.4634
  20093382.692    -6658599.99249  -5002025.52449  20093382.3114   20093387.8554
 97  1 12 19 17 29.9970000  0  7 22 19 18 29  3 14 16
  21560716.451     2162809.60649   1688955.66349  21560715.6274   21560721.3804
  21305298.823   -17538674.64649 -13653913.37749  21305298.2994   21305304.1334
  20257075.870   -17020903.55749 -13246294.14049  20257075.5284   20257080.3424
  20732405.495     -589386.31749   -425271.87049  20732405.4044   20732410.3204
  23484818.494   -11095058.81249  -8409050.80549  23484817.3494   23484824.7544
  21077430.123     4157713.95949   3244271.05349  21077429.8594   21077435.8934
  20095205.796    -6649019.66149  -4994560.36849  20095205.4094   20095210.8944
 97  1 12 19 17 59.9970000  0  7 22 19 18 29  3 14 16
  21571015.494     2216931.63349   1731128.64349  21571014.9674   21571020.8474
  21289603.262   -17621155.21049 -13718183.93449  21289603.0544   21289608.7344
  20241149.103   -17104599.32849 -13311511.62749  20241149.0544   20241153.5574
  20735797.740     -571559.89149   -411381.17149  20735797.8564   20735802.3124
  23467430.856   -11186431.20449  -8480250.00349  23467430.6764   23467437.6304
  21089151.365     4219309.72049   3292267.70549  21089150.8154   21089157.1074
  20097131.108    -6638902.64349  -4986677.00649  20097130.4364   20097136.3334
 97  1 12 19 18 29.9970000  0  7 22 19 18 29  3 14 16
  21581368.155     2271335.25149   1773521.04049  21581367.8804   21581373.0274
  21273926.303   -17703537.82549 -13782378.16549  21273925.7384   21273931.7444
  20225247.597   -17188162.17049 -13376625.51949  20225247.5224   20225252.4744
  20739230.996     -553518.24349   -397322.76949  20739231.1994   20739235.7944
  23450058.817   -11277722.00349  -8551385.62249  23450058.5424   23450066.9174
  21100917.126     4281139.13649   3340446.42449  21100917.0994   21100922.8864
  20099143.955    -6628325.23449  -4978434.89249  20099143.3634   20099149.1104
 97  1 12 19 18 59.9970000  0  7 22 19 18 29  3 14 16
  21591795.659     2326131.83949   1816219.64749  21591794.8114   21591800.3364
  21258287.174   -17785721.78249 -13846417.61749  21258287.0044   21258292.6144
  20209394.254   -17271472.15849 -13441542.38549  20209393.7484   20209398.4404
  20742726.162     -535151.67949   -383011.19249  20742726.0904   20742730.8994
  23432725.992   -11368806.26449  -8622360.29249  23432724.7824   23432733.5684
  21112747.999     4343310.78749   3388891.82849  21112747.7494   21112753.5774
  20101264.511    -6617181.54149  -4969751.52149  20101264.0344   20101269.8984
 97  1 12 19 19 29.9970000  0  7 22 19 18 29  3 14 16
  21602317.345     2381423.15149   1859303.76049  21602316.3284   21602322.0174
  21242704.820   -17867607.87449 -13910224.96649  21242704.5724   21242710.3774
  20193606.600   -17354436.88949 -13506190.22449  20193605.8384   20193610.9494
  20746300.216     -516370.30549   -368376.38449  20746300.3654   20746305.1734
  23415453.701   -11459572.48449  -8693087.13549  23415453.3494   23415460.9974
  21124664.525     4405932.51649   3437687.93249  21124664.3194   21124670.2394
  20103511.078    -6605375.76449  -4960552.23949  20103510.5294   20103516.3894
 97  1 12 19 19 59.9970000  0  7 22 19 18 29  3 14 16
  21612913.832     2437108.12949   1902694.62049  21612913.4514   21612918.8984
  21227160.538   -17949293.86149 -13973876.37749  21227160.2734   21227165.7544
  20177870.055   -17437132.74749 -13570628.54949  20177869.6424   20177874.4334
  20749934.534     -497272.23249   -353494.79349  20749934.5994   20749939.4324
  23398225.169   -11550108.77949  -8763634.82549  23398224.8764   23398232.5884
  21136648.630     4468909.29649   3486760.69549  21136648.4334   21136654.0664
  20105864.982    -6593006.06049  -4950913.53249  20105864.3504   20105870.0754
 97  1 12 19 20 29.9970000  0  8 22 19 18 29  3 27 14 16
  21623581.745     2493168.42749   1946377.94849  21623580.7574   21623586.9264
  21211651.951   -18030792.31949 -14037381.65949  21211651.4094   21211657.2924
  20162184.331   -17519561.62749 -13634858.83049  20162184.1704   20162188.7144
  20753627.737     -477864.12749   -338371.61349  20753627.3834   20753632.6814
  23381038.359   -11640426.35949  -8834012.06449  23381037.3854   23381045.1444
  24291781.849    -6020849.50949  -4670971.58649  24291781.2704   24291787.9244
  21148695.255     4532214.68949   3536089.53349  21148695.1734   21148701.3504
  20108320.803    -6580100.39949  -4940857.19249  20108320.2504   20108326.3594
 97  1 12 19 20 59.9970000  0  8 22 19 18 29  3 27 14 16
  21634324.020     2549619.72349   1990365.94249  21634322.9804   21634329.0734
  21196185.852   -18112067.35049 -14100712.83749  21196185.8664   21196191.1284
  20146555.544   -17601691.53749 -13698856.15149  20146555.1204   20146560.3034
  20757387.484     -458106.21649   -322975.86149  20757387.4404   20757392.4104
  23363898.076   -11730499.03949  -8904198.48949  23363897.5304   23363905.1924
  24271731.856    -6126212.41249  -4753072.51649  24271731.0904   24271738.7954
  21160812.061     4595888.55949   3585705.48649  21160812.3044   21160817.6184
  20110884.687    -6566627.19349  -4930358.62149  20110884.4644   20110890.0244
 97  1 12 19 21 29.9970000  0  8 22 19 18 29  3 27 14 16
  21645131.083     2606410.82949   2034618.73249  21645130.8584   21645135.5394
  21180758.820   -18193136.91949 -14163883.91249  21180758.4864   21180764.5244
  20130977.265   -17683556.01249 -13762646.64449  20130976.5854   20130981.4684
  20761208.288     -438027.89849   -307330.43449  20761208.3854   20761213.1914
  23346799.961   -11820350.02349  -8974212.14949  23346799.4974   23346807.5224
  24251695.819    -6231502.18849  -4835116.47149  24251695.2714   24251702.6534
  21172989.404     4659880.54549   3635569.32649  21172989.3344   21172995.4644
  20113549.210    -6552625.46449  -4919448.20449  20113548.5104   20113554.3514
 97  1 12 19 21 59.9970000  0  8 22 19 18 29  3 27 14 16
  21655996.906     2663510.58649   2079112.02149  21655996.6264   21656001.8834
  21165368.650   -18274012.66249 -14226903.94949  21165368.1014   21165374.2444
  20115447.796   -17765163.86249 -13826237.17049  20115447.3364   20115451.9844
  20765088.789     -417635.98149   -291440.65049  20765089.0484   20765093.6914
  23329744.560   -11909976.15949  -9044050.58949  23329744.3944   23329751.8254
  24231666.971    -6336754.52249  -4917131.27949  24231666.1074   24231673.1064
  21185226.010     4724184.05149   3685675.91149  21185226.0834   21185231.8084
  20116309.713    -6538118.87849  -4908144.39249  20116309.1194   20116315.1534
 97  1 12 19 22 29.9970000  0  8 22 19 18 29  3 27 14 16
  21666916.052     2720890.65449   2123823.73549  21666915.2474   21666921.1244
  21150011.133   -18354716.92349 -14289790.36149  21150011.0824   21150016.5504
  20099959.169   -17846556.95449 -13889660.35149  20099959.2784   20099963.8484
  20769021.635     -396968.92249   -275336.46549  20769021.1864   20769026.3674
  23312726.121   -11999408.22849  -9113737.82749  23312725.4464   23312733.0154
  24211637.940    -6442007.95849  -4999146.98049  24211637.2724   24211644.6474
  21197517.384     4788775.18849   3736006.62349  21197517.4244   21197523.1144
  20119158.817    -6523146.84049  -4896477.89549  20119158.3174   20119164.4994
 97  1 12 19 22 59.9970000  0  8 22 19 18 29  3 27 14 16
  21677889.736     2778557.76549   2168759.11549  21677888.7604   21677894.3724
  21134685.762   -18435252.51249 -14352545.34049  21134685.0924   21134690.8224
  20084508.917   -17927748.69749 -13952926.62649  20084508.5744   20084513.2144
  20773003.325     -376044.69449   -259031.89249  20773003.2394   20773008.3604
  23295746.744   -12088634.86049  -9183264.98949  23295746.4904   23295753.2514
  24191607.583    -6547268.39149  -5081168.14049  24191607.2094   24191614.2834
  21209863.231     4853652.76649   3786560.53649  21209862.7284   21209869.1244
  20122096.954    -6507706.81549  -4884446.73049  20122096.2834   20122102.3184
 97  1 12 19 23 29.9970000  0  8 22 19 18 29  3 27 14 16
  21688937.785     2836615.56649   2213998.93149  21688937.1614   21688942.5204
  21119409.225   -18515531.25149 -14415100.18349  21119408.7184   21119414.9004
  20069114.742   -18008645.33049 -14015962.95149  20069114.0514   20069118.9514
  20777048.460     -354787.45549   -242467.82549  20777048.3994   20777053.2064
  23278826.533   -12177551.34849  -9252550.45149  23278825.3954   23278832.7554
  24171592.980    -6652446.15649  -5163124.90549  24171591.6554   24171598.2974
  21222280.008     4918903.23749   3837405.01249  21222279.6524   21222286.0404
  20125142.306    -6491703.60649  -4871976.71949  20125141.7244   20125147.7074
 97  1 12 19 23 59.9970000  0  8 22 19 18 29  3 27 14 16
  21700057.894     2895052.03649   2259533.81649  21700056.9734   21700063.0484
  21104174.961   -18595588.10949 -14477482.12749  21104174.6144   21104180.4784
  20053774.181   -18089260.33549 -14078779.83149  20053773.6114   20053778.4764
  20781151.091     -333227.66049   -225668.01349  20781151.2684   20781156.4054
  23261957.828   -12266196.42749  -9321624.46249  23261956.9424   23261963.3864
  24151592.943    -6757547.34649  -5245021.97049  24151591.9614   24151598.8984
  21234764.217     4984507.93449   3888525.51249  21234763.9994   21234770.0924
  20128293.072    -6475146.65949  -4859075.22949  20128292.8434   20128298.6554
 97  1 12 19 24 29.9970000  0  8 22 19 18 29  3 27 14 16
  21711247.473     2953853.68649   2305353.25449  21711246.1574   21711252.1914
  21088975.373   -18675462.59449 -14539721.96249  21088974.9264   21088980.7314
  20038480.318   -18169630.12449 -14141405.62949  20038480.0594   20038484.5654
  20785303.021     -311409.37249   -208666.77649  20785303.0944   20785307.7384
  23245131.005   -12354621.51449  -9390527.04649  23245130.4614   23245136.7684
  24131603.417    -6862591.88249  -5326874.84849  24131603.1494   24131609.4244
  21247305.264     5050411.58549   3939878.95549  21247305.5164   21247311.3294
  20131543.039    -6458068.27649  -4845767.42549  20131542.6834   20131548.5374
 97  1 12 19 24 59.9970000  0  8 22 19 18 29  3 27 14 16
  21722501.363     3012992.79949   2351435.67249  21722500.9364   21722506.5894
  21073802.824   -18755194.72349 -14601850.87349  21073802.4304   21073807.8874
  20023228.149   -18249780.63949 -14203860.55549  20023227.9684   20023232.6654
  20789501.011     -289349.12549   -191476.99549  20789501.1784   20789505.9614
  23228340.701   -12442854.53949  -9459279.97049  23228338.3364   23228347.1864
  24111619.374    -6967607.07149  -5408704.87249  24111619.7034   24111625.8864
  21259897.372     5116583.16749   3991441.17549  21259896.8904   21259903.3484
  20134888.957    -6440485.71749  -4832066.75449  20134888.2174   20134894.2544
 97  1 12 19 25 29.9970000  0  9 31 22 19 18 29  3 27 14 16
  23790768.570    -4184452.33349  -3228720.85049  23790767.4844   23790774.6684
  21733830.831     3072529.31749   2397827.74049  21733830.3024   21733835.9964
  21058671.230   -18834711.72649 -14663812.15149  21058670.8864   21058676.4574
  20008034.562   -18329623.50649 -14266075.76049  20008034.3364   20008038.8934
  20793762.149     -266957.26849   -174028.82649  20793762.1584   20793766.9854
  23211597.627   -12530839.57749  -9527839.67049  23211597.1164   23211604.5784
  24091657.419    -7072508.25149  -5490446.08949  24091657.6324   24091665.2494
  21272552.133     5183084.39949   4043260.27149  21272552.0894   21272557.9924
  20138344.960    -6422324.19249  -4817914.94349  20138344.4944   20138350.2164
 97  1 12 19 25 59.9970000  0  9 31 22 19 18 29  3 27 14 16
  23768672.948    -4300564.67949  -3319198.01949  23768672.3014   23768679.2014
  21745225.821     3132410.65249   2444488.48249  21745224.9044   21745230.6554
  21043573.064   -18914053.09349 -14725636.57449  21043572.6784   21043578.1274
  19992891.823   -18409199.11149 -14328082.71449  19992891.3694   19992896.2974
  20798082.436     -244254.08749   -156338.06649  20798082.5274   20798087.4804
  23194892.399   -12618625.82049  -9596244.45749  23194891.3314   23194898.8594
  24071711.804    -7177323.70049  -5572120.49349  24071712.1104   24071718.5064
  21285262.001     5249874.81649   4095304.69849  21285261.9704   21285267.9044
  20141900.244    -6403641.07849  -4803356.69949  20141899.7334   20141905.3914
 97  1 12 19 26 29.9970000  0  9 31 22 19 18 29  3 27 14 16
  23746561.823    -4416759.27949  -3409739.25049  23746560.9584   23746566.5494
  21756677.444     3192589.36749   2491380.96849  21756676.6764   21756682.3614
  21028504.424   -18993238.97549 -14787339.83849  21028503.7604   21028509.6224
  19977793.341   -18488542.18549 -14389908.47349  19977792.9224   19977797.8424
  20802458.554     -221257.51749   -138418.68249  20802458.2684   20802463.2054
  23178222.186   -12706227.55949  -9664505.48649  23178221.8514   23178229.5164
  24051775.635    -7282089.97349  -5653756.55549  24051775.6424   24051782.7124
  21298022.207     5316930.13349   4147555.54649  21298021.4074   21298028.0504
  20145547.578    -6384474.46249  -4788421.70149  20145547.2484   20145552.9774
 97  1 12 19 26 59.9970000  0  9 31 22 19 18 29  3 27 14 16
  23724438.149    -4533020.25549  -3500332.19849  23724436.4544   23724443.3274
  21768184.757     3253060.44649   2538501.27449  21768183.8204   21768189.4934
  21013470.053   -19072244.74749 -14848902.77249  21013469.6784   21013475.2624
  19962746.706   -18567612.50649 -14451521.69849  19962746.2784   19962750.9784
  20806896.431     -197936.25549   -120246.30149  20806896.5154   20806901.5784
  23161594.948   -12793604.01549  -9732590.99049  23161595.3014   23161601.9954
  24031852.429    -7386787.41349  -5735338.98149  24031851.8854   24031859.5064
  21310836.176     5384268.42749   4200026.89149  21310836.1554   21310841.9934
  20149291.202    -6364801.97149  -4773092.51249  20149290.6664   20149296.4954
 97  1 12 19 27 29.9970000  0  9 31 22 19 18 29  3 27 14 16
  23702301.222    -4649350.25949  -3590978.93749  23702301.0684   23702306.5354
  21779743.842     3313803.70949   2585833.64949  21779743.0984   21779748.6144
  20998470.336   -19151068.54149 -14910323.87549  20998469.5924   20998475.4094
  19947752.053   -18646409.71249 -14512922.10649  19947751.6794   19947756.3484
  20811394.052     -174301.31549   -101829.49749  20811393.8224   20811398.8364
  23145011.550   -12880750.44349  -9800497.22949  23145011.5024   23145017.5894
  24011940.540    -7491425.13849  -5816874.88749  24011940.8994   24011947.5264
  21323702.439     5451880.69049   4252711.72949  21323702.3184   21323708.4924
  20153124.322    -6344658.85149  -4757396.59949  20153123.6334   20153129.5114
 97  1 12 19 27 59.9970000  0  9 31 22 19 18 29  3 27 14 16
  23680154.961    -4765729.58649  -3681664.11449  23680154.2304   23680159.9614
  21791357.276     3374832.56949   2633388.58349  21791356.3084   21791362.5454
  20983506.804   -19229702.00149 -14971596.67549  20983505.8114   20983512.2734
  19932810.792   -18724926.77749 -14574104.22649  19932810.3834   19932815.1194
  20815951.882     -150350.18849    -83166.31749  20815952.1364   20815956.6144
  23128477.791   -12967635.89849  -9868200.11649  23128478.1584   23128485.0344
  23992039.868    -7596004.38549  -5898365.21949  23992038.9974   23992046.8534
  21336625.239     5519790.20249   4305628.18549  21336624.9624   21336631.3654
  20157047.597    -6324041.85449  -4741331.42649  20157046.9574   20157053.1474
 97  1 12 19 28 29.9970000  0  9 31 22 19 18 29  3 27 14 16
  23657999.287    -4882157.75349  -3772387.34749  23657999.1484   23658004.4744
  21803026.408     3436154.38549   2681171.78349  21803025.1904   21803031.5344
  20968580.501   -19308139.46949 -15032716.75349  20968579.8044   20968586.2924
  19917924.661   -18803153.84149 -14635060.37049  19917924.1584   19917928.9484
  20820569.233     -126086.39649    -64259.49749  20820569.3904   20820574.0694
  23111996.616   -13054244.37849  -9935687.18249  23111995.8084   23112003.2104
  23972148.932    -7700532.22449  -5979815.51549  23972148.8474   23972155.2524
  21349601.759     5587982.45349   4358764.95849  21349601.6584   21349608.0024
  20161065.178    -6302929.22949  -4724880.05849  20161064.5054   20161070.4164
 97  1 12 19 28 59.9970000  0  9 31 22 19 18 29  3 27 14 16
  23635833.948    -4998637.30449  -3863150.60049  23635833.8734   23635841.2044
  21814751.441     3497770.14449   2729184.01349  21814750.6124   21814756.3484
  20953687.362   -19386403.19249 -15093701.45449  20953687.0444   20953692.3454
  19903091.355   -18881103.38949 -14695800.27149  19903090.7874   19903095.5274
  20825243.891     -101521.29249    -45117.89049  20825244.0244   20825248.3224
  23095565.628   -13140589.56049 -10002969.07549  23095564.9334   23095572.0124
  23952266.285    -7805016.15449  -6061231.57349  23952266.1314   23952273.0094
  21362627.248     5656431.87449   4412102.11649  21362627.0714   21362633.4104
  20165173.857    -6281337.88249  -4708055.64749  20165173.2814   20165179.1464
 97  1 12 19 29 29.9970000  0  9 31 22 19 18 29  3 27 14 16
  23613662.961    -5115146.83249  -3953937.19949  23613660.3234   23613669.3044
  21826535.167     3559693.69749   2777436.10249  21826534.4954   21826539.4644
  20938830.201   -19464478.09849 -15154539.02549  20938829.7804   20938835.3754
  19888308.402   -18958788.51049 -14756334.12849  19888308.0814   19888312.6104
  20829977.554      -76645.63349    -25734.28649  20829977.6874   20829982.4674
  23079185.084   -13226669.92549 -10070044.63149  23079184.9334   23079191.5484
  23932392.711    -7909452.76349  -6142610.74149  23932392.5894   23932398.6534
  21375704.986     5725155.53249   4465652.97149  21375704.8274   21375711.4654
  20169376.454    -6259253.56749  -4690847.11149  20169376.1314   20169381.8684
 97  1 12 19 29 59.9970000  0  9 31 22 19 18 29  3 27 14 16
  23591478.712    -5231724.64449  -4044777.00749  23591478.8594   23591482.9934
  21838370.151     3621886.77749   2825898.22849  21838369.2524   21838374.9744
  20924004.142   -19542389.23149 -15215248.98349  20924003.4544   20924009.1444
  19873568.067   -19036249.68149 -14816693.47949  19873567.5854   19873572.4034
  20834764.362      -51490.78449     -6133.14249  20834764.4134   20834769.0984
  23062847.531   -13312524.35949 -10136944.14149  23062846.3344   23062852.9864
  23912522.465    -8013870.56149  -6223975.24849  23912522.4054   23912528.5204
  21388825.556     5794104.75349   4519379.58449  21388825.2144   21388831.8454
  20173672.346    -6236678.74249  -4673256.36349  20173671.6784   20173677.5694
 97  1 12 19 30 29.9970000  0  9 31 22 19 18 29  3 27 14 16
  23569290.183    -5348325.08849  -4135634.48749  23569290.5604   23569296.4064
  21850263.234     3684385.09649   2874598.18149  21850262.5584   21850268.7734
  20909218.437   -19620087.67749 -15275793.21149  20909218.1104   20909224.1514
  19858879.315   -19113439.38049 -14876841.29149  19858878.8344   19858883.8354
  20839609.614      -26028.62249     13707.47049  20839609.7484   20839614.6554
  23046559.454   -13398118.07349 -10203640.49649  23046559.2694   23046565.2624
  23892664.780    -8118223.03149  -6305288.87449  23892664.3334   23892672.4174
  21401994.903     5863309.67949   4573305.45749  21401995.4574   21402001.0124
  20178070.119    -6213568.23849  -4655248.20849  20178069.6634   20178075.5374
 97  1 12 19 30 59.9970000  0  9 31 22 19 18 29  3 27 14 16
  23547097.793    -5464946.01649  -4226507.93449  23547096.8044   23547102.5424
  21862215.854     3747195.78149   2923541.53749  21862215.1634   21862221.1134
  20894474.400   -19697568.29049 -15336167.68449  20894474.0174   20894480.0844
  19844243.279   -19190352.11749 -14936773.28249  19844242.8474   19844247.8874
  20844513.498        -258.94049     33787.71649  20844513.8434   20844518.3434
  23030321.553   -13483448.46849 -10270131.66449  23030320.3814   23030327.3004
  23872820.337    -8222507.30749  -6386549.30349  23872818.3124   23872825.9424
  21415217.901     5932796.37849   4627450.90649  21415218.4034   21415224.1094
  20182568.953    -6189926.79749  -4636826.32249  20182568.1694   20182574.2684
 97  1 12 19 31 29.9970000  0  9 31 22 19 18 29  3 27 14 16
  23524901.741    -5581586.99149  -4317397.02649  23524901.1904   23524907.7064
  21874228.092     3810320.17749   2972729.35149  21874227.2484   21874232.3674
  20879773.860   -19774820.43849 -15396364.13749  20879773.6934   20879779.5664
  19829664.319   -19266965.03849 -14996471.65649  19829664.1194   19829668.8604
  20849476.414       25820.81549     54109.56249  20849476.4584   20849481.3334
  23014135.719   -13568504.72449 -10336409.22649  23014135.5754   23014141.9304
  23852990.332    -8326714.89349  -6467750.03149  23852989.4694   23852997.1224
  21428497.128     6002578.65549   4681826.65549  21428497.1104   21428503.3394
  20187171.745    -6165739.17549  -4617978.85449  20187171.2724   20187177.2224
 97  1 12 19 31 59.9970000  0  9 31 22 19 18 29  3 27 14 16
  23502692.951    -5698294.20649  -4408337.68149  23502693.0444   23502698.7604
  21886293.191     3873722.68249   3022133.89149  21886292.8454   21886297.5974
  20865104.848   -19851906.69549 -15456431.31749  20865104.9984   20865110.2364
  19815138.685   -19343297.75349 -15055951.68749  19815138.3954   19815143.0864
  20854487.497       52154.27249     74629.10649  20854487.6094   20854492.4864
  22997996.387   -13653317.44349 -10402496.99549  22997995.7994   22998003.4764
  23833167.099    -8430887.15449  -6548923.26049  23833166.7124   23833172.4604
  21441822.250     6072602.40949   4736390.56749  21441822.2554   21441828.3094
  20191867.276    -6141064.27949  -4598751.68549  20191866.7724   20191872.6104
 97  1 12 19 32 29.9970000  0  9 31 22 19 18 29  3 27 14 16
  23480452.764    -5815167.43049  -4499407.66449  23480451.2324   23480460.2694
  21898391.063     3937297.00749   3071672.31149  21898389.9504   21898396.0534
  20850441.434   -19928963.69649 -15516475.71149  20850441.1304   20850446.8284
  19800644.934   -19419463.29449 -15115301.45549  19800644.4794   19800649.2234
  20859525.154       78627.56349     95257.61049  20859524.9614   20859529.7774
  22981883.751   -13737989.26449 -10468474.98849  22981883.6934   22981890.6474
  23813328.008    -8535142.21449  -6630161.03549  23813327.8564   23813333.7964
  21455173.522     6142763.33449   4791061.37849  21455173.4234   21455179.8304
  20196628.578    -6116043.40249  -4579254.91749  20196628.0154   20196633.7144
 97  1 12 19 32 59.9970000  0  9 31 22 19 18 29  3 27 14 16
  23458212.280    -5932042.22949  -4590478.89349  23458211.0084   23458218.5294
  21910551.821     4001201.67349   3121468.14149  21910550.3124   21910557.0554
  20835813.983   -20005831.64349 -15576372.78449  20835813.8664   20835819.3614
  19786213.906   -19495298.69849 -15174393.97049  19786213.1904   19786218.2364
  20864625.770      105432.07449    116144.21549  20864625.3904   20864630.5364
  22965830.689   -13822349.06249 -10534209.86049  22965829.8074   22965837.9854
  23793503.794    -8639318.96449  -6711337.73549  23793502.7914   23793509.2234
  21468581.942     6213224.55949   4845966.18549  21468581.8804   21468587.5284
  20201485.771    -6090518.81449  -4559365.64849  20201485.5234   20201491.4064
 97  1 12 19 33 29.9970000  0  9 31 22 19 18 29  3 27 14 16
  23435973.250    -6048909.55149  -4681544.34249  23435973.2134   23435978.7844
  21922773.448     4065427.23749   3171514.03649  21922772.6404   21922778.3734
  20821225.989   -20082491.99249 -15636108.07349  20821225.1564   20821231.3214
  19771845.687   -19570804.02649 -15233229.28349  19771845.3964   19771850.1774
  20869790.311      132572.40549    137292.49149  20869790.3654   20869795.2014
  22949838.620   -13906387.54749 -10599694.36449  22949838.9074   22949843.5614
  23773696.446    -8743407.54749  -6792445.75149  23773696.0134   23773702.9114
  21482045.789     6283977.44049   4901098.26249  21482046.0094   21482051.5484
  20206439.581    -6064486.72449  -4539080.91849  20206438.9934   20206444.7704
 97  1 12 19 33 59.9970000  0  9 31 22 19 18 29  3 27 14 16
  23413740.916    -6165741.93549  -4772582.56449  23413740.6654   23413747.3024
  21935058.722     4129987.59649   3221820.80949  21935057.8954   21935063.4124
  20806683.948   -20158910.46349 -15695654.89849  20806683.4534   20806689.6464
  19757541.524   -19645972.83349 -15291802.37349  19757541.3694   19757546.0744
  20875022.347      160066.44349    158716.37849  20875021.8934   20875027.1514
  22933911.766   -13990083.76849 -10664912.17349  22933911.5334   22933917.6434
  23753909.937    -8847386.40649  -6873468.25649  23753909.6214   23753916.6524
  21495568.339     6355038.88649   4956470.78349  21495568.4484   21495574.2884
  20211491.535    -6037938.57149  -4518394.06649  20211490.8864   20211496.9754
 97  1 12 19 34 29.9970000  0  9 31 22 19 18 29  3 27 14 16
  23391501.020    -6282613.17749  -4863651.06249  23391500.2014   23391506.8014
  21947389.534     4194786.65749   3272313.58849  21947388.7194   21947395.0164
  20792176.642   -20235146.91749 -15755059.89449  20792176.3164   20792182.1584
  19743287.214   -19720879.96149 -15350171.55749  19743286.9574   19743291.5774
  20880312.275      187865.13149    180377.65249  20880312.0914   20880317.6404
  22918034.005   -14073522.76149 -10729929.52649  22918032.6664   22918040.1864
  23734132.233    -8951319.19349  -6954454.84849  23734131.9824   23734137.9864
  21509135.343     6426333.91849   5012025.31549  21509135.3154   21509141.2424
  20216628.595    -6010943.09049  -4497358.64149  20216628.0104   20216634.0464
 97  1 12 19 34 59.9970000  0  9 31 22 19 18 29  3 27 14 16
  23369259.254    -6399494.73049  -4954727.61649  23369259.4684   23369265.1674
  21959769.072     4259841.24549   3323005.47649  21959768.3194   21959774.1014
  20777713.765   -20311149.78849 -15814282.87049  20777713.0394   20777719.1564
  19729091.451   -19795479.34449 -15408300.94049  19729091.2444   19729095.9194
  20885668.262      216011.10449    202309.55549  20885668.2434   20885673.6444
  22902210.786   -14156674.03749 -10794722.72949  22902210.7294   22902216.6384
  23714370.568    -9055167.26149  -7035375.42849  23714370.5334   23714377.4064
  21522753.173     6497896.05749   5067787.97949  21522752.4884   21522759.1494
  20221860.365    -5983450.01749  -4475935.48649  20221859.8684   20221865.6744
 97  1 12 19 35 29.9970000  0  9 31 22 19 18 29  3 27 14 16
  23347006.676    -6516433.73149  -5045848.90449  23347006.3544   23347012.8124
  21972186.695     4325095.87549   3373853.23749  21972185.7224   21972191.7144
  20763282.404   -20386986.95349 -15873376.71949  20763281.8394   20763287.7084
  19714942.567   -19869832.35249 -15466238.34149  19714942.3894   19714946.9944
  20891075.307      244425.06049    224450.26649  20891074.8804   20891080.5604
  22886432.838   -14239588.10149 -10859331.04149  22886432.3534   22886438.2104
  23694615.587    -9158980.39049  -7116268.76349  23694615.4394   23694622.3064
  21536408.937     6569657.68249   5123706.09349  21536409.0544   21536414.9204
  20227174.134    -5955526.06649  -4454176.58249  20227173.7194   20227179.4814
 97  1 12 19 35 59.9970000  0  9 31 22 19 18 29  3 27 14 16
  23324724.912    -6633525.75349  -5137089.46249  23324724.2794   23324730.8384
  21984622.354     4390445.39149   3424774.96249  21984621.6534   21984627.0204
  20748857.903   -20462788.07049 -15932442.48249  20748857.5954   20748863.1904
  19700823.198   -19944030.14649 -15524054.79549  19700822.7944   19700827.3944
  20896514.986      273010.98049    246724.97849  20896514.2844   20896520.1394
  22870681.173   -14322363.30949 -10923831.16649  22870680.1784   22870686.9114
  23674846.362    -9262868.95849  -7197220.87249  23674846.0454   23674852.7534
  21550079.480     6641496.30149   5179684.18849  21550079.4404   21550085.4004
  20232548.857    -5927281.87349  -4432168.13649  20232548.1884   20232554.1704
 97  1 12 19 36 29.9970000  0  9 31 22 19 18 29  3 27 14 16
  23302456.957    -6750544.59049  -5228272.97149  23302456.2054   23302462.8994
  21997117.651     4456108.84449   3475941.30349  21997116.4034   21997122.4564
  20734478.726   -20538351.22949 -15991322.82849  20734478.4394   20734483.9614
  19686774.905   -20017854.29549 -15581580.09449  19686774.6694   19686779.3064
  20902029.281      301988.97649    269305.20549  20902029.0564   20902034.7504
  22854999.236   -14404772.81549 -10988046.32949  22854998.7544   22855005.4274
  23655102.730    -9366621.65449  -7278067.07849  23655101.5944   23655110.3974
  21563803.940     6713618.25149   5235883.08049  21563803.9694   21563809.5154
  20238028.560    -5898485.68049  -4409729.56049  20238028.0354   20238034.2214
 97  1 12 19 36 59.9970000  0  9 31 22 19 18 29  3 27 14 16
  23280208.489    -6867461.44249  -5319376.99849  23280207.7984   23280215.5644
  22009680.236     4522126.20549   3527383.40749  22009678.9064   22009685.0054
  20720147.516   -20613661.85449 -16050006.39649  20720147.1614   20720152.5994
  19672799.264   -20091296.96449 -15638808.12949  19672798.7654   19672803.6134
  20907616.798      331351.68749    292185.21549  20907616.5284   20907622.0244
  22839393.906   -14486778.92249 -11051947.15549  22839393.0874   22839400.4094
  23635386.645    -9470229.32849  -7358800.29249  23635386.0434   23635392.5644
  21577586.652     6786046.88449   5292320.93849  21577586.6584   21577593.0254
  20243616.208    -5869122.45649  -4386849.14549  20243615.5074   20243621.5734
 97  1 12 19 37 29.9970000  0  9 31 22 19 18 29  3 27 14 16
  23257966.801    -6984341.90849  -5410452.68649  23257966.0454   23257972.5764
  22022300.474     4588446.12149   3579061.27449  22022299.7794   22022305.7334
  20705849.605   -20688797.81049 -16108553.86749  20705849.1594   20705854.8184
  19658882.197   -20164431.47249 -15695796.04249  19658881.5894   19658886.2014
  20913261.336      361013.49649    315298.28349  20913261.5604   20913266.5124
  22823852.381   -14568450.00449 -11115586.91949  22823851.4564   22823858.4854
  23615683.854    -9573766.39849  -7439478.48449  23615681.0144   23615690.1414
  21591413.221     6858706.52149   5348938.79249  21591412.8764   21591419.7844
  20249297.049    -5839269.28249  -4363586.95449  20249296.4844   20249302.4394
 97  1 12 19 37 59.9970000  0  9 31 22 19 18 29  3 27 14 16
  23235706.765    -7101319.21149  -5501603.79949  23235707.2054   23235712.7864
  22034953.285     4654937.01649   3630872.38749  22034952.4604   22034959.0394
  20691563.431   -20763872.01649 -16167053.21849  20691562.6994   20691568.6314
  19645001.422   -20237375.09549 -15752635.21249  19645001.0194   19645005.5844
  20918941.732      390863.67949    338558.13549  20918941.8784   20918946.9614
  22808351.270   -14649907.60549 -11179060.31849  22808350.8974   22808357.8034
  23595969.546    -9677365.29949  -7520204.85749  23595969.5404   23595975.7964
  21605262.826     6931486.46349   5405650.39249  21605262.3284   21605269.0604
  20255050.249    -5809035.80649  -4340028.42349  20255049.5614   20255055.9544
 97  1 12 19 38 29.9970000  0  9 31 22 19 18 29  3 27 14 16
  23213466.769    -7218191.43949  -5592673.04649  23213466.1424   23213473.9924
  22047678.259     4721807.26349   3682979.07549  22047677.4804   22047683.0824
  20677330.981   -20838663.90149 -16225332.58849  20677330.8324   20677336.2414
  19631194.906   -20309929.15049 -15809170.81849  19631194.8574   19631199.3054
  20924695.077      421097.87749    362117.22049  20924694.9254   20924700.6604
  22792931.793   -14730937.81649 -11242200.68949  22792931.1324   22792939.2864
  23576284.564    -9780810.72249  -7600811.63849  23576284.1184   23576290.8594
  21619179.452     7004618.22449   5462636.15149  21619179.3844   21619186.0494
  20260915.245    -5778214.88049  -4316012.13249  20260914.4314   20260920.7824
 97  1 12 19 38 59.9960000  0  9 31 22 19 18 29  3 27 14 16
  23191214.955    -7335125.44449  -5683790.45249  23191214.2864   23191221.4064
  22060441.328     4788877.73249   3735241.78149  22060440.3354   22060446.5344
  20663123.088   -20913326.99749 -16283511.59649  20663122.4984   20663128.1604
  19617435.641   -20382234.73849 -15865512.81849  19617435.3424   19617439.9064
  20930490.032      451550.27649    385846.33649  20930490.1834   20930495.1894
  22777560.780   -14811712.91149 -11305142.26649  22777560.1134   22777567.3114
  23556598.512    -9884261.86949  -7681422.90849  23556597.9174   23556605.8444
  21633132.398     7077941.14549   5519770.86549  21633132.2944   21633138.8394
  20266857.329    -5746988.76749  -4291680.11149  20266856.5574   20266862.8514
 97  1 12 19 39 29.9960000  0  9 31 22 19 18 29  3 27 14 16
  23168981.575    -7451962.87349  -5774832.58849  23168981.2584   23168987.5434
  22073271.444     4856300.43249   3787778.94649  22073270.4334   22073277.1194
  20648970.579   -20987698.66849 -16341463.51749  20648970.2254   20648975.7644
  19603757.246   -20454115.05849 -15921523.43649  19603756.8924   19603761.5404
  20936360.307      482398.59949    409883.98249  20936360.2394   20936365.3144
  22762266.710   -14892084.05849 -11367769.06549  22762266.0214   22762272.9584
  23536941.894    -9987558.32449  -7761913.67849  23536941.1554   23536948.4534
  21647150.833     7151608.11549   5577173.66249  21647150.6194   21647156.6724
  20272908.105    -5715191.50449  -4266903.04749  20272907.8984   20272913.6114
 97  1 12 19 39 59.9960000  0  9 31 22 19 18 29  3 27 14 16
  23146734.908    -7568870.13349  -5865929.14549  23146734.6494   23146741.0914
  22086131.117     4923878.19349   3840436.93549  22086131.1704   22086136.3764
  20634839.952   -21061955.64449 -16399326.07349  20634839.5984   20634845.2954
  19590126.550   -20525745.06649 -15977339.01149  19590126.2284   19590130.6094
  20942273.373      513472.19949    434097.15749  20942273.6464   20942278.7604
  22747015.632   -14972228.74349 -11430219.40249  22747014.7394   22747021.6154
  23517282.259   -10090870.03849  -7842416.31549  23517281.6354   23517288.6804
  21661197.652     7225424.51149   5634692.89949  21661197.4254   21661203.3244
  20279032.594    -5683007.93949  -4241824.96349  20279032.3284   20279038.0864
 97  1 12 19 40 29.9960000  0  9 31 22 19 18 29  3 27 14 16
  23124487.901    -7685778.74249  -5957026.76049  23124487.7404   23124493.9304
  22099029.748     4991660.66549   3893254.45249  22099029.2004   22099034.3574
  20620739.082   -21136056.03249 -16457066.61249  20620738.6504   20620744.1684
  19576554.329   -20597067.61549 -16032914.99949  19576553.8444   19576558.4614
  20948238.020      544816.42449    458521.22249  20948238.3764   20948243.3444
  22731814.176   -15052112.90849 -11492466.71949  22731813.2234   22731820.1864
  23497630.356   -10194141.11049  -7922887.29849  23497630.1794   23497636.0554
  21675278.608     7299420.60849   5692352.16849  21675278.3174   21675284.5224
  20285238.112    -5650397.82849  -4216414.50449  20285237.4924   20285243.3104
 97  1 12 19 40 59.9960000  0  9 31 22 19 18 29  3 27 14 16
  23102265.113    -7802560.14249  -6048025.26149  23102264.2454   23102270.6074
  22111990.085     5059767.22549   3946324.51049  22111989.4384   22111994.8604
  20606689.371   -21209887.57849 -16514597.66549  20606689.0264   20606694.5194
  19563065.240   -20667953.33549 -16088150.60749  19563064.6524   19563069.4254
  20954278.722      576559.90349    483256.38649  20954279.0744   20954283.4604
  22716683.903   -15131622.35049 -11554422.05249  22716683.6574   22716690.1624
  23478008.853   -10297253.19149  -8003234.38149  23478009.0934   23478015.3014
  21689412.217     7373693.38549   5750227.02449  21689411.7034   21689418.4004
  20291547.354    -5617242.71449  -4190579.37449  20291546.8344   20291553.0704
 97  1 12 19 41 29.9960000  0  9 31 22 19 18 29  3 27 14 16
  23080019.135    -7919463.59649  -6139118.84849  23080018.3564   23080025.6144
  22124963.834     5127944.61849   3999449.72949  22124963.3774   22124968.6204
  20592639.326   -21283720.81949 -16572130.03549  20592638.9834   20592644.5164
  19549607.096   -20738676.30249 -16143259.39149  19549606.6694   19549611.2244
  20960346.803      608447.28449    508103.69949  20960347.2644   20960351.8494
  22701579.488   -15210996.05049 -11616271.61849  22701579.2744   22701586.7614
  23458369.228   -10400460.29549  -8083655.46949  23458369.6294   23458374.5004
  21703547.881     7447976.93149   5808110.26349  21703547.8764   21703553.6704
  20297911.392    -5583799.76949  -4164519.95449  20297910.7394   20297917.1704
 97  1 12 19 41 59.9960000  0  9 31 22 19 18 29  3 27 14 16
  23057792.191    -8036266.56549  -6230134.14649  23057791.7434   23057798.9934
  22137990.752     5196401.69149   4052792.87849  22137990.0184   22137995.7084
  20578627.714   -21357352.26249 -16629505.16249  20578627.4634   20578632.8644
  19536220.511   -20809023.03849 -16198075.01349  19536220.0664   19536224.6524
  20966483.786      640697.02249    533233.36549  20966484.0454   20966488.7394
  22686544.673   -15290004.99949 -11677836.94149  22686543.8134   22686550.7874
  23438752.873   -10503545.79049  -8163981.78249  23438751.6904   23438759.3764
  21717726.076     7522483.71149   5866167.44049  21717726.0214   21717732.3914
  20304370.764    -5549855.70649  -4138070.05649  20304370.2174   20304376.1604
 97  1 12 19 42 29.9960000  0  9 31 22 19 18 29  3 27 14 16
  23035542.766    -8153188.29149  -6321241.94449  23035542.7664   23035547.8994
  22151031.278     5264929.55249   4106191.18949  22151030.5114   22151035.6634
  20564616.097   -21430983.77549 -16686880.34849  20564615.6734   20564621.1734
  19522866.607   -20879198.14349 -16252756.89449  19522866.2314   19522870.8874
  20972647.662      673088.64749    558473.58349  20972647.2084   20972652.1744
  22671542.491   -15368842.02049 -11739268.31149  22671542.7084   22671548.8004
  23419116.924   -10606732.70449  -8244387.13549  23419116.6634   23419122.8614
  21731909.272     7597016.60649   5924244.98549  21731909.4724   21731915.2154
  20310884.963    -5515623.34849  -4111395.50249  20310884.5274   20310890.4984
 97  1 12 19 42 59.9960000  0  9 31 22 19 18 29  3 27 14 16
  23013320.423    -8269967.22449  -6412238.48749  23013319.1814   23013326.8784
  22164138.621     5333808.51249   4159863.10749  22164138.3964   22164142.9534
  20550659.256   -21504327.26649 -16744031.09449  20550658.9554   20550664.5424
  19509598.354   -20948923.22049 -16307088.10349  19509597.8964   19509602.5384
  20978891.329      705899.93449    584040.81849  20978891.1964   20978896.4534
  22656629.839   -15447208.71749 -11800333.20449  22656629.6524   22656636.4884
  23399513.549   -10709748.04249  -8324658.77649  23399512.4854   23399519.2824
  21746152.753     7671866.18949   5982569.30449  21746152.7624   21746158.9074
  20317507.169    -5480823.77149  -4084278.96749  20317506.5534   20317512.9494
 97  1 12 19 43 29.9960000  0  9 31 22 19 18 29  3 27 14 16
  22991117.344    -8386644.33249  -6503155.70349  22991116.2214   22991125.8954
  22177303.446     5402990.09049   4213770.81249  22177302.6734   22177308.0764
  20536751.406   -21577413.68549 -16800981.52349  20536751.1634   20536756.6884
  19496405.283   -21018253.15749 -16361111.41249  19496404.9604   19496409.6424
  20985205.527      739081.53049    609896.61349  20985205.4554   20985211.0004
  22641799.054   -15525144.27849 -11861062.14349  22641798.7094   22641805.6384
  23379932.175   -10812648.63649  -8404841.01249  23379931.3304   23379939.3014
  21760448.711     7746991.68049   6041108.61049  21760448.7254   21760454.6354
  20324228.259    -5445504.05349  -4056757.13449  20324227.5704   20324233.7914
 97  1 12 19 43 59.9960000  0  9 31 22 19 18 29  3 27 14 16
  22968912.796    -8503329.87549  -6594079.47249  22968912.5734   22968918.9544
  22190507.278     5472376.96949   4267838.47449  22190506.6424   22190511.9274
  20522877.852   -21650320.02449 -16857791.63349  20522877.7574   20522882.8464
  19483269.963   -21087279.76949 -16414898.36449  19483269.4634   19483274.4684
  20991569.148      772522.49149    635954.49449  20991569.2094   20991574.3344
  22627031.062   -15602750.29149 -11921534.29649  22627030.7534   22627037.2894
  23360350.735   -10915550.22149  -8485024.05649  23360350.3264   23360357.9934
  21774779.103     7822298.23149   6099789.00349  21774779.1644   21774784.7344
  20331029.275    -5409764.65949  -4028908.28249  20331028.9024   20331034.7284
 97  1 12 19 44 29.9960000  0  9 31 22 19 18 29  3 27 14 16
  22946701.995    -8620048.29849  -6685028.85549  22946700.5004   22946708.6574
  22203749.269     5541964.29749   4322062.32749  22203748.2354   22203753.9264
  20509038.900   -21723044.60249 -16914460.10149  20509038.5884   20509044.0674
  19470186.888   -21156031.63049 -16468471.22549  19470186.4904   19470191.0574
  20997979.143      806206.97549    662202.13749  20997979.5214   20997984.4294
  22612321.334   -15680050.63449 -11981768.25949  22612320.6564   22612326.2764
  23340765.378   -11018472.02649  -8565222.85449  23340765.1254   23340771.2264
  21789142.613     7897778.67949   6158604.89049  21789142.5214   21789148.4344
  20337905.683    -5373629.11049  -4000750.72649  20337905.0614   20337910.9744
 97  1 12 19 44 59.9960000  0  9 31 22 19 18 29  3 27 14 16
  22924481.491    -8736817.42949  -6776017.75949  22924480.9924   22924487.3944
  22217021.092     5611708.12549   4376408.15549  22217020.4074   22217025.8494
  20495226.372   -21795629.78049 -16971019.94349  20495225.7104   20495231.4314
  19457147.105   -21224555.89449 -16521866.73549  19457146.6884   19457151.3554
  21004431.992      840116.37749    688625.05649  21004432.1944   21004437.2314
  22597661.970   -15757086.33249 -12041795.99849  22597661.1654   22597667.1684
  23321171.830   -11121436.81449  -8645455.14749  23321171.5294   23321178.2124
  21803529.254     7973380.34949   6217515.24949  21803529.1714   21803535.0554
  20344849.754    -5337137.71749  -3972315.89949  20344849.1544   20344855.3704
 97  1 12 19 45 29.9960000  0  9 31 22 19 18 29  3 27 14 16
  22902263.635    -8853572.86749  -6866995.98749  22902262.8034   22902268.9254
  22230328.092     5681636.96249   4430898.17249  22230327.5644   22230332.6894
  20481446.229   -21868044.87249 -17027447.26049  20481446.0204   20481451.5854
  19444156.674   -21292820.93349 -16575060.25549  19444156.3814   19444160.7734
  21010935.366      874291.63949    715255.13349  21010935.3824   21010941.0694
  22583060.111   -15833820.10149 -12101588.48149  22583059.2334   22583067.2584
  23301578.043   -11224403.01949  -8725688.53249  23301577.4844   23301585.0504
  21817944.151     8049131.02549   6276541.70349  21817943.6424   21817950.0774
  20351868.269    -5300255.27449  -3943576.35649  20351867.8654   20351873.9444
 97  1 12 19 45 59.9960000  0  9 31 22 19 18 29  3 27 14 16
  22880057.561    -8970266.55449  -6957926.12149  22880057.6864   22880064.0264
  22243679.028     5751796.72849   4485568.12249  22243678.1924   22243683.9044
  20467705.232   -21940254.15949 -17083714.20349  20467704.8234   20467710.2504
  19431227.024   -21360766.64849 -16628004.94449  19431226.8124   19431231.2134
  21017499.679      908787.68849    742135.17549  21017499.8484   21017505.5464
  22568525.922   -15910198.16249 -12161103.80449  22568525.0854   22568532.6314
  23281997.116   -11327301.23149  -8805868.94249  23281997.0494   23282003.7294
  21832396.274     8125078.09649   6335721.21249  21832395.8274   21832402.0294
  20358970.603    -5262932.47349  -3914493.66449  20358969.9484   20358976.2734
 97  1 12 19 46 29.9960000  0  9 31 22 19 18 29  3 27 14 16
  22857891.581    -9086750.08249  -7048692.48049  22857889.8624   22857897.4374
  22257094.670     5822296.48849   4540502.97349  22257094.2044   22257100.2734
  20454021.919   -22012160.15349 -17139744.81749  20454021.3064   20454026.9864
  19418380.349   -21428276.47249 -16680609.98349  19418379.8054   19418384.5494
  21024148.962      943729.75249    769362.75549  21024148.8554   21024153.9544
  22554082.123   -15986100.04849 -12220248.05649  22554080.3954   22554087.8294
  23262456.111   -11429990.52349  -8885886.58349  23262455.4974   23262463.2654
  21846906.148     8201327.92049   6395136.62849  21846906.3814   21846911.9114
  20366178.466    -5225054.88649  -3884978.68849  20366177.9184   20366184.0104
 97  1 12 19 46 59.9960000  0  9 31 22 19 18 29  3 27 14 16
  22835770.310    -9202997.86449  -7139275.11649  22835769.2564   22835777.3384
  22270575.725     5893139.32749   4595705.17249  22270574.9724   22270580.7334
  20440396.091   -22083764.38349 -17195540.28649  20440395.5894   20440401.2094
  19405623.322   -21495314.73749 -16732847.56949  19405622.8274   19405627.6554
  21030882.262      979113.25049    796934.31849  21030881.9234   21030887.2434
  22539732.577   -16061506.77549 -12279006.48949  22539732.5984   22539738.7714
  23242959.942   -11532444.12949  -8965720.55549  23242960.1444   23242966.8074
  21861474.773     8277886.14349   6454792.34949  21861474.7964   21861481.2574
  20373495.473    -5186603.96049  -3855016.94549  20373495.2834   20373501.0454
 97  1 12 19 47 29.9960000  0  9 31 22 19 18 29  3 27 14 16
  22813642.607    -9319278.81549  -7229883.56649  22813641.3954   22813648.9094
  22284072.712     5964066.43849   4650973.03749  22284070.9994   22284077.8904
  20426778.277   -22155325.97749 -17251302.53449  20426777.8164   20426783.4004
  19392909.998   -21562123.48949 -16784906.31349  19392909.3784   19392914.0334
  21037646.730     1014660.92749    824633.81649  21037646.5304   21037651.8814
  22525427.999   -16136677.10749 -12337580.69749  22525427.4614   22525434.2044
  23223458.194   -11634927.10249  -9045577.40749  23223457.7454   23223464.1204
  21876053.931     8354499.59349   6514491.09549  21876053.7634   21876060.0614
  20380872.709    -5147836.80549  -3824808.79249  20380872.0064   20380878.1334
 97  1 12 19 47 59.9960000  0  9 31 22 19 18 29  3 27 14 16
  22791527.789    -9435493.12649  -7320440.07149  22791526.9644   22791533.7844
  22297607.294     6035191.70749   4706395.32049  22297605.5194   22297612.8114
  20413188.302   -22226741.64849 -17306951.08249  20413188.0144   20413193.1394
  19380262.829   -21628584.54349 -16836694.12449  19380262.3944   19380266.8754
  21044462.007     1050474.88849    852540.79949  21044462.2224   21044467.2934
  22511188.268   -16211506.82149 -12395889.48449  22511188.5484   22511194.2464
  23203970.848   -11737334.51949  -9125375.37649  23203970.2164   23203976.5284
  21890663.309     8431272.44449   6574314.05049  21890662.6804   21890669.5544
  20388328.652    -5108655.68849  -3794278.06949  20388328.2044   20388334.0064
 97  1 12 19 48 29.9960000  0  9 31 22 19 18 29  3 27 14 16
  22769426.114    -9551638.21149  -7410942.60149  22769424.7954   22769431.8794
  22311177.061     6106500.95349   4761960.98849  22311176.5844   22311181.8134
  20399625.557   -22298014.17649 -17362488.09149  20399625.0734   20399630.5484
  19367681.209   -21694701.56949 -16888213.85649  19367680.8844   19367685.5924
  21051326.054     1086545.46749    880647.73249  21051325.7604   21051331.1674
  22497010.297   -16286012.23049 -12453945.59249  22497009.5644   22497015.5844
  23184493.589   -11839687.86849  -9205131.20049  23184493.4794   23184498.8834
  21905301.095     8508195.18249   6634253.81049  21905300.8864   21905307.3294
  20395861.180    -5069072.18049  -3763433.79749  20395860.6994   20395867.0944
 97  1 12 19 48 59.9960000  0  9 31 22 19 18 29  3 27 14 16
  22747357.588    -9667609.00649  -7501309.31149  22747357.4624   22747363.8094
  22324802.965     6178104.86849   4817756.27149  22324802.1214   22324807.8734
  20386115.293   -22369010.54049 -17417809.90049  20386114.4774   20386120.6004
  19355189.646   -21760345.31349 -16939364.80549  19355189.4914   19355193.8974
  21058264.335     1123006.89649    909059.24349  21058264.5174   21058269.0824
  22482918.003   -16360067.22549 -12511650.71149  22482918.1804   22482922.7174
  23165045.670   -11941887.18149  -9284767.00249  23165045.0134   23165052.7204
  21919990.711     8585389.88949   6694405.49549  21919991.1364   21919997.3534
  20403493.527    -5028963.98349  -3732180.67949  20403492.7264   20403499.0404
 97  1 12 19 49 29.9960000  0  9 31 22 19 18 29  3 27 14 16
  22725319.973    -9783417.22849  -7591549.33149  22725318.6994   22725324.5684
  22338480.893     6249982.52249   4873764.85549  22338480.4224   22338485.5484
  20372657.547   -22439730.75249 -17472916.52149  20372657.1534   20372662.8684
  19342784.324   -21825535.87149 -16990162.61649  19342783.9594   19342788.2674
  21065279.137     1159869.85949    937783.63749  21065279.0914   21065283.5224
  22468909.738   -16433680.86549 -12569011.91349  22468908.7884   22468915.5814
  23145621.201   -12043962.95249  -9364306.50649  23145620.4404   23145626.9044
  21934728.784     8662838.63749   6754755.13949  21934728.8134   21934734.4004
  20411220.550    -4988358.13549  -3700539.77149  20411219.8774   20411225.8694
 97  1 12 19 49 59.9960000  0  9 31 22 19 18 29  3 27 14 16
  22703308.370    -9899088.92449  -7681682.96349  22703308.1174   22703313.5674
  22352202.367     6322090.17949   4929952.65549  22352200.1844   22352206.7754
  20359245.036   -22510214.02749 -17527838.52549  20359244.6784   20359250.5694
  19330457.704   -21890313.02849 -17040638.29549  19330457.3034   19330461.7434
  21072364.600     1197104.38049    966797.56849  21072364.2964   21072369.8134
  22454978.328   -16506890.16049 -12626058.03749  22454977.1334   22454984.0214
  23126215.048   -12145942.68149  -9443771.20749  23126213.9154   23126220.4414
  21949506.139     8740493.85349   6815265.67749  21949506.0334   21949512.3814
  20419033.307    -4947301.77649  -3668547.80849  20419032.7384   20419038.8524
 97  1 12 19 50 29.9960000  0  9 31 22 19 18 29  3 27 14 16
  22681326.289   -10014604.52549  -7771694.95249  22681325.3854   22681332.0164
  22365966.365     6394421.35549   4986314.61349  22365965.2144   22365970.7204
  20345882.152   -22580436.54549 -17582557.35249  20345881.8194   20345887.0434
  19318214.493   -21954651.47949 -17090772.13249  19318213.9294   19318218.5284
  21079523.722     1234726.36249    996113.38649  21079523.6394   21079528.8844
  22441129.694   -16579665.04549 -12682765.66749  22441129.6894   22441135.6804
  23106831.836   -12247801.35049  -9523141.55749  23106831.1344   23106838.4764
  21964324.649     8818365.75049   6875945.03449  21964323.7554   21964331.0024
  20426936.406    -4905770.88349  -3636186.10049  20426935.7174   20426941.9954
 97  1 12 19 50 59.9960000  0  9 31 22 19 18 29  3 27 14 16
  22659371.318   -10129977.83549  -7861596.06449  22659370.3844   22659376.3914
  22379772.007     6466970.74649   5042846.62349  22379771.4374   22379776.9854
  20332567.690   -22650404.42049 -17637077.74449  20332567.5264   20332572.9314
  19306052.641   -22018562.24549 -17140572.70349  19306052.1884   19306056.8574
  21086755.853     1272731.47449   1025727.75749  21086756.2824   21086760.9984
  22427365.600   -16651995.14749 -12739126.71549  22427364.7184   22427371.0084
  23087471.735   -12349538.42849  -9602417.14349  23087471.0764   23087477.5784
  21979182.740     8896445.64849   6936786.45149  21979182.1594   21979189.1354
  20434927.300    -4863778.45449  -3603464.73849  20434926.7454   20434932.8834
 97  1 12 19 51 29.9960000  0  9 31 22 19 18 29  3 27 14 16
  22637422.766   -10245317.58849  -7951471.04949  22637421.4994   22637426.6034
  22393599.154     6539632.51649   5099466.19749  22393599.0344   22393603.9934
  20319276.671   -22720249.48649 -17691502.43149  20319276.4984   20319282.1744
  19293950.072   -22082161.40149 -17190130.45949  19293949.6274   19293954.1674
  21094034.434     1310980.30849   1055532.05149  21094034.1644   21094039.5294
  22413663.190   -16724001.07049 -12795235.17549  22413662.8544   22413670.1414
  23068116.232   -12451251.85549  -9681674.31149  23068115.8764   23068122.5014
  21994057.975     8974614.74949   6997697.41449  21994058.3104   21994063.7934
  20442984.671    -4821436.82149  -3570471.26849  20442984.0274   20442990.1724
 97  1 12 19 51 59.9960000  0  9 31 22 19 18 29  3 27 14 16
  22615463.401   -10360714.12949  -8041390.30549  22615462.1214   22615468.5364
  22407428.793     6612307.81049   5156096.30649  22407427.5314   22407434.0404
  20305988.268   -22790080.24049 -17745915.97049  20305988.0774   20305993.6444
  19281887.649   -22145549.64149 -17239523.86749  19281887.1774   19281891.5384
  21101336.083     1349350.96549   1085431.27049  21101335.5194   21101341.4524
  22400003.634   -16795782.45649 -12851168.67249  22400002.5714   22400008.9174
  23048747.596   -12553034.91849  -9760985.74649  23048747.6944   23048753.2344
  22008931.421     9052774.43049   7058601.02349  22008931.4044   22008936.6124
  20451091.645    -4778834.13549  -3537274.38349  20451091.0744   20451097.0724
 97  1 12 19 52 29.9960000  0  9 31 22 19 18 29  3 27 14 16
  22593511.850   -10476069.53249  -8131277.49649  22593509.0094   22593517.0434
  22421281.381     6685103.78249   5212820.44049  22421280.8204   22421286.3374
  20292722.761   -22859791.03849 -17800236.04349  20292722.4714   20292727.6794
  19269883.200   -22208633.22349 -17288679.88349  19269882.7984   19269887.2274
  21108680.875     1387948.23749   1115507.05549  21108681.2144   21108686.0774
  22386408.874   -16867223.02149 -12906836.58349  22386408.3324   22386415.4354
  23029382.340   -12654800.45849  -9840283.53349  23029382.3904   23029388.2334
  22023822.033     9131025.05749   7119575.50349  22023821.1364   22023828.2014
  20459270.354    -4735854.69749  -3503783.93049  20459269.8924   20459275.9284
 97  1 12 19 52 59.9960000  0  9 31 22 19 18 29  3 27 14 16
  22571612.236   -10591151.98049  -8220952.00949  22571611.3294   22571617.6984
  22435204.756     6758271.36749   5269834.13649  22435203.9914   22435209.8094
  20279521.864   -22929162.23849 -17854291.49249  20279521.2604   20279526.9114
  19257977.993   -22271195.44749 -17337429.64149  19257977.5004   19257982.0984
  21116112.540     1427001.47749   1145938.15349  21116112.6494   21116117.5774
  22372920.901   -16938102.92949 -12962067.63349  22372920.9994   22372927.5444
  23010062.560   -12756326.89849  -9919395.01349  23010061.5464   23010067.8224
  22038773.418     9209595.34949   7180799.06549  22038773.7944   22038780.3924
  20467562.719    -4692278.14649  -3469828.18649  20467562.1224   20467568.0274
 97  1 12 19 53 29.9960000  0  9 31 22 19 18 29  3 27 14 16
  22549722.426   -10706183.36249  -8310586.74349  22549722.9124   22549727.4294
  22449153.880     6831574.37049   5326953.33949  22449153.5144   22449159.3034
  20266340.822   -22998428.56549 -17908265.22049  20266340.2554   20266346.0944
  19246129.260   -22333460.90049 -17385948.15049  19246128.8624   19246133.3094
  21123585.470     1466272.01049   1176538.57249  21123585.3664   21123590.1204
  22359493.909   -17008662.88549 -13017049.37049  22359494.1044   22359499.4564
  22990742.545   -12857854.02249  -9998507.03449  22990742.1704   22990748.1914
  22053739.792     9288244.22249   7242083.85649  22053739.5844   22053745.5074
  20475923.618    -4648341.33149  -3435591.72149  20475923.2434   20475929.2354
 97  1 12 19 53 59.9960000  0  9 31 22 19 18 29  3 27 14 16
  22527822.754   -10821266.96849  -8400262.16749  22527822.7134   22527828.5274
  22463108.548     6904906.67949   5384095.37549  22463107.5044   22463113.8544
  20253162.746   -23067679.93149 -17962227.28849  20253162.4274   20253167.7184
  19234316.800   -22395535.62449 -17434318.04049  19234316.4404   19234320.9244
  21131082.392     1505669.07249   1207237.57949  21131082.0364   21131087.8674
  22346110.697   -17078991.78849 -13071851.07549  22346109.9304   22346116.6234
  22971401.302   -12959492.28749 -10077705.63549  22971400.6404   22971407.4994
  22068700.769     9366864.08349   7303346.06449  22068700.8464   22068706.4134
  20484330.708    -4604161.79949  -3401166.12449  20484330.0534   20484336.4804
 97  1 12 19 54 29.9960000  0  9 31 22 19 18 29  3 27 14 16
  22505969.201   -10936108.25349  -8489748.79249  22505969.4624   22505973.7234
  22477125.066     6978563.90549   5441490.61349  22477124.2714   22477130.1754
  20240043.723   -23136620.90149 -18015947.49349  20240043.3304   20240048.6294
  19222598.634   -22457114.87449 -17482301.85049  19222598.1824   19222602.6344
  21138664.163     1545511.43649   1238283.58349  21138664.0574   21138669.8134
  22332828.224   -17148791.47849 -13126240.40049  22332828.1354   22332834.0474
  22952096.225   -13060940.95949 -10156756.51849  22952095.1154   22952101.6394
  22083713.140     9445754.02149   7364818.72949  22083712.7744   22083718.7124
  20492837.699    -4559457.25549  -3366331.42649  20492837.1444   20492843.5404
 97  1 12 19 54 59.9960000  0  9 31 22 19 18 29  3 27 14 16
  22484156.194   -11050736.52249  -8579069.40949  22484154.7644   22484161.7324
  22491194.408     7052498.33649   5499101.85649  22491193.6514   22491199.3874
  20226979.079   -23205276.03849 -18069444.97549  20226978.6444   20226983.7644
  19210971.705   -22518214.80549 -17529912.16549  19210971.4514   19210975.9404
  21146322.438     1585755.83849   1269642.85449  21146322.2564   21146327.4024
  22319637.053   -17218111.36149 -13180255.86049  22319636.7274   22319643.2594
  22932821.243   -13162231.69149 -10235684.31749  22932821.0984   22932827.1914
  22098771.662     9524887.29749   7426481.00349  22098771.2594   22098777.9424
  20501435.341    -4514276.46649  -3331125.63849  20501434.9824   20501440.8244
 97  1 12 19 55 29.9960000  0  9 31 22 19 18 29  3 27 14 16
  22462357.100   -11165291.43849  -8668332.90849  22462356.8844   22462362.6074
  22505284.251     7126540.71949   5556797.20049  22505283.5664   22505289.3894
  20213944.726   -23273771.94449 -18122818.38049  20213944.4174   20213949.5274
  19199409.362   -22578975.62049 -17577258.23549  19199408.9664   19199413.6964
  21154029.104     1626254.83849   1301200.51749  21154028.7214   21154033.6234
  22306512.439   -17287081.30149 -13233998.64049  22306512.0234   22306518.8304
  22913548.871   -13263508.02649 -10314600.90749  22913547.9214   22913554.3554
  22113850.080     9604125.77749   7488225.21949  22113849.0214   22113856.5864
  20510096.930    -4468759.52449  -3295657.91349  20510096.3764   20510102.7974
 97  1 12 19 55 59.9960000  0  9 31 22 19 18 29  3 27 14 16
  22440589.268   -11279681.52949  -8757467.94149  22440588.6844   22440594.8164
  22519408.656     7200764.92149   5614634.21549  22519407.5394   22519413.4444
  20200957.226   -23342021.45949 -18175999.78849  20200956.7794   20200962.0794
  19187925.067   -22639325.92749 -17624284.42449  19187924.6064   19187929.2184
  21161798.100     1667081.05849   1333013.16049  21161798.2924   21161803.4304
  22293470.066   -17355619.18249 -13287404.74349  22293470.3924   22293475.2074
  22894295.520   -13364684.45149 -10393439.61849  22894295.6394   22894302.1764
  22128963.128     9683546.03849   7550111.08749  22128962.0984   22128969.7504
  20518838.067    -4422824.57149  -3259864.46149  20518837.7244   20518843.8834
 97  1 12 19 56 29.9960000  0  9 31 22 19 18 29  3 27 14 16
  22418844.385   -11393951.04349  -8846509.03449  22418843.5684   22418850.5184
  22533556.230     7275111.22349   5672566.35349  22533554.8654   22533561.5014
  20188006.213   -23410079.35449 -18229031.88949  20188005.8044   20188011.3014
  19176510.578   -22699309.16349 -17671024.59049  19176510.3684   19176514.9434
  21169617.937     1708174.39349   1365033.92649  21169617.8094   21169623.4464
  22280498.790   -17423783.93349 -13340520.12549  22280497.9824   22280504.5434
  22875051.365   -13465814.00249 -10472241.83049  22875051.3314   22875056.7664
  22144099.745     9763089.75549   7612093.14649  22144099.4594   22144107.2854
  20527648.913    -4376523.46749  -3223785.70349  20527648.6254   20527654.6664
 97  1 12 19 56 59.9960000  0  9 31 22 19 18 29  3 27 14 16
  22397091.227   -11508263.70749  -8935583.76149  22397089.9974   22397096.3064
  22547697.040     7349422.26649   5730471.01949  22547695.7454   22547701.4024
  20175060.900   -23478107.10449 -18282040.48849  20175060.4364   20175065.8354
  19165134.334   -22759091.63649 -17717608.31249  19165133.8744   19165138.4354
  21177454.969     1749358.56149   1397125.47649  21177455.1634   21177460.2084
  22267569.318   -17491728.40249 -13393463.81549  22267568.5634   22267574.2034
  22855783.760   -13567065.61749 -10551139.15049  22855782.2014   22855790.1474
  22159225.756     9842577.20049   7674031.37049  22159226.1174   22159232.9584
  20536499.138    -4330015.53949  -3187545.76649  20536498.3784   20536504.7034
 97  1 12 19 57 29.9960000  0  9 31 22 19 18 29  3 27 14 16
  22375372.623   -11622394.56449  -9024516.81849  22375371.8324   22375378.4324
  22561874.813     7423927.73849   5788527.20249  22561873.5904   22561879.4554
  20162158.919   -23545907.22349 -18334871.71849  20162158.2384   20162163.8354
  19153836.951   -22818459.67149 -17763869.10249  19153836.7054   19153840.9914
  21185354.011     1790868.52949   1429470.88849  21185354.4544   21185359.3744
  22254728.084   -17559209.02149 -13446046.06849  22254727.8824   22254732.5224
  22836535.278   -13668216.07249 -10629957.63249  22836534.7764   22836541.9714
  22174380.624     9922216.26149   7736087.73049  22174379.8464   22174387.2784
  20545430.737    -4283079.51249  -3150972.25449  20545430.0054   20545436.2514
 97  1 12 19 57 59.9960000  0  9 31 22 19 18 29  3 27 14 16
  22353652.545   -11736533.15149  -9113455.91949  22353651.2694   22353657.7054
  22576057.097     7498456.54849   5846601.58749  22576055.9924   22576061.6394
  20149260.696   -23613687.39449 -18387687.40449  20149260.2974   20149265.6854
  19142583.641   -22877596.07849 -17809949.40049  19142583.3054   19142587.8314
  21193282.418     1832532.38749   1461936.23449  21193282.2864   21193288.0294
  22241938.202   -17626420.09849 -13498418.30149  22241938.8564   22241943.9494
  22817269.219   -13769459.29749 -10708848.39449  22817269.1834   22817275.8734
  22189525.045    10001800.50049   7798101.39349  22189524.7024   22189531.1614
  20554406.361    -4235911.85649  -3114218.24749  20554405.8514   20554411.9774
 97  1 12 19 58 29.9960000  0  9 31 22 19 18 29  3 27 14 16
  22331975.408   -11850447.08749  -9202219.94249  22331974.7464   22331980.5334
  22590291.433     7573258.23549   5904888.66349  22590291.8764   22590296.7494
  20136412.860   -23681202.68149 -18440296.67749  20136412.4524   20136417.7424
  19131425.814   -22936230.78049 -17855638.75849  19131425.4204   19131429.6914
  21201291.631     1874621.56549   1494732.97449  21201291.4814   21201297.1424
  22229249.204   -17693100.80549 -13550377.26249  22229248.9414   22229255.6504
  22798030.630   -13870558.28549 -10787626.76949  22798030.3924   22798037.4264
  22204707.565    10081584.97649   7860271.08949  22204707.0014   22204713.4924
  20563474.454    -4188258.30549  -3077085.62349  20563473.7634   20563480.0794
 97  1 12 19 58 59.9960000  0  9 31 22 19 18 29  3 27 14 16
  22310332.717   -11964179.44149  -9290842.49049  22310332.6084   22310338.5994
  22604569.204     7648287.91149   5963353.40549  22604569.0134   22604574.4264
  20123606.915   -23748498.49749 -18492734.93749  20123606.5174   20123611.8354
  19120354.294   -22994412.01449 -17900974.76549  19120353.9644   19120358.3534
  21209375.541     1917103.41549   1527835.69449  21209375.0854   21209380.0904
  22216654.767   -17759285.29549 -13601949.54249  22216654.4204   22216660.3294
  22778810.973   -13971558.21849 -10866327.93549  22778810.7574   22778818.2614
  22219919.731    10161525.21249   7922562.13349  22219920.3894   22219926.4504
  20572628.768    -4140152.50149  -3039600.59549  20572628.4964   20572634.6664
 97  1 12 19 59 29.9960000  0  9 31 22 19 18 29  3 27 14 16
  22288688.875   -12077918.38149  -9379470.19749  22288687.8924   22288695.0624
  22618848.296     7723324.48749   6021823.48649  22618848.3374   22618852.7234
  20110806.017   -23815767.74549 -18545152.48849  20110805.8894   20110811.0064
  19109330.037   -23052344.71249 -17946117.10449  19109329.6964   19109334.1114
  21217494.378     1959767.96549   1561080.78149  21217494.4844   21217499.7874
  22204115.973   -17825176.91849 -13653293.62449  22204115.7214   22204122.1964
  22759572.772   -14072655.75949 -10945105.17049  22759572.9854   22759579.7924
  22235123.150    10241419.38049   7984817.30949  22235123.1054   22235130.3624
  20581828.354    -4091808.83349  -3001930.21649  20581827.8074   20581834.1884
 97  1 12 19 59 59.9960000  0  9 31 22 19 18 29  3 27 14 16
  22267118.265   -12191272.86049  -9467798.30749  22267118.1554   22267123.0684
  22633200.325     7798744.97049   6080592.66949  22633198.7434   22633205.8324
  20098087.589   -23882603.50149 -18597232.25949  20098087.4344   20098092.6644
  19098428.305   -23109633.80849 -17990757.93649  19098427.9234   19098432.4264
  21225717.265     2002978.69549   1594751.48149  21225717.0124   21225722.5864
  22191704.115   -17890401.94949 -13704118.27549  22191704.4034   22191709.9944
  22740389.908   -14173462.29349 -11023655.66449  22740389.5664   22740396.3014
  22250390.016    10321646.60549   8047331.99949  22250390.0064   22250396.5454
  20591145.823    -4042845.35749  -2963776.86549  20591145.2974   20591151.2844
 97  1 12 20  0 29.9960000  0  9 31 22 19 18 29  3 27 14 16
  22245576.448   -12304476.14749  -9556008.61049  22245576.3884   22245582.4344
  22647576.782     7874293.99749   6139462.01049  22647576.3094   22647582.2204
  20085406.891   -23949241.22349 -18649157.71249  20085406.5124   20085411.6034
  19087602.352   -23166524.30649 -18035088.17049  19087601.8784   19087606.3004
  21233994.313     2046475.14049   1628644.79649  21233994.2824   21233999.5674
  22179374.345   -17955196.04949 -13754607.12649  22179373.3394   22179379.4944
  22721219.823   -14274201.92049 -11102154.02149  22721219.2174   22721226.0644
  22265676.738    10401978.03949   8109927.91349  22265676.8734   22265682.4334
  20600536.071    -3993499.15049  -2925325.28849  20600535.2764   20600541.5294
 97  1 12 20  0 59.9960000  0  9 31 22 19 18 29  3 27 14 16
  22224058.301   -12417554.97249  -9644121.94249  22224057.5854   22224063.6274
  22661968.767     7949924.34549   6198394.73249  22661968.0564   22661973.2284
  20072754.961   -24015727.58549 -18700965.22249  20072754.4014   20072759.6224
  19076840.221   -23223079.54749 -18079157.15949  19076839.8694   19076844.3734
  21242312.797     2090189.14649   1662707.62949  21242312.8634   21242318.3764
  22167117.544   -18019605.51049 -13804796.24749  22167116.1154   22167124.0834
  22702056.140   -14374907.93449 -11180626.20349  22702056.0944   22702062.5634
  22280972.368    10482357.08849   8172560.90249  22280971.5344   22280979.2314
  20609987.225    -3943832.89349  -2886624.32049  20609986.8934   20609992.8444
 97  1 12 20  1 29.9960000  0  9 31 22 19 18 29  3 27 14 16
  22202607.021   -12530282.80249  -9731961.77049  22202606.0564   22202612.7034
  22676418.577     8025858.00349   6257563.82749  22676417.9334   22676422.6624
  20060173.286   -24081844.74049 -18752485.04549  20060172.7714   20060177.9174
  19066185.138   -23279072.18749 -18122787.76449  19066184.8554   19066189.2474
  21250712.444     2134329.37949   1697102.58249  21250712.1484   21250717.4294
  22154974.057   -18083419.75149 -13854521.59649  22154973.7114   22154980.9194
  22682941.540   -14475356.03349 -11258897.41349  22682941.5064   22682947.5644
  22296319.078    10563005.55049   8235403.81249  22296317.3714   22296325.6984
  20619539.608    -3893635.22349  -2847509.26149  20619539.2704   20619545.4244
 97  1 12 20  1 59.9960000  0  9 31 22 19 18 29  3 27 14 16
  22181191.105   -12642824.26449  -9819656.38349  22181190.3214   22181196.6954
  22690895.833     8101935.99249   6316845.40649  22690894.7604   22690900.6244
  20047626.515   -24147778.27849 -18803861.78049  20047626.0974   20047631.8084
  19055606.616   -23334662.63349 -18166104.97249  19055606.3784   19055610.7864
  21259165.705     2178751.34349   1731717.08349  21259165.4864   21259170.7134
  22142912.558   -18146803.63949 -13903911.59949  22142912.0114   22142918.9924
  22663843.764   -14575715.94349 -11337099.89449  22663843.1684   22663849.1774
  22311686.949    10643764.61849   8298332.90149  22311687.4004   22311693.4324
  20629164.152    -3843058.24149  -2808098.63949  20629163.8374   20629169.4384
 97  1 12 20  2 29.9960000  0  9 31 22 19 18 29  3 27 14 16
  22159817.667   -12755142.10149  -9907176.74449  22159816.5584   22159822.4624
  22705406.937     8178191.99749   6376265.68549  22705406.4244   22705412.2954
  20035117.425   -24213513.63849 -18855084.09149  20035116.8074   20035122.3354
  19045108.168   -23389832.24949 -18209094.26049  19045107.7064   19045112.2084
  21267682.198     2223506.15449   1766590.94449  21267682.5004   21267687.6714
  22130940.531   -18209716.74949 -13952934.74949  22130941.2084   22130948.0094
  22644767.237   -14675963.03149 -11415214.45249  22644767.4344   22644772.5694
  22327083.023    10724670.57949   8361376.46049  22327083.6324   22327089.8064
  20638863.660    -3792087.24449  -2768380.98549  20638863.1424   20638869.5444
 97  1 12 20  2 59.9960000  0  9 31 22 19 18 29  3 27 14 16
  22138454.725   -12867404.81449  -9994654.14449  22138454.3974   22138460.0444
  22719919.662     8254456.84349   6435692.84449  22719918.5684   22719924.8794
  20022615.092   -24279213.63749 -18906278.84749  20022614.8324   20022619.9204
  19034657.773   -23444749.38149 -18251886.80149  19034657.3014   19034661.8204
  21276230.312     2268426.91149   1801594.10949  21276230.1224   21276235.8434
  22119025.988   -18272327.55649 -14001722.34849  22119025.3274   22119032.2004
  22625676.943   -14776282.70549 -11493385.57449  22625676.7704   22625682.7494
  22342471.235    10805535.28749   8424387.88749  22342471.0794   22342478.0934
  20648604.557    -3740898.37249  -2728493.56049  20648603.7594   20648610.3884
 97  1 12 20  3 29.9960000  0  9 31 22 19 18 29  3 27 14 16
  22117145.428   -12979385.60649 -10081911.88349  22117144.6694   22117150.0994
  22734476.208     8330951.93749   6495299.40149  22734475.4704   22734481.5894
  20010163.160   -24344648.98349 -18957267.38549  20010162.8334   20010167.9014
  19024300.375   -23499177.81549 -18294298.53849  19024299.9514   19024304.4494
  21284856.745     2313759.05049   1836917.83849  21284857.4004   21284862.2674
  22107211.180   -18334414.15849 -14050101.46249  22107210.2374   22107217.4564
  22606616.479   -14876446.24949 -11571435.02249  22606615.7864   22606622.0364
  22357895.180    10886588.34049   8487546.07649  22357894.6524   22357901.5734
  20658429.837    -3689266.03849  -2688260.57849  20658429.0374   20658435.4404
 97  1 12 20  3 59.9960000  0  9 31 22 19 18 29  3 27 14 16
  22095869.847   -13091189.22949 -10169031.57549  22095869.3284   22095874.2544
  22749054.316     8407560.62149   6554994.46749  22749053.2984   22749059.4384
  19997744.278   -24409910.59449 -19008120.55449  19997744.1404   19997748.9094
  19014016.557   -23553219.60949 -18336409.00349  19014015.9314   19014020.3594
  21293541.316     2359396.38249   1872479.36349  21293541.6684   21293546.6864
  22095478.299   -18396070.51249 -14098145.33149  22095479.1784   22095483.8364
  22587565.026   -14976562.46749 -11649447.59349  22587564.5744   22587570.4534
  22373334.584    10967722.75849   8550767.65249  22373333.9334   22373341.0794
  20668316.343    -3637312.10949  -2647777.01049  20668315.2934   20668321.7694
 97  1 12 20  4 29.9960000  0  9 31 22 19 18 29  3 27 14 16
  22074619.302   -13202861.49049 -10256048.89949  22074618.1204   22074624.1684
  22763646.376     8484242.29949   6614746.41349  22763645.0064   22763651.8894
  19985354.939   -24475017.25149 -19058852.97249  19985354.6774   19985359.4584
  19003798.846   -23606913.99549 -18378248.76049  19003798.4944   19003802.8074
  21302272.683     2405279.70349   1908232.57949  21302272.6144   21302277.6924
  22083820.098   -18457334.86149 -14145883.72649  22083819.3204   22083826.1154
  22568517.502   -15076657.40949 -11727443.58549  22568517.9504   22568521.7684
  22388779.435    11048885.57649   8614011.36149  22388779.8404   22388785.6664
  20678253.984    -3585089.22049  -2607083.86549  20678253.3234   20678259.8014
 97  1 12 20  4 59.9960000  0  9 31 22 19 18 29  3 27 14 16
  22053389.859   -13314422.74249 -10342979.72449  22053389.6664   22053395.1764
  22778245.825     8560962.59649   6674528.47449  22778244.9294   22778250.5784
  19972993.537   -24539976.62949 -19109470.62849  19972992.9454   19972997.9574
  18993647.695   -23660258.59349 -18419815.95149  18993647.3424   18993651.5804
  21311044.841     2451377.39149   1944152.83949  21311044.8114   21311049.6584
  22072231.374   -18518233.87449 -14193337.45749  22072231.2324   22072236.5704
  22549472.730   -15176737.73849 -11805428.18349  22549472.2554   22549478.1264
  22404225.175    11130053.10749   8677258.76049  22404225.7774   22404230.7724
  20688241.289    -3532605.75449  -2566187.66849  20688240.5794   20688246.7434
 97  1 12 20  5 29.9960000  0  9 31 22 19 18 29  3 27 14 16
  22032190.090   -13425828.52249 -10429789.40349  22032189.6924   22032195.2274
  22792859.564     8637758.12249   6734369.16049  22792858.3724   22792864.4464
  19960665.595   -24604759.88949 -19159951.04949  19960665.1794   19960670.1554
  18983570.818   -23713212.91649 -18461079.03449  18983570.3884   18983574.7374
  21319862.672     2497715.11749   1980260.14949  21319862.3364   21319867.5574
  22060717.346   -18578740.32449 -14240485.30549  22060717.2234   22060723.4514
  22530437.810   -15276766.60049 -11883372.68549  22530437.8324   22530441.8594
  22419680.488    11211270.97949   8740545.39949  22419680.7684   22419686.8924
  20698283.465    -3479833.99349  -2525066.82549  20698283.1174   20698289.1874
 97  1 12 20  5 59.9960000  0  9 31 22 19 18 29  3 27 14 16
  22011030.007   -13537025.10249 -10516436.07749  22011028.9624   22011034.9954
  22807497.508     8714681.16849   6794309.20349  22807496.3694   22807502.8404
  19948378.710   -24669327.69649 -19210263.58549  19948378.3054   19948383.2404
  18973579.641   -23765716.72049 -18501991.05849  18973579.2344   18973583.6154
  21328733.121     2544329.28649   2016582.86549  21328733.2254   21328738.1014
  22049289.237   -18638795.45349 -14287281.44149  22049288.5654   22049294.5714
  22511421.152   -15376699.74549 -11961242.63649  22511420.2284   22511425.4804
  22435153.943    11292584.68149   8803906.69249  22435153.8364   22435159.2644
  20708392.007    -3426713.52749  -2483674.25849  20708391.3694   20708397.2064
 97  1 12 20  6 29.9950000  0  9 31 22 19 18 29  3 27 14 16
  21989938.575   -13647861.16349 -10602801.82749  21989937.6034   21989943.6904
  22822184.377     8791861.35649   6854449.59849  22822182.9624   22822188.9324
  19936155.702   -24733560.07049 -19260314.75249  19936155.3174   19936159.9914
  18963700.084   -23817634.16649 -18542446.18749  18963699.8144   18963704.1044
  21337683.000     2591361.05349   2053230.96949  21337682.7504   21337688.5394
  22037972.761   -18698263.97549 -14333620.49349  22037972.4794   22037978.7184
  22492449.547   -15476395.60049 -12038927.68249  22492448.9124   22492454.2784
  22450667.855    11374111.29349   8867433.85049  22450666.2074   22450674.3444
  20718593.000    -3373106.92349  -2441902.90049  20718592.2874   20718598.4394
 97  1 12 20  6 59.9950000  0  9 31 22 19 18 29  3 27 14 16
  21968886.377   -13758490.87649 -10689006.78649  21968886.0874   21968890.7064
  22836891.214     8869146.73049   6914671.95749  22836890.2404   22836896.7294
  19923963.536   -24797630.26049 -19310239.53649  19923962.8484   19923968.0534
  18953901.840   -23869124.11849 -18582568.20249  18953901.3974   18953905.5624
  21346685.687     2638670.51349   2090095.47849  21346685.8174   21346690.5604
  22026736.198   -18757312.14549 -14379631.99849  22026736.5584   22026742.4204
  22473487.547   -15576040.90549 -12116573.30949  22473486.2294   22473492.7784
  22466192.957    11455697.00249   8931007.06349  22466192.8484   22466199.0004
  20728858.289    -3319162.68149  -2399868.43349  20728857.8104   20728863.7714
 97  1 12 20  7 29.9950000  0  9 31 22 19 18 29  3 27 14 16
  21947890.881   -13868823.09249 -10774979.90249  21947888.8334   21947895.4574
  22851635.740     8946630.39649   6975048.81149  22851635.2324   22851640.5074
  19911816.525   -24861463.02949 -19359979.31749  19911815.9474   19911820.8724
  18944200.506   -23920104.74849 -18622293.34149  18944199.9334   18944204.0244
  21355759.734     2686354.84449   2127252.10149  21355759.9054   21355764.5794
  22015598.335   -18815841.92349 -14425239.57749  22015598.7584   22015603.4974
  22454551.510   -15675549.76249 -12194112.61149  22454550.8584   22454557.8414
  22481744.808    11537421.81849   8994688.67549  22481744.6724   22481751.7324
  20739206.018    -3264785.20949  -2357496.38549  20739205.4774   20739211.4704
 97  1 12 20  7 59.9950000  0  9 31 22 19 18 29  3 27 14 16
  21926934.819   -13978947.54349 -10860791.10549  21926934.2394   21926939.6854
  22866400.849     9024221.83649   7035509.65149  22866399.8314   22866406.4714
  19899699.206   -24925139.75849 -19409597.51149  19899698.5454   19899703.3314
  18934580.992   -23970655.31949 -18661683.36549  18934580.6134   18934584.9514
  21364894.093     2734355.98749   2164655.57949  21364894.7614   21364899.1704
  22004546.802   -18873917.83049 -14470493.46249  22004547.3594   22004552.5954
  22435627.854   -15774993.57049 -12271601.22049  22435627.5084   22435634.4404
  22497305.691    11619194.03949   9058407.24449  22497306.0294   22497311.8744
  20749622.027    -3210048.50749  -2314844.41649  20749621.5564   20749627.6124
 97  1 12 20  8 29.9950000  0  9 31 22 19 18 29  3 27 14 16
  21906025.962   -14088824.74249 -10946409.65549  21906025.0344   21906030.8414
  22881194.868     9101965.28949   7096088.94049  22881194.1394   22881200.1274
  19887621.297   -24988609.18449 -19459054.16149  19887620.8674   19887625.7354
  18925051.204   -24020734.57849 -18700706.13449  18925050.8404   18925055.2044
  21374097.198     2782718.41249   2202340.57649  21374096.9214   21374101.7174
  21993588.716   -18931502.74549 -14515364.76249  21993588.3564   21993594.4884
  22416725.441   -15874326.42149 -12349003.36149  22416725.0244   22416731.6374
  22512884.140    11701058.67149   9122197.84949  22512884.4444   22512891.3134
  20760114.869    -3154908.28949  -2271878.03049  20760114.6224   20760120.8344
 97  1 12 20  8 59.9950000  0  9 31 22 19 18 29  3 27 14 16
  21885151.205   -14198522.31249 -11031888.22949  21885150.7854   21885155.6084
  22896009.621     9179817.40449   7156752.87949  22896008.5934   22896015.6004
  19875572.613   -25051925.55549 -19508391.55749  19875572.3884   19875577.4644
  18915601.182   -24070394.79349 -18739402.38049  18915600.7824   18915605.0214
  21383355.463     2831370.77149   2240251.49649  21383356.2514   21383360.0434
  21982715.161   -18988643.66349 -14559890.11049  21982715.4234   21982720.4664
  22397833.123   -15973606.54349 -12426364.43149  22397832.6734   22397839.6004
  22528472.293    11782974.74549   9186028.50349  22528472.4534   22528478.3114
  20770675.279    -3099413.32849  -2228635.21249  20770674.9914   20770680.6014
 97  1 12 20  9 29.9950000  0  9 31 22 19 18 29  3 27 14 16
  21864313.571   -14308023.91849 -11117214.08249  21864311.8824   21864319.2544
  22910845.742     9257782.13849   7217504.53649  22910844.8424   22910850.9994
  19863556.209   -25115072.06849 -19557596.58949  19863555.8664   19863560.7424
  18906233.541   -24119621.94049 -18777761.16349  18906233.3474   18906237.5594
  21392667.779     2880307.31049   2278383.85449  21392667.7144   21392673.1694
  21971931.090   -19045314.45949 -14604049.11249  21971930.2094   21971935.8954
  22378954.675   -16072813.59149 -12503668.52949  22378954.1424   22378960.4194
  22544073.827    11864961.24749   9249914.03449  22544073.9524   22544080.1214
  20781303.150    -3043563.75449  -2185116.07049  20781302.2444   20781308.2574
 97  1 12 20  9 59.9950000  0  9 31 22 19 18 29  3 27 14 16
  21843525.929   -14417262.98649 -11202335.39149  21843525.6224   21843531.7324
  22925712.321     9335906.62049   7278380.68549  22925712.5994   22925717.0254
  19851585.992   -25177975.95149 -19606612.56949  19851585.5734   19851590.2924
  18896957.239   -24168369.02849 -18815745.88049  18896956.8994   18896960.7914
  21402041.660     2929567.66449   2316768.54649  21402041.4154   21402047.0674
  21961247.553   -19101456.45349 -14647796.07949  21961247.6154   21961251.9744
  22360098.543   -16171903.21349 -12580881.14649  22360097.5574   22360104.7944
  22559698.068    11947066.99749   9313892.48049  22559698.3864   22559704.5024
  20792002.225    -2987339.73149  -2141305.15549  20792001.7774   20792007.8354
 97  1 12 20 10 29.9950000  0  9 31 22 19 18 29  3 27 14 16
  21822805.475   -14526149.19649 -11287181.72149  21822804.2674   21822810.7694
  22940624.222     9414268.93149   7339442.19149  22940622.9274   22940630.1824
  19839676.611   -25240559.32949 -19655378.79549  19839676.1084   19839681.5934
  18887785.175   -24216568.55849 -18853303.92749  18887784.9294   18887789.0424
  21411487.186     2979204.45649   2355446.55049  21411487.2164   21411491.5964
  21950678.485   -19156997.08549 -14691074.43849  21950678.3424   21950683.9484
  22341277.319   -16270809.19649 -12657950.63849  22341276.7964   22341282.7334
  22575359.164    12029366.36349   9378021.81149  22575359.1244   22575365.6754
  20802783.325    -2930684.78549  -2097158.45849  20802782.7634   20802789.1824
 97  1 12 20 10 59.9950000  0  9 31 22 19 18 29  3 27 14 16
  21802136.848   -14634763.17249 -11371815.92649  21802136.2754   21802142.1624
  22955559.277     9492752.40949   7400598.23649  22955559.3374   22955565.5924
  19827809.718   -25302919.94249 -19703971.43549  19827809.3034   19827814.3124
  18878696.876   -24264327.87249 -18890518.95649  18878696.6004   18878700.7744
  21420986.127     3029121.52949   2394342.95849  21420986.5604   21420991.0784
  21940208.424   -19212017.75049 -14733947.63649  21940208.0304   21940212.5744
  22322471.715   -16369633.04549 -12734956.14249  22322472.1044   22322477.1124
  22591036.141    12111749.10649   9442216.09649  22591035.9614   22591041.9884
  20813624.782    -2873712.56549  -2052764.54249  20813623.8884   20813630.5434
 97  1 12 20 11 29.9950000  0  9 31 22 19 18 29  3 27 14 16
  21781511.914   -14743147.36449 -11456271.05949  21781511.2144   21781517.4474
  22970501.709                                    22970501.293    22970506.4544
  19815974.036   -25365116.42449 -19752436.18849  19815973.6774   19815978.7074
  18869679.697   -24311713.63649 -18927442.90149  18869679.1134   18869683.4574
  21430529.518     3079272.26049   2433421.44549  21430530.0034   21430535.3214
  21929825.433   -19266580.59849 -14776464.07549  21929824.7184   21929829.9784
  22303671.713   -16468427.00249 -12811938.34849  22303671.3404   22303677.5784
  22606715.042    12194142.01249   9506418.28149  22606715.8864   22606721.9764
  20824513.763    -2816490.26649  -2008175.74249  20824512.9204   20824519.5494
 97  1 12 20 11 59.9950000  0  9 31 22 19 18 29  3 27 14 16
  21760977.168   -14851057.75149 -11540356.99949  21760977.3194   21760982.4114
  22985497.910     9650080.01459   7523191.19859  22985497.0624   22985502.8374
  19804213.560   -25426918.14449 -19800593.33749  19804213.4784   19804218.0074
  18860779.659   -24358483.34649 -18963886.80649  18860779.2044   18860783.5074
  21440166.178     3129913.44349   2472882.08249  21440165.5424   21440171.1344
  21919574.187   -19320451.50549 -14818441.35449  21919573.6754   21919578.9234
  22284924.464   -16566944.11149 -12888704.80749  22284924.2984   22284929.9324
  22622438.886    12276771.06449   9570804.48849  22622438.9214   22622445.2324
  20835497.787    -2758768.59249  -1963197.82349  20835496.9564   20835503.3454
 97  1 12 20 12 29.9950000  0  9 31 22 19 18 29  3 27 14 16
  21740501.745   -14958656.89149 -11624200.40649  21740500.8344   21740507.3854
  23000516.726     9729004.10549   7584690.45449  23000516.1544   23000522.3004
  19792495.580   -25488496.90049 -19848576.74249  19792495.1614   19792500.3444
  18851968.505   -24404785.96249 -18999966.74649  18851967.9144   18851972.3464
  21449866.860     3180890.92249   2512604.77449  21449866.6764   21449872.5174
  21909423.153   -19373794.99949 -14860007.65249  21909422.7924   21909428.4544
  22266201.167   -16665335.31149 -12965373.16349  22266200.2204   22266204.9964
  22638177.215    12359476.68949   9635250.34549  22638177.4864   22638184.0274
  20846550.522    -2700685.86749  -1917938.57149  20846549.9144   20846556.2094
 97  1 12 20 12 59.9950000  0  9 31 22 19 18 29  3 27 14 16
  21720071.632   -15066018.49749 -11707858.72849  21720070.1284   21720076.0784
  23015544.147     9807973.48149   7646224.96549  23015544.0904   23015549.0114
  19780806.630   -25549922.59349 -19896440.87449  19780806.4034   19780811.1704
  18843234.811   -24450681.54749 -19035729.51649  18843234.3304   18843238.5424
  21459621.285     3232150.91949   2552547.61249  21459620.7544   21459626.6164
  21899358.757   -19426683.34949 -14901219.30649  21899358.3704   21899364.0964
  22247488.915   -16763668.49449 -13041996.31249  22247488.4644   22247494.5934
  22653916.537    12442187.57549   9699700.30949  22653916.5904   22653923.3204
  20857658.818    -2642311.31649  -1872451.92749  20857658.1544   20857664.6774
 97  1 12 20 13 29.9950000  0  9 31 22 19 18 29  3 27 14 16
  21699692.400   -15173111.93549 -11791308.08549  21699691.1964   21699697.3394
  23030593.006     9887055.54349   7707847.29249  23030591.1244   23030597.9344
  19769156.912   -25611141.87149 -19944144.16149  19769156.4384   19769161.5004
  18834589.857   -24496111.00649 -19071129.07849  18834589.5154   18834593.6394
  21469438.311     3283739.03049   2592746.12849  21469438.0274   21469443.1064
  21889386.488   -19479087.63649 -14942053.76549  21889385.9234   21889391.9584
  22228797.018   -16861894.71449 -13118536.09949  22228795.8054   22228802.5544
  22669666.320    12524952.93949   9764192.74249  22669666.1574   22669673.2874
  20868829.861    -2583607.24349  -1826708.50849  20868829.5604   20868835.5404
 97  1 12 20 13 59.9950000  0  9 31 22 19 18 29  3 27 14 16
  21679357.195   -15279973.83949 -11874577.03249  21679356.4544   21679363.8434
  23045660.138     9966233.52749   7769544.38949  23045659.3824   23045665.0514
  19757544.217   -25672166.61749 -19991695.86549  19757543.8274   19757549.1204
  18826033.982   -24541072.57049 -19106164.04549  18826033.5584   18826037.7904
  21479311.617     3335623.27049   2633175.39049  21479309.5934   21479316.9544
  21879503.023   -19531025.26449 -14982524.60949  21879502.4564   21879507.9874
  22210118.554   -16960050.27149 -13195020.82649  22210117.5964   22210124.0854
  22685422.166    12607749.81849   9828709.73349  22685421.8994   22685428.1644
  20880056.769    -2524609.36449  -1780736.14649  20880056.0984   20880062.3024
 97  1 12 20 14 29.9950000  0  9 31 22 19 18 29  3 27 14 16
  21659033.553   -15386774.82249 -11957798.46949  21659032.7144   21659038.5804
  23060712.756    10045335.54249   7831182.27949  23060712.0214   23060717.6624
  19745939.171   -25733151.52949 -20039216.52649  19745938.8314   19745944.0144
  18817534.836   -24585735.72349 -19140966.48349  18817534.2624   18817538.6444
  21489205.253     3387615.02449   2673688.40749  21489205.9224   21489209.4084
  21869678.247   -19582655.30949 -15022755.76449  21869677.7474   21869684.7574
  22191419.095   -17058316.03249 -13271591.42749  22191417.8014   22191424.3694
  22701154.026    12690420.63849   9893128.50249  22701153.3894   22701160.8144
  20891304.104    -2465504.24049  -1734680.21149  20891303.4424   20891309.9144
 97  1 12 20 14 59.9950000  0  9 31 22 19 18 29  3 27 14 16
  21638772.275   -15493247.54149 -12040764.12849  21638771.0614   21638776.9184
  23075803.458    10124637.71849   7892976.12749  23075802.1954   23075808.3004
  19734393.345   -25793825.00649 -20086494.51049  19734393.0744   19734397.7774
  18809144.077   -24629829.14149 -19175324.97049  18809143.4914   18809147.7534
  21499170.700     3439983.97449   2714495.36849  21499170.6044   21499176.0264
  21859965.171   -19633697.66149 -15062528.98049  21859964.8014   21859969.5474
  22172750.101   -17156421.25349 -13348036.94549  22172749.1854   22172754.2454
  22716912.477    12773231.53649   9957656.41649  22716912.3994   22716918.9364
  20902623.416    -2406021.27349  -1688329.87149  20902622.6754   20902629.1644
 97  1 12 20 15 29.9950000  0  9 31 22 19 18 29  3 27 14 16
  21618558.447   -15599471.48249 -12123535.93349  21618558.0344   21618562.8354
  23090912.022    10204034.24049   7954843.48549  23090911.9144   23090916.3194
  19722888.812   -25854281.67649 -20133603.56249  19722888.2994   19722893.1494
  18800844.178   -24673445.22049 -19209311.51049  18800843.8574   18800847.9994
  21509187.871     3492625.00749   2755514.33449  21509187.2704   21509192.5124
  21850348.557   -19684232.98149 -15101907.11149  21850347.0694   21850352.5674
  22154092.643   -17254466.50849 -13424435.74349  22154092.8614   22154097.1174
  22732678.317    12856081.60349  10022214.84349  22732678.7244   22732685.0004
  20913998.326    -2346245.60649  -1641751.44049  20913997.3414   20914003.8374
 97  1 12 20 15 59.9950000  0  9 31 22 19 18 29  3 27 14 16
  21598387.141   -15705471.88749 -12206133.54149  21598387.7874   21598392.2074
  23106024.159    10283449.15449   8016725.21849  23106022.6234   23106029.1744
  19711412.048   -25914592.12449 -20180598.67049  19711411.3444   19711416.2884
  18792619.970   -24716663.49549 -19242988.06649  18792619.5304   18792623.6514
  21519246.723     3545484.67149   2796703.67849  21519246.5964   21519252.2384
  21840820.648   -19734302.63049 -15140922.37649  21840820.2954   21840824.2174
  22135436.004   -17352507.79949 -13500831.45449  22135436.2064   22135440.2224
  22748440.483    12938912.05049  10086757.98549  22748440.4324   22748447.7144
  20925421.621    -2286215.50549  -1594974.74249  20925420.8134   20925427.3254
 97  1 12 20 16 29.9950000  0  9 31 22 19 18 29  3 27 14 16
  21578271.194   -15811181.89149 -12288504.87049  21578271.7434   21578276.2614
  23121147.698    10362924.15249   8078653.78149  23121146.8834   23121153.5874
  19699967.570   -25974732.92149 -20227461.59049  19699967.0674   19699972.2284
  18784475.259   -24759464.03449 -19276339.11649  18784474.7994   18784479.2474
  21529356.150     3598610.38249   2838100.31749  21529355.4474   21529362.3114
  21831388.280   -19783869.96449 -15179546.24149  21831387.8354   21831391.7614
  22116791.652   -17450484.57749 -13577176.91449  22116791.8144   22116797.3804
  22764206.650    13021763.38449  10151317.37649  22764206.4584   22764214.0554
  20936902.219    -2225884.49549  -1547963.57749  20936901.6054   20936907.5024
 97  1 12 20 16 59.9950000  0  9 31 22 19 18 29  3 27 14 16
  21558215.232   -15916576.74249 -12370630.62649  21558215.1784   21558220.4704
  23136284.635    10442469.20949   8140636.94449  23136283.5244   23136290.5354
  19688557.737   -26034691.73549 -20274182.70149  19688557.5054   19688562.3184
  18776415.185   -24801819.76349 -19309343.55649  18776414.7594   18776419.3504
  21539521.133     3652028.06049   2879724.43649  21539520.8704   21539525.3804
  21822053.799   -19832922.64649 -15217769.08849  21822052.9274   21822058.4954
  22098166.034   -17548362.59749 -13653445.41449  22098166.6384   22098170.7164
  22779977.741    13104640.81949  10215897.12649  22779977.2504   22779984.4734
  20948443.499    -2165234.86649  -1500704.13549  20948443.0454   20948449.5264
 97  1 12 20 17 29.9950000  0  9 31 22 19 18 29  3 27 14 16
  21538215.179   -16021677.29849 -12452527.07449  21538214.8544   21538220.7994
  23151425.815    10522036.63849   8202637.53349  23151425.3824   23151431.6544
  19677175.518   -26094505.78049 -20320791.00849  19677175.2554   19677179.7374
  18768432.295   -24843770.09549 -19342032.10749  18768432.0354   18768436.3584
  21549732.505     3705688.87949   2921538.05949  21549731.7414   21549738.6524
  21812809.651   -19881500.68649 -15255622.07049  21812807.8074   21812814.0084
  22079551.808   -17646180.82549 -13729667.31249  22079550.9354   22079556.6184
  22795747.077    13187509.06349  10280469.71649  22795746.5134   22795753.2594
  20960033.944    -2104326.88849  -1453243.39049  20960033.3214   20960039.6034
 97  1 12 20 17 59.9950000  0  9 31 22 19 18 29  3 27 14 16
  21518274.779   -16126465.04349 -12534179.76349  21518273.9794   21518279.3094
  23166581.858    10601681.90749   8264698.77749  23166581.1504   23166587.4334
  19665827.230   -26154141.65549 -20367260.48649  19665827.0914   19665831.7394
  18760535.699   -24885266.96949 -19374367.31349  18760535.4124   18760539.8434
  21559996.741     3759627.52849   2963568.14649  21559996.2154   21560002.3104
  21803661.028   -19929576.23349 -15293083.51349  21803660.7804   21803666.3474
  22060957.482   -17743893.98249 -13805807.35749  22060956.2484   22060962.2184
  22811522.290    13270408.10349  10345066.31049  22811522.9714   22811529.0524
  20971678.352    -2043135.34049  -1405561.68049  20971677.9794   20971684.0324
 97  1 12 20 18 29.9950000  0  9 31 22 19 18 29  3 27 14 16
  21498388.657   -16230966.92949 -12615609.70449  21498387.8764   21498393.2834
  23181753.324    10681408.28149   8326823.20549  23181752.6574   23181759.0824
  19654514.497   -26213590.37649 -20413584.12249  19654514.1534   19654518.8054
  18752732.986   -24926270.74949 -19406318.28849  18752732.6534   18752736.8914
  21570311.535     3813832.16649   3005805.51249  21570311.1744   21570317.2674
  21794608.159   -19977149.36249 -15330153.44349  21794607.4374   21794612.9014
  22042382.024   -17841508.53249 -13881870.55849  22042381.7674   22042386.6214
  22827301.530    13353328.82749  10409679.78849  22827300.8084   22827308.9344
  20983371.667    -1981686.28749  -1357679.31349  20983370.6654   20983377.3924
 97  1 12 20 18 59.9950000  0  9 31 22 19 18 29  3 27 14 16
  21478563.516   -16335147.95849 -12696789.64149  21478562.9304   21478568.7034
  23196948.944    10761261.70449   8389046.61749  23196947.7574   23196954.1034
  19643250.547   -26272782.47749 -20459707.80249  19643249.9314   19643254.9504
  18745037.171   -24966712.38149 -19437831.22549  18745036.9214   18745041.2614
  21580687.454     3868357.42849   3048292.71349  21580687.6814   21580693.2534
  21785663.224   -20024154.72849 -15366780.97349  21785662.7404   21785668.1284
  22023830.938   -17938995.48449 -13957834.32849  22023830.9994   22023835.2524
  22843092.669    13436311.46149  10474341.47749  22843091.9864   22843099.9144
  20995124.718    -1919923.47349  -1309552.46249  20995124.2384   20995130.4044
 97  1 12 20 19 29.9950000  0  9 31 22 19 18 29  3 27 14 16
  21458791.042   -16439052.88549 -12777754.44049  21458790.2394   21458796.2254
  23212161.596    10841204.36849   8451339.55649  23212160.3064   23212166.9274
  19632026.892   -26331763.10649 -20505666.70049  19632026.3914   19632031.0564
  18737439.912   -25006636.21449 -19468940.68349  18737439.3714   18737443.7264
  21591118.638     3923173.70449   3091006.68449  21591119.1394   21591124.5694
  21776818.840   -20070631.69849 -15402996.75349  21776818.2624   21776824.3424
  22005293.457   -18036409.67749 -14033741.41749  22005292.6134   22005298.5144
  22858887.764    13519314.92349  10539019.40049  22858887.6014   22858895.3034
  21006931.611    -1857877.89449  -1261205.27849  21006931.9244   21006937.8184
 97  1 12 20 19 59.9950000  0  9 31 22 19 18 29  3 27 14 16
  21439078.216   -16542643.89749 -12858474.62849  21439077.8654   21439082.0404
  23227398.930    10921277.17849   8513733.90649  23227397.7074   23227403.6704
  19620850.331   -26390496.28649 -20551432.78349  19620850.0384   19620854.8084
  18729948.460   -25046004.09349 -19499616.93849  18729948.0674   18729952.2624
  21601616.654     3978340.91249   3133994.08449  21601617.6614   21601622.5774
  21768079.459   -20116557.25349 -15438782.85949  21768079.2224   21768084.4804
  21986778.524   -18133705.67649 -14109556.40049  21986777.6114   21986784.2604
  22874693.334    13602373.85749  10603740.54649  22874693.4394   22874700.8594
  21018802.020    -1795499.16049  -1212598.49549  21018801.4874   21018807.8244
 97  1 12 20 20 29.9950000  0  9 31 22 19 18 29  3 27 14 16
  21419403.085   -16646037.23449 -12939040.77349  21419402.6664   21419407.5944
  23242630.266    11001318.49649   8576103.71949  23242629.2934   23242635.0154
  19609694.584   -26449120.16149 -20597113.68549  19609694.0714   19609699.1134
  18722533.907   -25084967.73849 -19529978.19649  18722533.5704   18722537.8254
  21612155.658     4033723.38949   3177149.24249  21612155.9064   21612161.5494
  21759417.739   -20162074.64449 -15474250.89749  21759417.2294   21759424.0384
  21968261.360   -18231013.61949 -14185380.70149  21968260.1204   21968267.1654
  22890483.119    13685350.35049  10668397.45649  22890482.2494   22890490.5744
  21030708.272    -1732931.70849  -1163844.64749  21030708.0744   21030714.0294
 97  1 12 20 20 59.9950000  0  9 31 22 19 18 29  3 27 14 16
  21399792.500   -16749091.39949 -13019342.63749  21399791.8324   21399797.1314
  23257875.958    11081435.67449   8638532.66649  23257875.1484   23257881.0454
  19598579.633   -26507529.38749 -20642627.33549  19598579.1764   19598583.9584
  18715211.555   -25123446.85149 -19559961.90249  18715211.0794   18715215.4294
  21622758.088     4089439.44749   3220564.31749  21622758.0964   21622762.9364
  21750853.573   -20207079.63549 -15509319.67449  21750853.4474   21750858.8704
  21949764.099   -18328216.98449 -14261123.50049  21949762.7754   21949769.3784
  22906279.930    13768364.26649  10733083.52249  22906279.6334   22906287.9204
  21042674.326    -1670049.18549  -1114845.28949  21042673.6904   21042679.9194
 97  1 12 20 21 29.9950000  0  8 31 19 18 29  3 27 14 16
  21380200.870   -16852045.83849 -13099566.79649  21380199.8564   21380205.6524
  19587453.042   -26565999.81149 -20688188.66449  19587452.6194   19587457.4034
  18707929.061   -25161716.50449 -19589782.38849  18707928.7604   18707933.1244
  21633371.662     4145213.96849   3264024.97849  21633371.7684   21633377.1694
  21742333.399   -20251853.52349 -15544208.37849  21742332.6264   21742339.0024
  21931238.717   -18425567.86749 -14336981.25849  21931238.2404   21931244.2004
  22922035.153    13851158.44449  10797598.36349  22922035.6454   22922042.3044
  21054647.124    -1607131.59149  -1065818.61449  21054646.4124   21054652.5934
 97  1 12 20 21 59.9950000  0  8 31 19 18 29  3 27 14 16
  21360667.977   -16954691.50749 -13179550.34849  21360666.9984   21360672.7794
  19576350.892   -26624341.83949 -20733649.96449  19576350.5554   19576355.1784
  18700722.497   -25199587.54549 -19619292.27549  18700722.2894   18700726.4254
  21644027.752     4201212.45349   3307660.13249  21644028.2514   21644034.1814
  21733894.467   -20296199.92749 -15578763.96049  21733894.0384   21733900.3184
  21912721.428   -18522876.68149 -14412806.23149  21912720.5394   21912726.5044
  22937783.353    13933914.43249  10862083.51949  22937784.2824   22937791.4814
  21066658.502    -1544011.62049  -1016634.24149  21066657.9264   21066664.3524
 97  1 12 20 22 29.9950000  0  8 31 19 18 29  3 27 14 16
  21341195.738   -17057018.54549 -13259285.63349  21341195.3884   21341199.8974
  19565277.182   -26682534.50649 -20778994.87449  19565277.0314   19565281.5954
  18693594.935   -25237043.29049 -19648478.55549  18693594.4244   18693598.8754
  21654724.203     4257422.31149   3351459.99649  21654723.9774   21654731.0384
  21725545.073   -20340076.30249 -15612953.28549  21725544.2194   21725549.2734
  21894209.843   -18620154.95549 -14488607.41549  21894209.0144   21894215.6564
  22953522.396    14016622.90849  10926531.64949  22953522.6074   22953530.1674
  21078708.218    -1480689.73049   -967292.51949  21078707.3954   21078714.0974
 97  1 12 20 22 59.9950000  0  8 31 19 18 29  3 27 14 16
  21321748.998   -17159211.07649 -13338916.10349  21321747.7014   21321753.2914
  19554199.548   -26740748.16149 -20824356.13949  19554199.0704   19554203.9524
  18686516.113   -25274242.35949 -19677464.82749  18686515.5444   18686519.8254
  21665426.527     4313663.46949   3395284.24049  21665425.7284   21665431.7174
  21717255.329   -20383638.64449 -15646897.92049  21717253.8784   21717260.3414
  21875667.227   -18717596.09749 -14564535.49349  21875666.7614   21875672.7244
  22969214.530    14099085.05749  10990787.82749  22969214.5544   22969222.2654
  21090764.803    -1417331.40749   -917922.41149  21090764.1484   21090770.4164
 97  1 12 20 23 29.9950000  0  8 31 19 18 29  3 27 14 16
  21302340.164   -17261204.81949 -13418391.65449  21302340.2174   21302344.2894
  19543135.531   -26798889.57849 -20869661.10849  19543135.0794   19543140.1354
  18679503.750   -25311092.02449 -19706178.83549  18679503.4294   18679507.6164
  21676149.186     4370011.79449   3439191.99449  21676149.0044   21676154.0674
  21709042.175   -20426798.34249 -15680528.78649  21709041.8134   21709048.1584
  21857110.004   -18815114.60849 -14640523.85349  21857109.4584   21857115.5934
  22984873.406    14181371.91849  11054907.43049  22984874.3034   22984880.2584
  21102843.785    -1353856.40649   -868461.39049  21102843.5654   21102849.4484
 97  1 12 20 23 59.9950000  0  8 31 19 18 29  3 27 14 16
  21283001.857   -17362828.13749 -13497578.57049  21283002.3744   21283006.8324
  19532123.476   -26856757.87649 -20914753.26649  19532123.0734   19532127.9634
  18672594.892   -25347398.39849 -19734469.50149  18672594.6824   18672599.0044
  21686929.654     4426663.57949   3483336.20949  21686929.1514   21686935.4944
  21700944.347   -20469352.38349 -15713687.72649  21700944.1494   21700950.0414
  21838573.837   -18912521.85249 -14716425.52949  21838573.2604   21838579.5074
  23000532.722    14263661.36449  11119029.00849  23000532.5234   23000541.0974
  21114982.336    -1290068.89149   -818756.84049  21114982.3724   21114988.3724
 97  1 12 20 24 29.9950000  0  8 31 19 18 29  3 27 14 16
  21263717.474   -17464168.94149 -13576545.34549  21263716.7254   21263722.1544
  19521148.551   -26914431.43749 -20959693.67649  19521148.3304   19521153.0964
  18665774.824   -25383238.33249 -19762396.70649  18665774.4034   18665778.7784
  21697757.214     4483562.93049   3527673.33949  21697756.6964   21697763.1514
  21692947.558   -20511376.12249 -15746433.45649  21692947.8154   21692952.2674
  21820047.245   -19009879.27949 -14792288.36149  21820046.6264   21820052.4484
  23016179.189    14345883.69549  11183098.25849  23016178.8714   23016186.3094
  21127168.379    -1226031.14049   -768857.30349  21127168.0364   21127174.3484
 97  1 12 20 24 59.9950000  0  8 31 19 18 29  3 27 14 16
  21244489.104   -17565214.23449 -13655281.86049  21244487.5274   21244494.0494
  19510209.006   -26971919.36549 -21004489.43849  19510208.5444   19510213.4314
  18659043.163   -25418613.17449 -19789961.50349  18659042.6844   18659047.0924
  21708634.466     4540723.10649   3572213.71249  21708634.3054   21708640.5014
  21685047.571   -20552890.70249 -15778782.44749  21685046.6054   21685053.2814
  21801535.883   -19107157.50449 -14868089.48749  21801535.1314   21801540.8104
  23031817.680    14428064.01349  11247134.78649  23031817.6944   23031824.9924
  21139404.425    -1161730.76949   -718753.13949  21139403.9154   21139409.7014
 97  1 12 20 25 29.9950000  0  8 31 19 18 29  3 27 14 16
  21225308.628   -17666008.04549 -13733822.41749  21225307.6754   21225312.7244
  19499294.159   -27029276.95749 -21049183.64449  19499293.6104   19499298.5174
  18652385.236   -25453600.35649 -19817224.22949  18652384.8934   18652389.0264
  21719552.534     4598097.42949   3616920.96149  21719552.8064   21719558.3894
  21677232.911   -20593956.00349 -15810781.35049  21677232.4844   21677238.1314
  21783033.351   -19204389.40349 -14943854.54049  21783032.2414   21783038.2724
  23047441.266    14510166.02749  11311110.26249  23047440.4794   23047448.4834
  21151675.489    -1097246.09249   -668505.35049  21151674.8104   21151681.2404
 97  1 12 20 25 59.9950000  0  8 31 19 18 29  3 27 14 16
  21206204.289   -17766401.27349 -13812050.83349  21206203.9704   21206208.5264
  19488427.272   -27086382.70649 -21093681.60049  19488426.6434   19488431.7474
  18645827.209   -25488063.04349 -19844078.26149  18645826.9034   18645831.1984
  21730536.737     4655819.13849   3661898.88449  21730536.9024   21730541.9464
  21669529.993   -20634434.88549 -15842323.31149  21669530.0664   21669535.4764
  21764565.367   -19301439.22749 -15019477.70849  21764565.0554   21764569.8664
  23063075.264    14592323.08149  11375128.67549  23063075.8554   23063082.5704
  21164003.737    -1032460.39049   -618022.99549  21164002.9364   21164009.9054
 97  1 12 20 26 29.9950000  0  8 31 19 18 29  3 27 14 16
  21187165.588   -17866449.69049 -13890010.56049  21187164.4214   21187170.1574
  19477595.729   -27143302.64649 -21138034.77149  19477595.3514   19477600.2904
  18639357.509   -25522061.63849 -19870570.65949  18639357.3514   18639361.5714
  21741572.590     4713812.91249   3707088.78849  21741572.2034   21741577.9944
  21661925.815   -20674395.57149 -15873461.49949  21661925.2014   21661931.8484
  21746120.833   -19398365.53249 -15095004.63449  21746120.5044   21746125.0054
  23078709.095    14674478.63349  11439145.91649  23078709.2224   23078716.3304
  21176375.029     -967448.33849   -567364.26849  21176374.2614   21176381.3494
 97  1 12 20 26 59.9950000  0  8 31 19 18 29  3 27 14 16
  21168220.280   -17966007.20749 -13967587.76349  21168220.0564   21168225.6474
  19466829.119   -27199881.19049 -21182121.92249  19466828.6054   19466833.6494
  18633004.619   -25555446.41549 -19896584.75649  18633004.3304   18633008.8274
  21752683.874     4772203.11149   3752587.60949  21752683.7104   21752690.1854
  21654446.343   -20713700.65849 -15904088.82249  21654446.0094   21654451.9034
  21727723.314   -19495044.78249 -15170339.02749  21727721.8814   21727727.4544
  23094369.141    14756772.08149  11503270.59849  23094369.3614   23094376.6324
  21188813.966     -902080.80249   -516428.54949  21188813.2204   21188819.8964
 97  1 12 20 27 29.9950000  0  8 31 19 18 29  3 27 14 16
  21149296.068   -18065454.53049 -14045079.10749  21149296.0474   21149300.2564
  19456058.385   -27256481.70349 -21226226.19149  19456057.9614   19456062.6314
  18626698.403   -25588585.85949 -19922407.68449  18626697.9854   18626702.2974
  21763798.337     4830610.10049   3798099.50849  21763798.8464   21763803.9094
  21647022.660   -20752712.21049 -15934487.42049  21647022.6084   21647027.8034
  21709297.303   -19591873.51049 -15245789.92049  21709296.9664   21709301.9424
  23109981.628    14838815.43249  11567200.40349  23109981.4134   23109987.8864
  21201246.874     -836745.14149   -465517.66449  21201246.3034   21201252.6734
 97  1 12 20 27 59.9950000  0  8 31 19 18 29  3 27 14 16
  21130474.933   -18164360.34149 -14122148.49749  21130473.9374   21130479.4044
  19445364.550   -27312678.10149 -21270015.55649  19445364.1844   19445368.8964
  18620525.193   -25621025.95949 -19947685.66849  18620524.7494   18620529.2014
  21774997.400     4889461.19249   3843957.48949  21774997.4434   21775002.3664
  21639736.464   -20791001.33449 -15964323.09549  21639735.7634   21639741.5344
  21690920.585   -19688443.62149 -15321039.28249  21690920.3784   21690925.4064
  23125628.520    14921039.57849  11631271.09949  23125627.5514   23125635.3884
  21213759.116     -770993.03749   -414282.27449  21213758.3214   21213765.4914
 97  1 12 20 28 29.9950000  0  8 31 19 18 29  3 27 14 16
  21111732.655   -18262851.38449 -14198894.67849  21111732.0824   21111736.2864
  19434724.836   -27368589.92049 -21313583.17749  19434724.4304   19434729.1314
  18614461.829   -25652889.01449 -19972514.00949  18614461.3874   18614465.8904
  21786259.595     4948644.08449   3890073.98949  21786258.9674   21786264.9024
  21632564.894   -20828687.83249 -15993689.17349  21632564.4874   21632569.8884
  21672566.956   -19784893.33249 -15396194.84649  21672566.7244   21672571.7244
  23141285.098    15003314.65449  11695381.48249  23141284.9324   23141292.3074
  21226328.549     -704940.01749   -362812.40649  21226327.9594   21226334.7514
 97  1 12 20 28 59.9950000  0  8 31 19 18 29  3 27 14 16
  21093023.250   -18361169.03049 -14275505.74649  21093022.3344   21093026.9644
  19424088.623   -27424483.68149 -21357136.72849  19424088.3634   19424092.9784
  18608457.076   -25684443.93349 -19997102.24249  18608456.7834   18608461.0344
  21797536.270     5007903.14749   3936249.84849  21797536.3804   21797541.5584
  21625461.099   -20866018.45649 -16022777.97349  21625461.0554   21625466.5924
  21654184.701   -19881493.29249 -15471467.47549  21654184.4404   21654188.7144
  23156899.033    15085366.09949  11759317.58049  23156898.8434   23156906.1894
  21238905.818     -638846.38249   -311310.88449  21238905.8714   21238911.5974
 97  1 12 20 29 29.9950000  0  8 31 19 18 29  3 27 14 16
  21074423.299   -18458911.83349 -14351668.88049  21074423.3304   21074428.1964
  19413525.704   -27479992.12249 -21400390.02649  19413525.2364   19413530.1344
  18602585.966   -25715296.83449 -20021143.45349  18602585.6484   18602589.7734
  21808903.237     5067637.80049   3982796.29449  21808903.0414   21808908.7754
  21618501.847   -20902589.92049 -16051275.21749  21618501.9434   21618506.7964
  21635849.487   -19977844.49549 -15546546.28449  21635849.1934   21635853.1184
  23172541.944    15167570.60949  11823372.94649  23172541.8934   23172549.1744
  21251565.112     -572321.44949   -259473.29649  21251564.5484   21251571.1594
 97  1 12 20 29 59.9950000  0  8 31 19 18 29  3 27 14 16
  21055848.454   -18556523.21649 -14427729.61549  21055848.3104   21055853.5924
  19402948.234   -27535576.75149 -21443702.68849  19402947.8994   19402952.6614
  18596760.990   -25745907.41549 -20044995.83949  18596760.8004   18596764.8474
  21820273.014     5127386.13749   4029353.40049  21820273.2694   21820278.3334
  21611599.223   -20938863.77849 -16079540.53649  21611599.7314   21611604.0674
  21617477.736   -20074387.91849 -15621774.87649  21617475.9034   21617481.0514
  23188124.793    15249459.27649  11887182.24749  23188124.6854   23188130.5514
  21264218.190     -505829.49749   -207661.40549  21264217.7984   21264224.1614
 97  1 12 20 30 29.9950000  0  8 31 19 18 10 29  3 27 16
  21037331.632   -18653829.21049 -14503552.39849  21037330.8194   21037336.2364
  19392387.643   -27591072.81049 -21486946.33749  19392387.5894   19392392.1454
  18591011.609   -25776120.68349 -20068538.63049  18591011.3814   18591015.7504
  23248769.345    -4185245.94849  -2966371.58349  23248768.2034   23248775.1834
  21831674.287     5187299.83549   4076039.35749  21831673.8974   21831679.4114
  21604783.770   -20974679.47749 -16107448.85049  21604783.8294   21604788.5824
  21599104.043   -20170941.63449 -15697011.47949  21599103.3324   21599107.9514
  21276892.390     -439226.95749   -155763.33849  21276891.8844   21276898.5104
 97  1 12 20 30 59.9950000  0  9 31 19 18 10 29  3 27  2 16
  21018881.488   -18750784.48049 -14579101.88449  21018880.8424   21018885.9484
  19381851.545   -27646440.62049 -21530090.05249  19381850.9944   19381855.8794
  18585346.891   -25805889.12849 -20091734.80349  18585346.6524   18585350.9754
  23229878.966    -4284515.72449  -3043724.63749  23229876.0014   23229883.7884
  21843112.774     5247409.44849   4122877.98749  21843112.9284   21843118.4564
  21598063.369   -21009995.40749 -16134967.72749  21598063.0524   21598068.6594
  21580739.462   -20267447.82349 -15772211.04549  21580738.4964   21580744.5254
  23477751.172    -4225106.66849  -3271780.07349  23477750.0124   23477758.8244
  21289596.463     -372466.37849   -103742.11749  21289595.5604   21289602.6044
 97  1 12 20 31 29.9950000  0  9 31 19 18 10 29  3 27  2 16
  21000546.317   -18847136.29149 -14654181.14749  21000545.8954   21000550.8884
  19371393.031   -27701400.04449 -21572915.54449  19371392.5244   19371397.5044
  18579820.716   -25834929.57649 -20114363.71049  18579820.4284   18579824.6424
  23211106.591    -4383164.72349  -3120593.94149  23211106.0864   23211110.1974
  21854641.901     5307995.51249   4170087.90249  21854641.1774   21854648.0744
  21591486.361   -21044557.24049 -16161899.00949  21591485.3364   21591490.9744
  21562438.145   -20363621.60749 -15847151.59649  21562438.0254   21562442.8784
  23454491.578    -4347335.67749  -3367023.37649  23454490.9444   23454499.0574
  21302381.564     -305279.50749    -51388.72649  21302379.8794   21302387.9264
 97  1 12 20 31 59.9950000  0  9 31 19 18 10 29  3 27  2 16
  20982277.465   -18943140.31449 -14728989.40149  20982276.4824   20982281.8084
  19360968.670   -27756180.43849 -21615601.53049  19360968.3214   19360973.0044
  18574382.668   -25863506.44849 -20136631.38549  18574382.2234   18574386.5194
  23192406.071    -4481436.75249  -3197169.49549  23192404.5224   23192410.0864
  21866214.432     5368809.45249   4217475.33849  21866215.2944   21866219.6774
  21585001.963   -21078633.07849 -16188451.57849  21585002.1144   21585006.9504
  21544153.632   -20459707.11749 -15922023.34249  21544153.5634   21544159.0724
  23431252.422    -4469458.42349  -3462183.88549  23431252.2024   23431260.1174
  21315199.378     -237920.65549      1098.66949  21315198.7654   21315205.5674
 97  1 12 20 32 29.9950000  0  9 31 19 18 10 29  3 27  2 16
  20964114.241   -19038588.80849 -14803364.78249  20964114.1264   20964118.6534
  19350619.051   -27810568.05249 -21657981.46249  19350618.5564   19350623.1954
  18569075.631   -25891394.98349 -20158362.69949  18569075.2674   18569079.4454
  23173819.969    -4579107.36049  -3273276.41149  23173818.6194   23173825.7724
  21877871.611     5430067.75449   4265209.05149  21877872.1244   21877878.1384
  21578655.074   -21111986.59349 -16214441.28949  21578654.7284   21578660.3934
  21525924.626   -20555501.56349 -15996668.31549  21525924.5924   21525929.7324
  23408079.064    -4591235.40449  -3557074.98449  23408079.3844   23408086.5224
  21328094.092     -170158.67849     53900.18549  21328093.6784   21328099.5144
 97  1 12 20 32 59.9950000  0  9 31 19 18 10 29  3 27  2 16
  20945957.505   -19134002.83149 -14877713.28449  20945957.0164   20945962.0114
  19340245.242   -27865082.19049 -21700459.98149  19340244.8074   19340249.7774
  18563801.434   -25919111.02749 -20179959.60049  18563801.0784   18563805.5894
  23155250.465    -4676690.37049  -3349315.10949  23155248.9354   23155254.7554
  21889516.606     5491261.32749   4312892.32649  21889516.1234   21889522.0454
  21572348.416   -21145128.58249 -16240266.17549  21572348.3244   21572353.1564
  21507650.261   -20651533.74449 -16071498.52549  21507649.5144   21507654.6314
  23384874.672    -4713176.60949  -3652094.05249  23384874.4584   23384882.2684
  21340966.503     -102513.81449    106610.46349  21340965.3274   21340972.7254
 97  1 12 20 33 29.9950000  0  9 31 19 18 10 29  3 27  2 16
  20927867.556   -19229065.85049 -14951788.29549  20927867.5394   20927871.0944
  19329907.072   -27919409.55249 -21742792.95549  19329906.5544   19329911.3884
  18558620.247   -25946338.13349 -20201175.51249  18558619.4954   18558623.9784
  23136758.518    -4773866.40649  -3425036.64949  23136756.2074   23136763.4604
  21901207.148     5552695.27049   4360762.88249  21901207.0404   21901213.0644
  21566140.287   -21177752.58449 -16265687.44149  21566140.1924   21566145.0244
  21489389.320   -20747495.29049 -16146273.69849  21489388.1664   21489393.8614
  23361697.318    -4834974.04149  -3747001.05649  23361695.4054   23361705.2244
  21353872.971      -34689.80949    159460.32649  21353872.3524   21353878.4214
 97  1 12 20 33 59.9940000  0  9 31 19 18 10 29  3 27  2 16
  20909853.212   -19323732.55249 -15025554.50149  20909853.5204   20909857.4824
  19319606.327   -27973540.09449 -21784972.56749  19319605.8054   19319610.5964
  18553535.290   -25973059.37649 -20221997.24849  18553534.8054   18553539.2954
  23118349.066    -4870608.42849  -3500420.00149  23118348.3204   23118354.2814
  21912942.872     5614366.71549   4408818.52149  21912941.8764   21912947.9514
  21560038.174   -21209819.67749 -16290674.75549  21560038.1864   21560042.3974
  21471144.865   -20843370.22949 -16220981.39849  21471144.5664   21471150.3074
  23338547.907    -4956622.19649  -3841791.72549  23338544.2924   23338552.8864
  21366818.248       33337.48449    212468.58649  21366817.7204   21366824.8714
 97  1 12 20 34 29.9940000  0  9 31 19 18 10 29  3 27  2 16
  20891911.196   -19418018.33949 -15099023.89449  20891910.4914   20891915.3854
  19309336.169   -28027509.78049 -21827026.83449  19309336.0254   19309340.4974
  18548544.926   -25999283.90949 -20242431.92649  18548544.4904   18548548.8014
  23100017.904    -4966939.50749  -3575483.14049  23100015.8024   23100022.3534
  21924718.876     5676250.02049   4457039.22249  21924718.5034   21924724.8424
  21554039.306   -21241344.38949 -16315239.41649  21554039.1294   21554043.4504
  21452911.563   -20939186.90549 -16295643.69549  21452910.7694   21452916.1944
  23315417.957    -5078170.81349  -3936504.81749  23315416.8934   23315426.5764
  21379798.413      101548.10949    265619.71749  21379798.3444   21379805.3424
 97  1 12 20 34 59.9940000  0  9 31 19 18 10 29  3 27  2 16
  20874038.013   -19511942.45649 -15172211.48349  20874037.0454   20874041.6364
  19299089.931   -28081354.26049 -21868983.54649  19299089.8084   19299094.6064
  18543642.615   -26025045.59249 -20262505.94649  18543642.2544   18543646.6554
  23081758.179    -5062894.40649  -3650253.15449  23081756.7624   23081763.8734
  21936531.418     5738324.92549   4505409.23849  21936530.1464   21936537.3214
  21548132.441   -21272384.93549 -16339426.80749  21548132.2584   21548136.8794
  21434684.599   -21034970.60049 -16370280.28049  21434683.9274   21434689.1904
  23292297.508    -5199669.84949  -4031179.38049  23292297.0484   23292306.6554
  21392803.191      169888.21049    318871.72049  21392802.9514   21392809.5644
 97  1 12 20 35 29.9940000  0  9 31 19 18 10 29  3 27  2 16
  20856277.643   -19605272.67949 -15244936.27649  20856276.7404   20856281.6054
  19288911.706   -28134841.15549 -21910661.61449  19288911.3754   19288916.3034
  18538872.265   -26050113.83949 -20282039.63149  18538871.7164   18538876.3324
  23063615.007    -5158237.04649  -3724546.03249  23063613.5934   23063619.0634
  21948423.276     5800817.27249   4554104.53549  21948422.0144   21948428.8384
  21542358.856   -21302725.04149 -16363068.41349  21542358.4964   21542363.1694
  21416506.847   -21130495.16049 -16444714.96249  21416506.2814   21416511.7254
  23269230.494    -5320887.33649  -4125634.72549  23269229.6974   23269236.4824
  21405875.461      238583.45749    372400.46049  21405875.3414   21405881.6154
 97  1 12 20 35 59.9940000  0  9 31 19 18 10 29  3 27  2 16
  20838594.013   -19698200.19449 -15317347.28449  20838592.8224   20838598.6064
  19278764.629   -28188164.24149 -21952212.04049  19278764.1494   19278769.1044
  18534195.964   -26074687.75849 -20301188.12249  18534195.7634   18534200.0944
  23045549.742    -5253170.32549  -3798519.97349  23045549.3284   23045554.4534
  21960358.735     5863539.17549   4602978.70049  21960358.2804   21960364.8244
  21536682.279   -21332555.40349 -16386312.83049  21536681.7154   21536687.0224
  21398340.638   -21225958.89449 -16519102.23549  21398339.8784   21398345.6394
  23246181.515    -5442011.71849  -4220017.46149  23246180.7244   23246188.3364
  21418975.564      307425.07849    426043.26349  21418975.1624   21418982.2734
 97  1 12 20 36 29.9940000  0  9 31 19 18 10 29  3 27  2 16
  20820966.773   -19790831.49349 -15389527.48349  20820966.5254   20820971.9624
  19268631.441   -28241414.24549 -21993705.52749  19268631.2544   19268635.9784
  18529596.174   -26098859.97249 -20320023.60249  18529596.1084   18529600.2074
  23027540.485    -5347809.29149  -3872264.56449  23027539.4764   23027544.7824
  21972322.408     5926409.07149   4651968.20849  21972322.2784   21972328.4324
  21531082.573   -21361981.93749 -16409242.56949  21531082.1324   21531086.7334
  21380165.474   -21321469.61149 -16593526.11249  21380165.4694   21380170.2934
  23223133.397    -5563130.79849  -4314395.96949  23223133.0994   23223140.6054
  21432082.995      376304.79049    479715.74549  21432082.8084   21432088.8684
 97  1 12 20 36 59.9940000  0  9 31 19 18 10 29  3 27  2 16
  20803427.399   -19883001.29149 -15461348.08049  20803426.8074   20803431.0544
  19258546.371   -28294411.78849 -22035002.28449  19258545.9664   19258551.0744
  18525105.868   -26122456.52149 -20338410.50249  18525105.2764   18525109.7574
  23009619.500    -5441984.79849  -3945648.01649  23009618.7224   23009624.9714
  21984347.127     5989599.20949   4701207.21849  21984346.4744   21984353.4914
  21525592.270   -21390833.51949 -16431724.27749  21525591.1934   21525597.9684
  21362010.111   -21416875.75849 -16667868.49849  21362009.8284   21362014.8664
  23200122.078    -5684056.18249  -4408623.55349  23200121.7804   23200129.5454
  21445230.629      445396.32849    533553.29149  21445230.1464   21445236.7734
 97  1 12 20 37 29.9940000  0  9 31 19 18 10 29  3 27  2 16
  20785973.917   -19974719.67849 -15532816.93649  20785973.5804   20785978.3614
  19248510.790   -28347148.94049 -22076096.15749  19248510.7134   19248515.3554
  18520722.009   -26145493.87549 -20356361.68149  18520721.5614   18520725.9034
  22991786.384    -5535698.48049  -4018671.61249  22991785.7184   22991791.6684
  21996427.865     6053083.79349   4750675.66649  21996427.3604   21996434.8954
  21520215.601   -21419087.67949 -16453740.47049  21520214.8654   21520220.7984
  21343874.918   -21512176.53449 -16742128.80049  21343874.5434   21343879.9394
  23177150.032    -5804775.30549  -4502690.39749  23177149.2534   23177157.2204
  21458418.044      514697.10349    587553.86949  21458417.1474   21458424.0544
 97  1 12 20 37 59.9940000  0  9 31 19 18 10 29  3 27  2 16
  20768588.170   -20066082.23649 -15604008.50149  20768586.9964   20768593.1524
  19238507.373   -28399717.74549 -22117058.83249  19238507.0894   19238511.7414
  18516426.891   -26168064.61749 -20373949.25349  18516426.6754   18516430.8314
  22974025.094    -5629034.09749  -4091400.59649  22974023.7944   22974030.1104
  22008546.147     6116765.79749   4800297.93449  22008546.2604   22008551.7694
  21514938.348   -21446819.65949 -16475349.76149  21514937.8884   21514942.8144
  21325744.004   -21607455.18549 -16816371.85449  21325743.6054   21325748.0974
  23154202.339    -5925366.36449  -4596657.41049  23154201.6704   23154209.5984
  21471631.266      584133.59549    641660.19949  21471630.8294   21471637.6154
 97  1 12 20 38 29.9940000  0  9 31 19 18 10 29  3 27  2 16
  20751273.050   -20157073.49049 -15674910.75749  20751272.4234   20751277.8994
  19228539.372   -28452099.67649 -22157875.89649  19228539.0494   19228543.8494
  18512222.369   -26190159.52649 -20391166.05249  18512222.0554   18512226.2104
  22956342.360    -5721957.27049  -4163808.20749  22956341.7954   22956348.3734
  22020704.935     6180660.62349   4850086.07649  22020704.6134   22020710.1934
  21509763.795   -21474012.21149 -16496538.72949  21509763.8304   21509768.4864
  21307620.239   -21702696.13949 -16890585.52549  21307619.7124   21307624.7954
  23131284.630    -6045799.52049  -4690501.38349  23131283.9754   23131292.0804
  21484876.269      653736.41249    695896.13649  21484876.3204   21484882.3254
 97  1 12 20 38 59.9940000  0  9 31 19 18 10 29  3 27  2 16
  20734025.789   -20247708.46649 -15745535.40849  20734025.7234   20734030.3334
  19218602.388   -28504318.94249 -22198566.21349  19218602.0094   19218606.9294
  18508101.870   -26211812.97049 -20408038.85549  18508101.7384   18508105.9184
  22938738.296    -5814467.24249  -4235893.84249  22938736.8434   22938743.5914
  22032898.405     6244737.93649   4900016.38949  22032898.4324   22032904.4534
  21504688.331   -21500683.49949 -16517321.52449  21504687.6254   21504692.9674
  21289503.961   -21797897.16649 -16964768.08249  21289502.5344   21289508.9174
  23108394.341    -6166088.61949  -4784233.06649  23108393.0224   23108401.8594
  21498146.385      723471.05449    750234.78949  21498145.8534   21498152.2074
 97  1 12 20 39 29.9940000  0  9 31 19 18 10 29  3 27  2 16
  20716831.910   -20338063.32849 -15815941.75949  20716830.8564   20716836.3774
  19208678.943   -28556466.84849 -22239200.91849  19208678.5494   19208683.1794
  18504048.693   -26233112.73549 -20424636.05849  18504048.2144   18504052.6074
  22921198.049    -5906641.55149  -4307717.90249  22921196.4664   22921203.4934
  22045110.249     6308911.25549   4950021.53149  22045110.8074   22045117.0054
  21499696.512   -21526914.86949 -16537761.52449  21499695.8104   21499701.2364
  21271386.350   -21893105.31249 -17038956.16549  21271385.5964   21271390.5994
  23085514.679    -6286321.05449  -4877920.57349  23085513.5824   23085521.4204
  21511426.073      793255.40649    804612.19149  21511425.4904   21511431.4464
 97  1 12 20 39 59.9940000  0  9 31 19 18 10 29  3 27  2 16
  20699736.060   -20427902.08949 -15885945.96649  20699734.8924   20699740.3464
  19198808.850   -28608334.25349 -22279617.05849  19198808.4514   19198813.0904
  18500106.202   -26253830.01349 -20440779.38049  18500105.6734   18500109.9574
  22903763.048    -5998262.97849  -4379111.16449  22903761.8864   22903768.0784
  22057383.689     6373408.65549   5000279.20849  22057383.3514   22057390.0414
  21494827.179   -21552503.18049 -16557700.44849  21494826.5214   21494832.3824
  21253307.666   -21988108.93349 -17112984.91149  21253306.4324   21253312.0094
  23062685.614    -6406287.91249  -4971401.11849  23062684.3264   23062692.8684
  21524756.063      863304.20149    859195.65049  21524755.4324   21524761.8274
 97  1 12 20 40 29.9940000  0  9 31 19 18 10 29  3 27  2 16
  20682719.449   -20517324.37049 -15955625.64649  20682718.6124   20682724.4224
  19188967.881   -28660048.76949 -22319914.06349  19188967.5244   19188972.5064
  18496252.487   -26274081.50349 -20456559.74749  18496252.0214   18496256.2774
  22886407.756    -6089465.53549  -4450178.05949  22886406.6604   22886412.5024
  22069697.240     6438116.36149   5050700.75149  22069697.4464   22069702.6364
  21490056.239   -21577574.40049 -16577236.43949  21490056.4634   21490061.2364
  21235244.785   -22083029.94249 -17186949.28249  21235244.5064   21235249.3744
  23039880.527    -6526128.93849  -5064783.62249  23039880.2234   23039886.7484
  21538107.958      933468.37849    913869.02049  21538108.0684   21538114.1044
 97  1 12 20 40 59.9940000  0  9 31 19 18 10 29  3 27  2 16
  20665795.747   -20606259.67049 -16024925.85749  20665795.2384   20665800.0154
  19179168.914   -28711542.66349 -22360039.15549  19179168.4784   19179173.2074
  18492502.196   -26293789.44849 -20471916.57749  18492501.9174   18492506.1234
  22869143.994    -6180186.31549  -4520869.52649  22869142.6024   22869147.6954
  22082060.925     6503087.55849   5101327.62649  22082059.7784   22082066.3224
  21485396.091   -21602063.85249 -16596319.10249  21485395.7404   21485401.6474
  21217210.841   -22177798.91549 -17260795.16949  21217210.1014   21217214.9514
  23017109.416    -6645791.20649  -5158026.87749  23017108.7674   23017116.1534
  21551492.631     1003805.04949    968676.81549  21551492.0924   21551498.3554
 97  1 12 20 41 29.9940000  0  9 31 19 18 10 29  3 27  2 16
  20648947.954   -20694795.42249 -16093914.74449  20648947.0814   20648952.0944
  19169395.554   -28762901.93649 -22400059.34549  19169395.2744   19169399.7704
  18488840.559   -26313031.66349 -20486910.49749  18488840.1324   18488844.6954
  22851951.462    -6270532.92749  -4591269.46149  22851951.3934   22851957.5764
  22094455.577     6568221.53149   5152081.32649  22094456.5264   22094461.6334
  21480829.288   -21626062.16649 -16615019.06749  21480829.2414   21480834.7054
  21199183.535   -22272531.99649 -17334613.09849  21199182.6214   21199187.8384
  22994356.351    -6765358.95449  -5251196.45249  22994355.5994   22994362.9094
  21564893.541     1074227.27649   1023551.27249  21564892.8454   21564898.4414
 97  1 12 20 41 59.9940000  0  9 31 19 18 10 29  3 27  2 16
  20632191.789   -20782849.54149 -16162528.32049  20632191.2314   20632196.1854
  19159663.059   -28814046.57849 -22439912.29949  19159662.8414   19159667.5054
  18485282.484   -26331729.42649 -20501480.17849  18485281.9264   18485286.5264
  22834844.131    -6360432.37949  -4661320.95349  22834843.2274   22834848.6174
  22106895.798     6633594.74149   5203021.45849  22106895.9344   22106900.9734
  21476369.605   -21649497.71449 -16633280.51249  21476369.6494   21476374.7694
  21181172.519   -22367180.75549 -17408365.31849  21181171.8404   21181177.6014
  22971635.615    -6884757.26449  -5344234.01149  22971635.0784   22971641.6394
  21578320.967     1144788.84849   1078534.29549  21578320.6394   21578327.0624
 97  1 12 20 42 29.9940000  0  9 31 19 18 10 29  3 27  2 16
  20615535.115   -20870380.37449 -16230734.14449  20615534.1334   20615538.7014
  19149984.035   -28864910.18849 -22479546.25849  19149983.8324   19149988.1894
  18481837.396   -26349833.11149 -20515586.93749  18481837.1304   18481841.2184
  22817834.181    -6449820.24349  -4730973.79349  22817833.9924   22817840.3114
  22119390.739     6699255.38449   5254185.54749  22119390.9844   22119395.5154
  21472028.351   -21672310.90049 -16651057.00249  21472027.5754   21472032.7914
  21163189.627   -22461681.54749 -17482002.23549  21163189.2394   21163194.3824
  22948959.561    -7003920.88949  -5437088.73649  22948959.2564   22948965.7804
  21591786.221     1215549.66249   1133672.57349  21591785.4884   21591791.2254
 97  1 12 20 42 59.9940000  0  9 31 19 18 10 29  3 27  2 16
  20598941.538   -20957579.90049 -16298681.81049  20598941.1604   20598946.7814
  19140327.560   -28915655.40549 -22519087.96449  19140327.4574   19140331.9074
  18478471.134   -26367522.91849 -20529371.19049  18478470.8514   18478475.1144
  22800889.382    -6538865.12749  -4800359.37249  22800887.9244   22800895.4214
  22131905.778     6765022.05449   5305432.26549  22131905.5814   22131911.4914
  21467772.845   -21694673.34149 -16668482.25949  21467771.4214   21467778.0944
  21145201.035   -22556212.12049 -17555662.35749  21145200.1934   21145206.4474
  22926298.181    -7123007.41949  -5529883.36549  22926296.8054   22926305.2964
  21605257.234     1286341.10649   1188834.70949  21605256.8424   21605263.8834
 97  1 12 20 43 29.9940000  0  9 31 19 18 10 29  3 27  2 16
  20582476.795   -21044102.74149 -16366102.18749  20582475.7194   20582481.7974
  19130755.528   -28965956.91149 -22558283.92749  19130755.2944   19130759.8634
  18475244.988   -26384476.57049 -20542581.82449  18475244.7544   18475248.9204
  22784073.359    -6627233.30949  -4869217.65749  22784070.9764   22784079.1484
  22144507.208     6831243.12249   5357033.07049  22144507.2374   22144511.5444
  21463668.700   -21716240.06649 -16685287.50149  21463668.2524   21463674.0254
  21127270.617   -22650436.84549 -17629084.15949  21127269.9654   21127274.7434
  22903715.376    -7241680.26049  -5622355.59549  22903714.5784   22903722.6974
  21618798.638     1357501.43949   1244284.27549  21618798.2574   21618805.1364
 97  1 12 20 43 59.9940000  0  9 31 19 18 10 29  3 27  2 16
  20566061.957   -21130362.40249 -16433317.47649  20566060.9124   20566066.6734
  19121187.483   -29016237.31149 -22597463.43549  19121186.9684   19121191.6584
  18472077.195   -26401123.51649 -20555553.46249  18472076.8474   18472080.9974
  22767311.198    -6715318.14249  -4937855.09749  22767309.4904   22767318.1564
  22157118.251     6897514.73749   5408673.23749  22157118.0364   22157123.5024
  21459638.276   -21737419.79549 -16701791.16549  21459639.3714   21459642.9664
  21109320.283   -22744765.76049 -17702587.14349  21109319.1124   21109324.6444
  22881129.497    -7360369.68749  -5714840.77049  22881128.3344   22881135.5114
  21632329.945     1428609.38049   1299693.02549  21632329.7204   21632336.8744
 97  1 12 20 44 29.9940000  0  9 31 19 18 10 29  3 27  2 16
  20549742.224   -21216122.97349 -16500143.86849  20549741.8904   20549746.5924
  19111667.910   -29066262.97549 -22636444.45949  19111667.6284   19111672.2334
  18469013.460   -26417223.19849 -20568098.66649  18469013.2984   18469017.1884
  22750647.767    -6802885.67149  -5006089.49349  22750646.4854   22750652.6714
  22169781.701     6964061.29349   5460527.65149  22169782.0194   22169787.8744
  21455727.904   -21757969.07749 -16717803.58349  21455727.8294   21455733.4314
  21091395.005   -22838963.00649 -17775987.53249  21091394.7914   21091399.4044
  22858586.430    -7478833.77049  -5807150.36849  22858584.9914   22858592.4764
  21645896.533     1499902.04349   1355245.71549  21645896.8874   21645902.4884
 97  1 12 20 44 59.9940000  0  9 31 19 18 10 29  3 27  2 16
  20533499.103   -21301481.72649 -16566657.17049  20533498.7154   20533503.4084
  19102171.131   -29116168.95849 -22675332.21049  19102170.6524   19102175.3424
  18466031.956   -26432891.57349 -20580307.78049  18466031.5924   18466035.5774
  22734058.998    -6890060.65649  -5074018.02049  22734058.6994   22734064.0854
  22182474.577     7030762.52449   5512502.59249  22182474.6024   22182480.8264
  21451914.304   -21778009.52449 -16733419.48849  21451913.4494   21451919.5024
  21073469.949   -22933159.64249 -17849387.44549  21073469.5414   21073473.7484
  22836060.963    -7597205.61149  -5899388.07249  22836060.7444   22836067.8644
  21659472.477     1571243.88749   1410836.72849  21659472.6594   21659478.4794
 97  1 12 20 45 29.9940000  0  9 31 19 18 10 29  3 27  2 16
  20517346.551   -21386364.15949 -16632799.31549  20517346.3774   20517350.5064
  19092707.026   -29165902.88149 -22714085.89649  19092706.5344   19092710.9814
  18463145.730   -26448058.81549 -20592126.40249  18463145.4604   18463149.8184
  22717558.585    -6976771.74149  -5141585.08149  22717557.3724   22717563.1304
  22195207.973     7097676.45249   5564643.27749  22195208.3774   22195212.6944
  21448207.026   -21797491.52549 -16748600.25649  21448207.1154   21448212.0074
  21055556.197   -23027297.33249 -17922741.42949  21055555.8924   21055560.1174
  22813561.605    -7715440.67049  -5991519.20649  22813561.5904   22813568.1684
  21673069.411     1642695.64949   1466513.39449  21673068.7574   21673075.2924
 97  1 12 20 45 59.9940000  0  9 31 19 18 10 29  3 27  2 16
  20501308.623   -21470643.41149 -16698471.44049  20501308.4104   20501313.1374
  19083304.701   -29215312.17449 -22752586.62449  19083304.0544   19083308.6684
  18460386.249   -26462559.74949 -20603425.82049  18460386.1114   18460390.4644
  22701174.165    -7062872.27549  -5208676.38049  22701173.2054   22701177.7524
  22208006.888     7164934.70249   5617052.27749  22208007.2374   22208012.9104
  21444629.930   -21816289.30049 -16763247.86549  21444629.2724   21444634.4384
  21037680.838   -23121232.98349 -17995937.97349  21037680.0174   21037685.2654
  22791115.561    -7833395.18349  -6083431.74849  22791114.7504   22791121.6064
  21686714.509     1714400.96849   1522387.64649  21686713.8704   21686720.5294
 97  1 12 20 46 29.9940000  0  9 31 19 18 10 29  3 27  2 16
  20485342.652   -21554544.89349 -16763849.17249  20485342.4534   20485347.7534
  19073921.762   -29264619.35349 -22791007.78449  19073921.2394   19073925.9804
  18457714.963   -26476597.29549 -20614364.15749  18457714.7504   18457718.9554
  22684861.571    -7148596.10949  -5275474.14949  22684860.4784   22684866.1064
  22220826.712     7232303.96549   5669547.76649  22220826.4824   22220833.0354
  21441137.513   -21834642.32249 -16777548.90549  21441137.6794   21441142.4784
  21019802.505   -23215183.46049 -18069146.06549  21019801.6844   21019806.5754
  22768681.358    -7951286.74349  -6175295.21349  22768679.4214   22768688.1804
  21700366.733     1786143.21949   1578290.68349  21700366.9594   21700372.4034
 97  1 12 20 46 59.9940000  0  9 31 19 18 10 29  3 27  2 16
  20469460.749   -21638004.89149 -16828882.89949  20469460.5874   20469465.7634
  19064571.474   -29313755.24749 -22829295.47449  19064571.1024   19064575.8034
  18455142.591   -26490115.44449 -20624897.77149  18455142.4114   18455146.4844
  22668636.483    -7233860.23149  -5341913.70449  22668634.8414   22668641.3214
  22233683.804     7299868.81149   5722195.63449  22233683.8014   22233690.4454
  21437742.361   -21852484.13649 -16791451.60449  21437742.8594   21437747.3354
  21001938.014   -23309061.90949 -18142298.05249  21001937.7114   21001942.3224
  22746271.080    -8069052.52949  -6267060.67149  22746270.9544   22746277.4714
  21714040.441     1857998.64149   1634281.91449  21714040.3134   21714046.6564
 97  1 12 20 47 29.9940000  0  9 31 19 18 10 29  3 27  2 16
  20453664.026   -21721017.74949 -16893568.21649  20453664.5834   20453668.9304
  19055260.476   -29362684.86549 -22867422.43649  19055260.3284   19055264.9764
  18452675.372   -26503080.86149 -20635000.68949  18452674.9394   18452679.3114
  22652505.042    -7318631.65549  -5407969.32749  22652503.1284   22652508.9004
  22246582.560     7367651.88349   5775013.53249  22246582.6114   22246588.0124
  21434450.495   -21869783.34649 -16804931.50549  21434450.2994   21434456.1834
  20984093.789   -23402834.20949 -18215367.32149  20984093.7944   20984098.6364
  22723893.422    -8186647.71149  -6358693.20149  22723892.3174   22723900.5494
  21727741.397     1929997.20149   1690384.68149  21727741.2184   21727746.8414
 97  1 12 20 47 59.9940000  0  9 31 19 18 10 29  3 27  2 16
  20437967.614   -21803503.39849 -16957842.71249  20437967.5104   20437971.5154
  19046004.260   -29411326.73849 -22905325.18349  19046004.0264   19046008.6414
  18450328.982   -26515411.17449 -20644608.71649  18450328.7634   18450333.1514
  22636481.946    -7402833.54649  -5473581.14149  22636480.4214   22636488.9454
  22259541.755     7435752.35949   5828078.79149  22259540.7514   22259547.4824
  21431279.491   -21886447.07849 -16817916.22949  21431279.8144   21431285.1454
  20966287.242   -23496408.58249 -18288282.36549  20966286.6024   20966291.7174
  22701569.979    -8303957.58449  -6450103.40249  22701569.5004   22701576.8624
  21741484.164     2002215.92949   1746659.00049  21741483.9444   21741489.9074
 97  1 12 20 48 29.9940000  0  9 31 19 18 10 29  3 27  2 16
  20422346.974   -21885590.44349 -17021806.59449  20422346.8834   20422351.3384
  19036773.242   -29459836.00349 -22943124.59549  19036772.9064   19036777.7694
  18448069.859   -26527282.51649 -20653859.10249  18448069.6174   18448073.7834
  22620537.900    -7486619.85449  -5538869.13549  22620538.1174   22620543.5324
  22272533.967     7504026.74149   5881279.56549  22272534.7754   22272540.2534
  21428202.815   -21902615.20949 -16830514.75549  21428202.8044   21428207.2964
  20948489.678   -23589935.12249 -18361160.13049  20948489.5424   20948493.3654
  22679274.045    -8421123.25349  -6541401.24049  22679273.6964   22679280.7984
  21755235.813     2074481.49949   1802969.79649  21755234.5554   21755242.4414
 97  1 12 20 48 59.9940000  0  9 31 19 18 10 29  3 27  2 16
  20406813.343   -21967220.70549 -17085414.55849  20406812.2984   20406817.7884
  19027578.589   -29508154.01349 -22980774.97449  19027578.1824   19027583.0724
  18445907.341   -26538646.83049 -20662714.40249  18445907.1544   18445911.4014
  22604682.896    -7569938.36049  -5603792.60149  22604681.7644   22604687.2174
  22285569.167     7572526.70349   5934656.10949  22285568.7024   22285575.5214
  21425231.790   -21918227.88049 -16842680.45349  21425231.0214   21425236.7014
  20930710.276   -23683366.50149 -18433963.76449  20930709.6314   20930714.0884
  22657017.192    -8538083.74149  -6632539.20749  22657016.2644   22657024.1604
  21769003.218     2146830.63249   1859345.69149  21769002.9434   21769010.0334
 97  1 12 20 49 29.9940000  0  9 31 19 18 10 29  3 27  2 16
  20391389.696   -22048271.99849 -17148571.37449  20391389.6254   20391393.8804
  19018439.661   -29556179.26249 -23018197.23749  19018439.3384   19018443.9384
  18443865.084   -26549378.90049 -20671077.04349  18443864.7584   18443868.8244
  22588934.178    -7652698.21549  -5668280.76849  22588932.7374   22588938.9534
  22298662.986     7641334.41549   5988272.46349  22298663.2174   22298669.2784
  21422385.272   -21933186.23349 -16854336.29149  21422384.2224   21422389.7374
  20912966.218   -23776611.95949 -18506622.53349  20912965.9654   20912970.4704
  22634820.310    -8654728.68949  -6723431.28449  22634819.1814   22634827.2964
  21782804.846     2219359.23149   1915861.43849  21782804.3084   21782811.7604
 97  1 12 20 49 59.9940000  0  9 31 19 18 10 29  3 27  2 16
  20376056.726   -22128847.28349 -17211357.26449  20376055.9004   20376060.5864
  19009332.365   -29604038.40749 -23055490.06349  19009332.0934   19009336.7914
  18441917.614   -26559612.90149 -20679051.57649  18441917.2164   18441921.3424
  22573267.384    -7735027.43049  -5732433.34749  22573266.7534   22573272.9504
  22311791.099     7710322.71249   6042029.50749  22311791.3384   22311796.6554
  21419639.420   -21947615.51949 -16865579.85849  21419639.4124   21419644.6764
  20895233.708   -23869797.15349 -18579234.33249  20895233.4814   20895237.4364
  22612656.311    -8771201.13249  -6814188.93049  22612656.1844   22612663.1104
  21796615.618     2291935.06749   1972413.98249  21796615.5674   21796622.2964
 97  1 12 20 50 29.9940000  0  9 31 19 18 10 29  3 27  2 16
  20360805.959   -22208990.29949 -17273806.33249  20360805.5784   20360809.9034
  19000248.217   -29651776.15549 -23092688.30349  19000248.0224   19000252.6254
  18440053.756   -26569407.70149 -20686683.88249  18440053.4674   18440057.6044
  22557670.850    -7816987.69949  -5796298.45049  22557669.5704   22557676.7714
  22324937.372     7779406.62249   6095861.05949  22324937.8974   22324943.0514
  21416983.469   -21961572.59749 -16876455.49449  21416982.7114   21416989.5554
  20877500.535   -23962985.41749 -18651848.54149  20877499.7684   20877503.8174
  22590508.571    -8887589.09349  -6904880.74649  22590508.4764   22590515.3384
  21810424.304     2364499.66149   2028957.77949  21810423.8584   21810431.6914
 97  1 12 20 50 59.9940000  0  9 31 19 18 10 29  3 27  2 16
  20345648.674   -22288642.67449 -17335873.07149  20345648.6414   20345653.2064
  18991198.864   -29699330.78649 -23129743.84849  18991198.3974   18991203.2044
  18438287.368   -26578689.85749 -20693916.71849  18438286.8504   18438291.2524
  22542157.754    -7898508.84549  -5859821.39449  22542156.1504   22542162.0454
  22338109.446     7848626.22449   6149798.33249  22338109.5794   22338116.6254
  21414430.062   -21974991.00949 -16886911.36549  21414429.2594   21414435.3594
  20859777.980   -24056117.78649 -18724419.17949  20859777.4474   20859781.3284
  22568386.381    -9003842.29449  -6995467.55249  22568385.6524   22568391.3834
  21824245.106     2437128.01549   2085551.26949  21824243.9304   21824251.5674
 97  1 12 20 51 29.9940000  0  9 31 19 18 10 29  3 27  2 16
  20330585.782   -22367798.77749 -17397553.10749  20330585.1794   20330589.8434
  18982181.254   -29746718.55249 -23166669.37449  18982181.0304   18982185.4954
  18436613.843   -26587484.18349 -20700769.43549  18436613.7084   18436617.8814
  22526729.440    -7979584.62649  -5922997.29049  22526728.0514   22526735.0654
  22351308.266     7917986.68849   6203845.35949  22351307.4924   22351314.3334
  21411978.413   -21987873.97749 -16896950.00349  21411978.3664   21411982.7894
  20842065.469   -24149197.40349 -18796948.72049  20842065.0794   20842069.3824
  22546287.569    -9119971.75349  -7085957.95149  22546286.1814   22546292.6044
  21838079.078     2509826.14949   2142199.14049  21838078.4834   21838085.0494
 97  1 12 20 51 59.9940000  0  9 31 19 18 10 29  3 27  2 16
  20315603.640   -22446529.77549 -17458901.89549  20315602.7814   20315607.9314
  18973186.837   -29793984.85949 -23203500.25149  18973186.8964   18973191.3534
  18435018.644   -26595867.15249 -20707301.60949  18435018.2724   18435022.2894
  22511377.531    -8060258.98049  -5985860.39549  22511375.8294   22511382.6784
  22364526.699     7987450.79449   6257973.18049  22364526.5704   22364533.2294
  21409619.916   -22000267.68249 -16906607.39549  21409619.0894   21409625.1504
  20824352.360   -24242280.62949 -18869481.07849  20824351.4514   20824356.3204
  22524204.054    -9236020.34049  -7176385.33049  22524202.7794   22524210.6464
  21851916.524     2582542.28649   2198861.03649  21851915.4644   21851922.6404
 97  1 12 20 52 29.9940000  0  9 31 19 18 10 29  3 27  2 16
  20300709.946   -22524796.31949 -17519888.75849  20300709.5414   20300714.2954
  18964224.300   -29841083.45349 -23240200.44449  18964224.0914   18964228.4074
  18433509.340   -26603798.34849 -20713481.75449  18433508.9074   18433513.2624
  22496110.948    -8140484.79349  -6048373.94649  22496110.0074   22496114.6934
  22377774.705     8057069.01849   6312221.09249  22377774.5794   22377780.2884
  21407361.672   -22012134.42749 -16915854.18349  21407361.5624   21407366.9694
  20806645.450   -24335330.99949 -18941987.84249  20806644.7804   20806649.1074
  22502147.967    -9351925.38549  -7266700.83549  22502147.1084   22502154.6684
  21865765.001     2655317.16649   2255568.70149  21865763.5374   21865771.5874
 97  1 12 20 52 59.9940000  0  9 31 19 18 10 29  3 27  2 16
  20285913.575   -22602551.83249 -17580477.42749  20285912.9854   20285917.6324
  18955303.036   -29887964.98349 -23276731.49849  18955302.5074   18955307.1454
  18432097.283   -26611218.66849 -20719263.81849  18432097.0354   18432101.2694
  22480941.828    -8220198.42349  -6110488.40849  22480941.3784   22480946.2084
  22391067.058     8126920.61249   6366650.85449  22391066.2374   22391072.9914
  21405213.725   -22023421.89449 -16924649.57649  21405213.3394   21405219.3624
  20788957.211   -24428282.95949 -19014417.92049  20788956.3054   20788961.1114
  22480133.304    -9467612.76549  -7356846.77249  22480132.8384   22480140.3584
  21879635.148     2728205.52449   2312364.78649  21879634.5444   21879640.5064
 97  1 12 20 53 29.9940000  0  9 31 19 18 10 29  3 27  2 16
  20271210.699   -22679816.21249 -17640683.39649  20271210.3834   20271215.7514
  18946422.768   -29934630.82149 -23313094.48049  18946422.2054   18946427.0624
  18430780.948   -26618136.10249 -20724654.01649  18430780.5564   18430784.9014
  22465867.671    -8299413.23649  -6172214.18049  22465865.6854   22465872.8894
  22404405.615     8197015.63849   6421270.26949  22404406.5524   22404411.6474
  21403172.116   -22034150.75349 -16933009.69049  21403171.6634   21403177.2904
  20771285.564   -24521148.05449 -19086780.30649  20771284.9194   20771290.1594
  22458160.487    -9583080.68349  -7446821.70349  22458159.4604   22458167.1014
  21893524.703     2801195.75749   2369240.25449  21893524.7684   21893531.2964
 97  1 12 20 53 59.9940000  0  9 31 19 18 10 29  3 27  2 16
  20256589.408   -22756651.73349 -17700555.17049  20256588.6654   20256594.1724
  18937577.974   -29981110.42449 -23349312.34549  18937577.6384   18937582.1754
  18429555.184   -26624577.31749 -20729673.13949  18429554.9754   18429559.1344
  22450875.756    -8378195.86349  -6233603.17249  22450875.2524   22450881.1524
  22417779.696     8267295.83249   6476034.00249  22417779.9944   22417785.2334
  21401226.953   -22044372.74849 -16940974.85949  21401226.4594   21401231.3014
  20753621.206   -24613974.60449 -19159112.66549  20753620.8774   20753625.6424
  22436220.125    -9698377.25249  -7536663.11349  22436219.0594   22436226.7334
  21907418.872     2874209.76849   2426134.24049  21907418.0504   21907425.6494
 97  1 12 20 54 29.9940000  0  9 31 19 18 10 29  3 27  2 16
  20242059.285   -22833007.15949 -17760052.86349  20242058.7444   20242063.0244
  18928774.553   -30027372.60649 -23385360.79349  18928774.1724   18928778.8704
  18428430.498   -26630487.92449 -20734278.80849  18428430.1834   18428434.4634
  22435973.468    -8456508.44149  -6294625.92049  22435972.4494   22435976.5484
  22431193.119     8337783.30749   6530959.24349  22431192.8584   22431198.5754
  21399382.648   -22054063.70949 -16948526.22949  21399382.0764   21399387.9054
  20735972.945   -24706716.49849 -19231379.04749  20735972.6654   20735977.6974
  22414314.281    -9813492.10449  -7626362.94649  22414313.1344   22414320.8574
  21921322.350     2947273.06949   2483066.65349  21921322.1844   21921329.3024
 97  1 12 20 54 59.9940000  0  9 31 19 18 10 29  3 27  2 16
  20227625.263   -22908857.99449 -17819157.35649  20227624.7874   20227628.9274
  18920015.034   -30073404.07849 -23421229.45949  18920014.6564   18920019.0984
  18427411.544   -26635842.46349 -20738451.17249  18427410.8594   18427415.1884
  22421166.767    -8534317.63249  -6355256.42749  22421164.6814   22421170.4564
  22444647.410     8408485.55549   6586051.86149  22444647.5444   22444653.4054
  21397643.518   -22063202.21449 -16955647.11349  21397643.1604   21397649.3564
  20718345.105   -24799350.89649 -19303561.65949  20718344.7184   20718349.6834
  22392445.436    -9928412.45549  -7715911.20249  22392444.7434   22392452.2684
  21935239.839     3020410.01649   2540056.45349  21935239.6304   21935245.8774
 97  1 12 20 55 29.9940000  0  9 31 19 18 10 29  3 27  2 16
  20213292.571   -22984176.62649 -17877847.15349  20213291.5894   20213297.2324
  18911301.390   -30119194.29149 -23456910.13749  18911300.8894   18911305.7094
  18426501.841   -26640622.28849 -20742175.70749  18426501.1694   18426505.6304
  22406459.981    -8611602.68949  -6415478.50349  22406460.8804   22406465.0154
  22458142.545     8479402.14849   6641311.51749  22458143.4514   22458147.5494
  21396013.685   -22071767.22949 -16962321.12449  21396013.7584   21396019.3784
  20700739.063   -24891871.00449 -19375655.22049  20700738.2074   20700743.2664
  22370615.589   -10043128.43549  -7805300.21949  22370614.1564   22370622.6354
  21949172.498     3093627.13249   2597108.71249  21949172.9644   21949179.1894
 97  1 12 20 55 59.9940000  0  9 31 19 18 10 29  3 27  2 16
  20199063.776   -23058949.38249 -17936111.59349  20199063.3494   20199068.1524
  18902631.993   -30164752.33449 -23492409.90349  18902631.7304   18902636.6064
  18425701.848   -26644826.46249 -20745451.68549  18425701.8324   18425705.8734
  22391854.483    -8688355.70449  -6475286.04749  22391853.9424   22391858.4464
  22471675.873     8550519.00749   6696727.19049  22471676.9524   22471681.4424
  21394494.873   -22079748.84849 -16968540.55849  21394494.9794   21394500.3054
  20683156.103   -24984269.60649 -19447654.10849  20683155.3204   20683160.1884
  22348822.908   -10157649.51849  -7894537.37549  22348821.5234   22348830.2874
  21963119.115     3166917.00449   2654217.66649  21963119.0994   21963126.0594
 97  1 12 20 56 29.9940000  0  9 31 19 18 10 29  3 27  2 16
  20184932.013   -23133212.35949 -17993978.81049  20184931.3734   20184936.5584
  18893995.694   -30210136.35649 -23527774.07049  18893995.4594   18893999.9354
  18425001.044   -26648509.58749 -20748321.65549  18425000.6774   18425005.0914
  22377345.394    -8764601.46349  -6534698.28849  22377345.9664   22377350.3074
  22485235.712     8621776.24149   6752252.20749  22485236.4454   22485239.7874
  21393079.593   -22087185.97549 -16974335.71049  21393078.8804   21393085.3444
  20665588.569   -25076587.14849 -19519589.83449  20665588.2914   20665592.8134
  22327059.431   -10272016.08049  -7983654.11749  22327058.4794   22327066.1104
  21977076.161     3240260.87249   2711368.68349  21977076.0274   21977083.3484
 97  1 12 20 56 59.9940000  0  9 31 19 18 10 29  3 27  2 16
  20170891.789   -23206993.98349 -18051470.94149  20170890.7134   20170896.0294
  18885386.119   -30255380.05149 -23563028.88749  18885385.7204   18885390.2884
  18424391.791   -26651711.00149 -20750816.26249  18424391.6794   18424395.8614
  22362925.624    -8840377.77149  -6593744.73949  22362923.3404   22362930.1814
  22498818.148     8693153.22049   6807870.53549  22498818.3324   22498825.0444
  21391765.939   -22094089.42249 -16979715.00349  21391765.2194   21391771.0704
  20648031.788   -25168848.80649 -19591482.00049  20648031.8754   20648036.1064
  22305325.578   -10386228.54349  -8072650.79249  22305325.2354   22305332.9234
  21991038.057     3313630.83649   2768540.04449  21991037.5714   21991044.8704
 97  1 12 20 57 29.9940000  0  9 31 19 18 10 29  3 27  2 16
  20156950.289   -23280256.30249 -18108558.42049  20156949.7044   20156954.6034
  18876812.189   -30300436.28849 -23598137.63749  18876811.7454   18876816.4684
  18423881.801   -26654391.04449 -20752904.60849  18423881.5524   18423885.6394
  22348599.746    -8915660.12749  -6652406.29949  22348599.7364   22348604.9764
  22512432.556     8764697.71349   6863619.42149  22512433.5274   22512438.8984
  21390560.603   -22100423.14749 -16984650.35549  21390560.3534   21390564.8794
  20630495.359   -25261003.59349 -19663290.89849  20630494.9464   20630499.2614
  22283630.833   -10500235.95249  -8161487.69149  22283630.2744   22283637.6124
  22005010.124     3387054.43149   2825753.19549  22005010.1784   22005016.4434
 97  1 12 20 57 59.9940000  0  9 31 19 18 10 29  3 27  2 16
  20143109.240   -23352991.20949 -18165234.92649  20143108.8864   20143114.1434
  18868276.236   -30345292.85449 -23633090.79749  18868275.8744   18868280.6974
  18423468.382   -26656563.55449 -20754597.47549  18423468.0484   18423472.3474
  22334369.294    -8990441.48149  -6710677.45349  22334367.3594   22334372.0074
  22526079.994     8836415.52649   6919503.38049  22526079.1804   22526085.8374
  21389461.806   -22106196.96949 -16989149.43349  21389462.0944   21389466.7794
  20612980.554   -25353044.51249 -19735011.07149  20612980.5604   20612985.1224
  22261978.165   -10614021.68149  -8250151.86749  22261978.2434   22261985.0624
  22018994.944     3460545.02149   2883018.54549  22018994.8074   22019001.1844
 97  1 12 20 58 29.9940000  0  9 31 19 18 10 29  3 27  2 16
  20129369.773   -23425192.81749 -18221495.86949  20129369.2484   20129374.0944
  18859778.439   -30389948.96749 -23667887.75849  18859778.1374   18859783.0154
  18423150.138   -26658235.93349 -20755900.62749  18423150.0894   18423154.1684
  22320235.245    -9064715.92549  -6768553.64849  22320234.1234   22320238.1134
  22539762.160     8908315.39449   6975529.22949  22539764.1364   22539767.9744
  21388467.742   -22111420.74049 -16993219.90049  21388467.3224   21388472.7954
  20595486.617   -25444976.14649 -19806646.09349  20595486.5914   20595490.6814
  22240370.607   -10727570.17149  -8338631.17249  22240369.5034   22240377.4164
  22032991.444     3534096.57849   2940331.40649  22032990.7684   22032998.0634
 97  1 12 20 58 59.9940000  0  9 31 19 18 10 29  3 27  2 16
  20115733.381   -23496852.88049 -18277334.84049  20115732.9484   20115737.6504
  18851319.148   -30434402.99549 -23702527.25949  18851319.0434   18851323.6274
  18422928.007   -26659403.51149 -20756810.43349  18422927.7634   18422932.0504
  22306196.866    -9138487.53949  -6826038.00449  22306197.0314   22306200.7854
  22553482.671     8980417.37149   7031712.52549  22553481.9794   22553489.7474
  21387575.425   -22116109.90749 -16996873.80249  21387575.2304   21387580.6494
  20578011.185   -25536810.18849 -19878205.06449  20578010.4604   20578015.4944
  22218807.795   -10840882.54349  -8426926.47249  22218806.6304   22218814.9894
  22046995.985     3607690.09549   2997676.96249  22046996.2624   22047001.6784
 97  1 12 20 59 29.9940000  0  9 31 19 18 10 29  3 27  2 16
  20102191.428   -23568016.14649 -18332786.69049  20102190.9034   20102195.6094
  18842892.107   -30478687.63749 -23737034.76449  18842891.8474   18842896.4524
  18422795.591   -26660099.31949 -20757352.62649  18422795.3444   18422799.7144
  22292249.551    -9211781.58049  -6883150.19549  22292248.5274   22292254.5554
  22567232.097     9052671.25349   7088014.16649  22567232.1404   22567238.1654
  21386773.445   -22120324.70349 -17000158.05849  21386773.6154   21386779.7554
  20560544.054   -25628600.30849 -19949729.80849  20560543.3824   20560548.3974
  22197278.721   -10954018.44749  -8515084.29249  22197278.0544   22197285.1564
  22061001.226     3681287.97149   3055025.90149  22061000.6774   22061007.7264
 97  1 12 20 59 59.9940000  0  9 31 19 18 10 29  3 27  2 16
  20088748.481   -23638659.07449 -18387833.08749  20088747.7894   20088752.7224
  18834498.825   -30522794.41349 -23771403.67349  18834498.2584   18834503.2044
  18422758.678   -26660293.35249 -20757503.82449  18422758.3804   18422762.5784
  22278400.464    -9284558.84749  -6939859.75249  22278399.8854   22278405.1594
  22581012.713     9125089.37549   7144443.76249  22581013.4804   22581019.7664
  21386066.832   -22124038.65349 -17003052.04949  21386066.8544   21386072.0994
  20543086.764   -25720338.69149 -20021214.22949  20543086.1074   20543090.9594
  22175784.093   -11066972.84849  -8603100.65949  22175784.0744   22175790.9944
  22075009.830     3754903.60349   3112388.69049  22075008.4204   22075016.0824
 97  1 12 21  0 29.9940000  0  9 31 19 18 10 29  3 27  2 16
  20075408.162   -23708762.55249 -18442459.12449  20075407.2654   20075411.8424
  18826142.101   -30566709.20649 -23805622.98149  18826141.8134   18826146.5514
  18422826.454   -26659937.24449 -20757226.33249  18422825.9834   18422830.2714
  22264652.866    -9356802.22749  -6996153.25849  22264653.1114   22264657.8194
  22594828.903     9197692.51449   7201017.56549  22594829.4154   22594835.8414
  21385461.979   -22127217.73849 -17005529.26349  21385461.7834   21385467.5064
  20525644.274   -25811998.82849 -20092637.68249  20525643.4934   20525648.7474
  22154326.184   -11179734.39149  -8690966.71849  22154325.7694   22154332.9584
  22089023.945     3828548.06549   3169773.93549  22089023.5674   22089030.1404
 97  1 12 21  0 59.9940000  0  9 31 19 18 10 29  3 27  2 16
  20062180.869   -23778271.72349 -18496622.08049  20062179.8824   20062185.5984
  18817830.930   -30610384.62649 -23839655.76649  18817830.6674   18817835.3634
  18423010.524   -26658969.96849 -20756472.61549  18423010.2354   18423014.3914
  22251014.506    -9428471.78349  -7051999.63249  22251014.4134   22251019.8284
  22608687.981     9270520.82949   7257766.82849  22608688.1014   22608694.9544
  21384970.616   -22129800.18149 -17007541.56349  21384970.8134   21384975.9774
  20508227.234   -25903525.72049 -20163957.30849  20508226.9304   20508231.7184
  22132913.206   -11292260.71449  -8778649.49849  22132913.0334   22132919.9944
  22103053.617     3902274.58949   3227223.11849  22103053.3154   22103061.0154
 97  1 12 21  1 29.9930000  0  9 31 19 18 10 29  3 27  2 16
  20049048.307   -23847283.67049 -18550397.59249  20049047.5034   20049052.5284
  18809545.981   -30653922.31249 -23873581.22949  18809545.5734   18809550.5564
  18423292.651   -26657487.51749 -20755317.45949  18423292.4304   18423296.5484
  22237468.451    -9499656.42549  -7107468.16549  22237467.0624   22237473.5854
  22622567.266     9343456.41349   7314599.67749  22622567.4124   22622573.6014
  21384577.606   -22131865.08049 -17009150.58649  21384577.0054   21384583.3494
  20490819.297   -25995005.13249 -20235239.93549  20490818.6414   20490824.0274
  22111528.156   -11404640.03749  -8866217.70149  22111526.2294   22111534.4424
  22117078.312     3975974.92149   3284651.88649  22117077.7864   22117086.2874
 97  1 12 21  1 59.9930000  0  9 31 19 18 10 29  3 27  2 16
  20036021.775   -23915738.15249 -18603738.72449  20036021.0114   20036025.4174
  18801298.310   -30697263.81749 -23907353.83049  18801297.9824   18801302.6434
  18423683.439   -26655433.89849 -20753717.23849  18423683.2694   18423687.4984
  22224024.504    -9570305.26149  -7162519.16849  22224024.6084   22224028.9644
  22636479.564     9416565.77549   7371567.92249  22636480.0314   22636485.4144
  21384296.946   -22133339.38049 -17010299.40049  21384296.9694   21384302.5674
  20473431.303   -26086379.30949 -20306440.56749  20473431.3384   20473435.3724
  22090183.027   -11516809.45149  -8953622.29549  22090181.0664   22090188.8274
  22131108.648     4049704.12149   3342103.13949  22131108.1634   22131115.7534
 97  1 12 21  2 29.9930000  0  9 31 19 18 10 29  3 27  2 16
  20023072.815   -23983784.91849 -18656762.15249  20023072.1964   20023077.0464
  18793062.771   -30740541.82849 -23941076.94749  18793062.5644   18793067.1714
  18424150.814   -26652977.77049 -20751803.37249  18424150.5264   18424154.8884
  22210650.439    -9640586.16049  -7217283.46349  22210649.7574   22210655.4614
  22650396.675     9489700.54949   7428555.99849  22650396.0074   22650402.6994
  21384100.463   -22134372.20949 -17011104.19049  21384100.7254   21384105.7314
  20456037.843   -26177782.62649 -20377663.89549  20456037.5604   20456042.5214
  22068850.433   -11628912.07349  -9040974.82149  22068850.2334   22068857.1524
  22145117.741     4123322.01349   3399467.66949  22145117.3744   22145124.6314
 97  1 12 21  2 59.9930000  0  9 31 19 18 10 29  3 27  2 16
  20010230.193   -24051273.36549 -18709350.51649  20010229.8664   20010234.6764
  18784871.294   -30783588.39549 -23974619.71449  18784871.1244   18784875.6934
  18424721.911   -26649976.69649 -20749464.86949  18424721.6314   18424725.8494
  22197376.269    -9710342.26649  -7271638.88149  22197374.2884   22197381.3914
  22664348.266     9563016.30349   7485685.10149  22664348.8584   22664353.9254
  21384019.328   -22134799.12049 -17011436.82149  21384018.7324   21384023.7074
  20438668.005   -26269061.37549 -20448790.15749  20438667.5254   20438672.5344
  22047562.312   -11740781.42849  -9128145.54149  22047561.3714   22047568.7954
  22159135.175     4196984.21849   3456866.72849  22159133.7214   22159141.3004
 97  1 12 21  3 29.9930000  0  9 31 19 18 10 29  3 27  2 16
  19997496.074   -24118191.82749 -18761494.74149  19997495.7624   19997500.1564
  18776732.016   -30826360.92749 -24007948.95749  18776731.6394   18776736.2834
  18425398.985   -26646418.64249 -20746692.36349  18425398.4424   18425402.9654
  22184205.961    -9779552.63649  -7325568.99849  22184205.1844   22184210.1094
  22678337.040     9636527.65949   7542966.62049  22678337.9234   22678342.9074
  21384056.917   -22134601.61149 -17011282.90049  21384056.9254   21384062.3164
  20421325.049   -26360198.64649 -20519806.17449  20421324.2314   20421329.5884
  22026322.920   -11852394.58949  -9215116.61849  22026321.7654   22026329.0624
  22173163.953     4270705.93849   3514312.14649  22173162.8694   22173171.0614
 97  1 12 21  3 59.9930000  0  9 31 19 18 10 29  3 27  2 16
  19984852.013   -24184636.69749 -18813269.93549  19984851.1454   19984855.9884
  18768626.799   -30868954.18749 -24041138.50149  18768626.5104   18768631.0634
  18426159.397   -26642422.34349 -20743578.36549  18426158.9864   18426163.2534
  22171117.195    -9848334.33649  -7379165.12349  22171116.9954   22171122.9514
  22692344.949     9710139.71549   7600326.61649  22692345.4864   22692350.1604
  21384192.092   -22133891.29549 -17010729.39749  21384191.5324   21384197.3034
  20403990.271   -26451293.58549 -20590789.21449  20403989.9624   20403994.4354
  22005111.819   -11963858.83649  -9301971.64849  22005110.7594   22005118.0434
  22187186.478     4344394.56049   3571731.79449  22187186.9804   22187192.9334
 97  1 12 21  4 29.9930000  0  9 31 19 18 10 29  3 27  2 16
  19972325.693   -24250462.29049 -18864562.57849  19972325.5474   19972329.9344
  18760582.006   -30911229.97549 -24074080.66749  18760581.5804   18760586.3604
  18427030.279   -26637845.60449 -20740012.07249  18427029.9134   18427034.2954
  22158136.579    -9916548.58849  -7432319.05949  22158136.9414   22158142.0084
  22706396.591     9783981.54549   7657865.66349  22706396.2794   22706401.8704
  21384451.831   -22132525.55249 -17009665.17449  21384451.4824   21384455.7604
  20386690.766   -26542203.09849 -20661627.76949  20386690.3484   20386695.1044
  21983957.376   -12075025.56849  -9388594.85249  21983956.6534   21983963.3524
  22201228.334     4418184.80649   3629230.65249  22201228.2694   22201233.6354
 97  1 12 21  4 59.9930000  0  9 31 19 18 10 29  3 27  2 16
  19959903.275   -24315742.53249 -18915430.26649  19959902.7174   19959907.3514
  18752578.687   -30953287.63349 -24106852.86749  18752578.2604   18752582.9024
  18427995.868   -26632771.22549 -20736058.01449  18427995.5444   18427999.9704
  22145247.603    -9984280.82149  -7485097.40749  22145246.6154   22145251.8044
  22720472.556     9857951.62349   7715504.62249  22720472.7044   22720480.2464
  21384817.651   -22130602.78949 -17008166.90949  21384816.9594   21384823.0734
  20369406.787   -26633031.15449 -20732402.84349  20369406.1744   20369411.5184
  21962845.874   -12185966.69449  -9475042.26349  21962844.6694   21962851.6694
  22215269.883     4491973.11849   3686727.99649  22215269.3794   22215276.5474
 97  1 12 21  5 29.9930000  0  9 31 19 18 10 29  3 27  2 16
  19947579.861   -24380502.33249 -18965892.41849  19947579.6584   19947584.1394
  18744606.880   -30995179.39649 -24139495.79349  18744606.4494   18744611.1614
  18429046.566   -26627249.67649 -20731755.50849  18429046.1974   18429050.6394
  22132442.945   -10051570.11449  -7537530.58949  22132441.1004   22132447.8774
  22734566.556     9932015.83749   7773216.89449  22734565.6784   22734572.9804
  21385276.349   -22128192.20549 -17006288.51549  21385276.3914   21385281.3084
  20352130.529   -26723818.38749 -20803146.11849  20352130.0644   20352134.5314
  21941768.563   -12296727.48849  -9561349.17349  21941767.2514   21941774.0504
  22229302.754     4565716.04349   3744189.95949  22229302.2744   22229309.7884
 97  1 12 21  5 59.9930000  0  8 31 19 18 10  3 27  2 16
  19935359.117   -24444722.85549 -19015934.35949  19935358.5284   19935363.4594
  18736665.836   -31036909.86349 -24172013.03249  18736665.5764   18736670.2754
  18430187.666   -26621252.84549 -20727082.65049  18430187.2374   18430191.7404
  22119727.593   -10118389.37049  -7589597.53249  22119726.7224   22119731.9554
  21385830.105   -22125282.43149 -17004021.15549  21385830.5584   21385834.8434
  20334867.377   -26814536.64849 -20873835.65549  20334866.8754   20334871.5454
  21920730.615   -12407281.68449  -9647495.09849  21920729.5254   21920736.7834
  22243331.238     4639436.05049   3801634.05549  22243331.1524   22243337.8304
 97  1 12 21  6 29.9930000  0  8 31 19 18 10  3 27  2 16
  19923260.191   -24508302.85849 -19065477.18949  19923259.0554   19923264.5034
  18728776.049   -31078370.90149 -24204320.32749  18728775.7284   18728780.2904
  18431442.051   -26614660.94049 -20721946.09749  18431441.6584   18431445.9864
  22107123.699   -10184623.14049  -7641208.24049  22107122.4284   22107128.6404
  21386497.755   -22121773.85249 -17001287.18549  21386497.2064   21386502.4784
  20317636.475   -26905085.22549 -20944392.96649  20317635.9434   20317640.2384
  21899753.156   -12517518.05949  -9733393.38949  21899752.1774   21899759.6184
  22257374.421     4713232.69149   3859137.87649  22257374.6904   22257380.8874
 97  1 12 21  6 59.9930000  0  8 31 19 18 10  3 27  2 16
  19911278.916   -24571264.58349 -19114538.24949  19911278.1794   19911283.0134
  18720933.978   -31119581.11249 -24236432.16849  18720933.5774   18720938.2584
  18432805.007   -26607498.50249 -20716364.97949  18432804.6354   18432809.3894
  22094627.526   -10250291.46849  -7692378.36549  22094625.6094   22094632.1164
  21387272.183   -22117704.46449 -16998116.22049  21387271.8104   21387276.3074
  20300434.454   -26995482.31549 -21014832.22549  20300433.8824   20300438.3654
  21878829.211   -12627473.94949  -9819073.14249  21878827.6534   21878835.1284
  22271427.292     4787080.39649   3916681.47449  22271427.5524   22271433.8584
 97  1 12 21  7 29.9930000  0  8 31 19 18 10  3 27  2 16
  19899394.437   -24633717.41849 -19163202.76749  19899393.9864   19899398.7714
  18713124.115   -31160622.11049 -24268412.16349  18713123.8644   18713128.6234
  18434259.756   -26599853.69749 -20710407.99449  18434259.2884   18434263.8574
  22082224.560   -10315468.11349  -7743165.33349  22082223.2554   22082229.3824
  21388136.431   -22113162.76749 -16994577.22549  21388135.8424   21388141.6274
  20283244.288   -27085816.97049 -21085222.83749  20283244.1124   20283248.3524
  21857936.891   -12737262.91849  -9904622.83649  21857935.1764   21857943.0434
  22285471.816     4860884.51549   3974191.10749  22285470.5204   22285479.0104
 97  1 12 21  7 59.9930000  0  8 31 19 18 10  3 27  2 16
  19887608.443   -24695653.08749 -19211464.29349  19887607.6764   19887612.9194
  18705350.631   -31201472.06949 -24300243.29349  18705350.3954   18705355.2534
  18435812.225   -26591695.27849 -20704050.78649  18435811.7334   18435816.3904
  22069919.602   -10380130.51249  -7793551.60049  22069917.7044   22069925.0464
  21389097.611   -22108111.54749 -16990641.20949  21389097.0364   21389102.6324
  20266067.870   -27176079.69049 -21155557.38749  20266067.8034   20266072.1834
  21837078.968   -12846871.22749  -9990031.78049  21837077.7164   21837085.0744
  22299509.689     4934653.75549   4031673.54949  22299509.5014   22299516.3694
 97  1 12 21  8 29.9930000  0  8 31 19 18 10  3 27  2 16
  19875911.016   -24757123.18149 -19259363.03049  19875910.5234   19875915.2664
  18697602.290   -31242190.00849 -24331971.54949  18697601.9894   18697606.7994
  18437448.346   -26583097.50149 -20697351.22149  18437448.3004   18437452.4674
  22057698.503   -10444352.15549  -7843594.40749  22057698.1334   22057703.7464
  21390142.640   -22102619.62349 -16986361.79949  21390141.9934   21390147.4754
  20248891.361   -27266343.25849 -21225892.61549  20248891.1644   20248895.2954
  21816241.107   -12956373.52549 -10075358.12149  21816240.1014   21816247.1534
  22313524.683     5008302.57249   4089062.13849  22313523.9594   22313530.9484
 97  1 12 21  8 59.9930000  0  8 31 19 18 10  3 27  2 16
  19864340.494   -24817926.75849 -19306742.41549  19864340.0944   19864345.0014
  18689913.912   -31282592.66149 -24363454.13049  18689913.8124   18689918.3014
  18439205.371   -26573864.44649 -20690156.64149  18439205.3544   18439209.3814
  22045600.903   -10507925.43149  -7893131.99949  22045600.1594   22045606.3944
  21391310.695   -22096481.40949 -16981578.78349  21391310.2244   21391315.6644
  20231752.796   -27356406.63849 -21296071.84149  20231752.1794   20231756.8894
  21795461.817   -13065568.76849 -10160445.20149  21795460.6774   21795468.3494
  22327554.609     5082031.14449   4146512.85949  22327553.9464   22327561.9574
 97  1 12 21  9 29.9930000  0  8 31 19 18 10  3 27  2 16
  19852871.845   -24878195.05649 -19353704.68849  19852871.3534   19852875.9214
  18682255.497   -31322837.90049 -24394814.04749  18682255.0144   18682259.7364
  18441057.386   -26564132.53649 -20682573.33949  18441057.1424   18441061.3624
  22033600.726   -10570986.43449  -7942270.40349  22033598.6874   22033605.6874
  21392577.210   -22089825.65549 -16976392.49749  21392577.1174   21392582.8334
  20214626.770   -27446403.92649 -21366199.55649  20214626.2654   20214631.0264
  21774716.513   -13174585.60249 -10245393.25949  21774715.7584   21774722.3724
  22341575.140     5155710.07749   4203924.91349  22341574.2204   22341582.0554
 97  1 12 21  9 59.9930000  0  8 31 19 18 10  3 27  2 16
  19841512.481   -24937888.92449 -19400219.36049  19841512.0974   19841517.1944
  18674628.029   -31362920.31849 -24426047.09549  18674627.8444   18674632.2914
  18443006.432   -26553890.11549 -20674592.24149  18443006.2124   18443010.4974
  22021697.680   -10633537.01649  -7991011.09649  22021696.9864   22021703.8414
  21393944.166   -22082642.45549 -16970795.22349  21393943.6014   21393949.1964
  20197518.904   -27536306.27249 -21436253.30449  20197518.4294   20197523.1094
  21754010.345   -13283397.03749 -10330181.30749  21754009.4234   21754016.5384
  22355589.222     5229354.43449   4261310.03849  22355589.2184   22355597.1064
 97  1 12 21 10 29.9930000  0  8 31 19 18 10  3 27  2 16
  19830255.765   -24997042.87649 -19446313.31649  19830255.5504   19830259.9954
  18667024.803   -31402875.38749 -24457180.90449  18667024.5084   18667029.4824
  18445042.360   -26543191.22749 -20666255.44649  18445042.5234   18445046.4624
  22009883.034   -10695623.60249  -8039390.22149  22009881.9264   22009887.5984
  21395400.745   -22074987.84549 -16964830.60849  21395400.0834   21395405.9804
  20180423.550   -27626142.53649 -21506255.55949  20180423.1244   20180427.7974
  21733335.468   -13392044.34449 -10414841.45749  21733335.6454   21733341.1154
  22369588.347     5302919.31749   4318633.24649  22369588.6564   22369594.7544
 97  1 12 21 10 59.9930000  0  8 31 19 18 10  3 27  2 16
  19819132.512   -25055495.76249 -19491860.99049  19819131.6014   19819136.7864
  18659478.180   -31442533.10849 -24488083.01949  18659477.9824   18659482.6244
  18447194.848   -26531880.02149 -20657441.53149  18447194.6134   18447198.7564
  21998189.051   -10757075.63349  -8087274.86549  21998187.8614   21998194.9774
  21396979.920   -22066689.47549 -16958364.36749  21396979.4494   21396985.4414
  20163371.133   -27715753.79349 -21576082.49049  20163370.7194   20163375.2144
  21712723.188   -13500363.02549 -10499245.58149  21712722.1854   21712728.8444
  22383606.622     5376584.58849   4376034.70449  22383606.5024   22383612.9274
 97  1 12 21 11 29.9930000  0  8 31 19 18 10  3 27  2 16
  19808111.828   -25113409.76649 -19536988.74949  19808111.2604   19808116.3494
  18651961.664   -31482032.70049 -24518861.91449  18651961.5564   18651966.3474
  18449431.205   -26520128.01449 -20648284.12649  18449430.9754   18449435.1674
  21986581.858   -10818072.51849  -8134804.88949  21986581.1574   21986587.0254
  21398649.228   -22057917.80449 -16951529.31749  21398649.2934   21398654.6024
  20146328.799   -27805311.90549 -21645868.00149  20146328.6574   20146333.3014
  21692139.864   -13608528.76849 -10583530.50949  21692139.2744   21692145.9354
  22397611.671     5450181.27049   4433382.72949  22397611.1264   22397618.1834
 97  1 12 21 11 59.9930000  0  8 31 19 18 10  3 27  2 16
  19797209.840   -25170700.22049 -19581630.62649  19797208.9474   19797214.3034
  18644497.905   -31521255.28449 -24549424.96449  18644497.4734   18644502.1234
  18451768.101   -26507847.55449 -20638714.94149  18451767.7674   18451772.0064
  21975078.915   -10878521.33449  -8181907.84849  21975078.0004   21975084.2174
  21400424.589   -22048588.28649 -16944259.57849  21400424.1254   21400429.4274
  20129311.551   -27894738.75349 -21715551.23449  20129310.9684   20129315.8604
  21671604.481   -13716442.69049 -10667619.23849  21671603.7914   21671609.6474
  22411618.615     5523787.97549   4490738.53149  22411617.5504   22411624.8184
 97  1 12 21 12 29.9930000  0  8 31 19 18 10  3 27  2 16
  19786410.747   -25227449.87549 -19625851.10049  19786410.8434   19786415.0294
  18637074.418   -31560265.90349 -24579822.84149  18637074.1924   18637078.5844
  18454194.085   -26495098.96049 -20628780.97549  18454193.8974   18454197.8974
  21963671.254   -10938468.91249  -8228620.22349  21963670.1184   21963676.4854
  21402296.758   -22038749.83449 -16936593.25349  21402296.6584   21402301.7604
  20112305.741   -27984104.74549 -21785187.04349  20112305.3014   20112310.1794
  21651106.394   -13824160.30549 -10751554.99549  21651105.6314   21651111.1434
  22425616.812     5597348.13649   4548058.05849  22425616.4794   22425622.3224
 97  1 12 21 12 59.9930000  0  8 31 19 18 10  3 27  2 16
  19775710.621   -25283679.33649 -19669666.23649  19775709.7514   19775714.8154
  18629684.062   -31599102.52149 -24610085.13949  18629683.8284   18629688.6974
  18456708.028   -26481888.48449 -20618487.10649  18456707.8974   18456711.9504
  21952354.457   -10997939.57149  -8274960.97749  21952353.5824   21952359.6114
  21404265.096   -22028406.79349 -16928533.71449  21404265.0964   21404269.9634
  20095304.349   -28073447.35449 -21854804.64249  20095304.0404   20095308.5334
  21630643.243   -13931693.99649 -10835347.43149  21630641.8884   21630648.9314
  22439603.719     5670849.55249   4605331.81349  22439602.6064   22439611.6934
 97  1 12 21 13 29.9930000  0  8 31 19 18 10  3 27  2 16
  19765110.535   -25339382.75749 -19713071.47249  19765109.5994   19765114.4894
  18622326.068   -31637768.94249 -24640214.81449  18622325.6624   18622330.4694
  18459313.827   -26468194.98649 -20607816.85549  18459313.6334   18459317.8044
  21941128.208   -11056934.16149  -8320930.78149  21941126.9544   21941133.4744
  21406326.862   -22017572.38749 -16920091.29149  21406326.4094   21406331.1934
  20078309.917   -28162753.47749 -21924393.81549  20078309.6154   20078314.4614
  21610217.572   -14039030.81849 -10918986.46749  21610216.6084   21610224.0914
  22453575.143     5744270.14749   4662542.57949  22453574.4344   22453582.9844
 97  1 12 21 13 59.9930000  0  8 31 19 18 10  3 27  2 16
  19754626.254   -25394477.67249 -19756002.55249  19754625.7374   19754630.7444
  18615013.059   -31676199.10549 -24670160.39249  18615012.9154   18615017.5384
  18462030.478   -26453918.86549 -20596692.61549  18462030.2324   18462034.6244
  21930011.100   -11115354.56249  -8366453.17349  21930010.4704   21930015.9604
  21408499.314   -22006155.64349 -16911195.10749  21408500.0544   21408503.5034
  20061340.458   -28251928.49449 -21993880.82649  20061340.2834   20061344.7934
  21589847.856   -14146074.23149 -11002396.86349  21589846.4604   21589853.5464
  22467543.893     5817677.08849   4719742.68549  22467543.8934   22467551.6604
 97  1 12 21 14 29.9930000  0  8 31 19 18 10  3 27  2 16
  19744251.475   -25448997.30549 -19798485.36349  19744251.5994   19744255.6294
  18607733.449   -31714453.70149 -24699969.16149  18607733.0244   18607737.8824
  18464850.628   -26439098.88149 -20585144.58249  18464850.3804   18464854.6634
  21918993.537   -11173251.92749  -8411567.98549  21918993.5774   21918998.3614
  21410774.519   -21994199.31149 -16901878.46049  21410774.1304   21410779.5264
  20044388.899   -28341009.51849 -22063294.60449  20044388.6984   20044393.3054
  21569522.559   -14252884.21849 -11085625.35349  21569520.4424   21569528.6544
  22481502.235     5891028.98449   4776899.88249  22481502.0204   22481510.6874
 97  1 12 21 14 59.9930000  0  8 31 19 18 10  3 27  2 16
  19733998.388   -25502877.91849 -19840470.23149  19733997.4384   19734002.8534
  18600500.164   -31752464.76149 -24729588.15949  18600499.8724   18600504.7674
  18467782.021   -26423694.40849 -20573141.10049  18467781.5114   18467785.8064
  21908084.187   -11230580.90849  -8456239.89849  21908083.4994   21908090.1724
  21413157.391   -21981676.46949 -16892120.37449  21413157.0004   21413162.1604
  20027464.923   -28429945.35749 -22132595.24949  20027464.9054   20027469.3184
  21549250.264   -14359414.69649 -11168636.06849  21549249.1954   21549256.0824
  22495455.562     5964353.94049   4834036.11249  22495455.6204   22495463.6654
 97  1 12 21 15 29.9930000  0  8 31 19 18 10  3 27  2 16
  19723862.101   -25556144.37049 -19881976.54049  19723861.5754   19723865.9574
  18593310.417   -31790247.05449 -24759028.90549  18593310.0094   18593314.8764
  18470815.410   -26407753.66649 -20560719.74949  18470814.8414   18470819.3784
  21897281.204   -11287350.97949  -8500476.31349  21897280.3884   21897287.3414
  21415640.691   -21968626.82749 -16881951.80549  21415639.8214   21415645.6804
  20010566.309   -28518748.72349 -22201792.66849  20010565.8744   20010570.4034
  21529024.199   -14465702.45349 -11251457.64449  21529023.6674   21529030.3504
  22509397.474     6037619.05949   4891125.68649  22509397.3184   22509405.2544
 97  1 12 21 15 59.9930000  0  8 31 19 18 10  3 27  2 16
  19713836.724   -25608828.18549 -19923028.83749  19713836.3354   19713840.8874
  18586160.405   -31827820.49949 -24788306.90249  18586159.8694   18586164.6304
  18473942.962   -26391318.07149 -20547912.80249  18473942.4864   18473946.9384
  21886580.316   -11343584.17349  -8544294.37249  21886579.7164   21886585.8974
  21418222.030   -21955061.88349 -16871381.70549  21418221.5144   21418226.8674
  19993685.536   -28607458.05649 -22270916.80949  19993684.9204   19993690.0694
  21508837.312   -14571785.05849 -11334119.37949  21508836.8124   21508843.4254
  22523327.161     6110818.49749   4948164.09549  22523326.9054   22523334.6994
 97  1 12 21 16 29.9930000  0  8 31 19 18 10  3 27  2 16
  19703919.450   -25660943.99049 -19963638.54049  19703919.0514   19703923.3644
  18579048.535   -31865193.66849 -24817428.84149  18579048.2534   18579052.9864
  18477158.632   -26374419.62649 -20534745.19049  18477158.5094   18477162.5724
  21875977.392   -11399302.80549  -8587711.47349  21875976.4174   21875982.7754
  21420895.979   -21941009.66649 -16860431.92149  21420895.0634   21420901.1124
  19976818.333   -28696095.51649 -22339984.94249  19976817.6674   19976823.0934
  21488685.430   -14677683.09449 -11416637.27249  21488684.6434   21488692.3584
  22537242.855     6183945.42049   5005146.00349  22537241.9524   22537249.5044
 97  1 12 21 16 59.9930000  0  8 31 19 18 10  3 27  2 16
  19694110.302   -25712491.09449 -20003805.08749  19694109.3324   19694114.0894
  18571977.492   -31902352.17749 -24846383.50849  18571977.2584   18571981.7574
  18480460.535   -26357068.14149 -20521224.55549  18480460.2444   18480464.3624
  21865474.234   -11454498.43349  -8630721.04549  21865473.5184   21865480.1014
  21423663.168   -21926467.97949 -16849100.74249  21423663.1674   21423666.9804
  19959965.371   -28784658.24049 -22408994.83449  19959965.0144   19959969.5174
  21468571.061   -14783384.12049 -11499001.65149  21468569.9784   21468577.4014
  22551143.634     6256994.12449   5062066.97249  22551143.4184   22551151.1364
